Time,TemperatureF,DewpointF,PressureIn,WindDirection,WindDirectionDegrees,WindSpeedMPH,WindSpeedGustMPH,Humidity,HourlyPrecipIn,Conditions,Clouds,dailyrainin,SoftwareType,DateUTC
2013-02-18 00:00:00,39.4,36.7,30.00,NE,45,1.1,1.1,90,0.00,,---,0.00,VWS V14.01,2013-02-18 08:00:00,
2013-02-18 00:01:00,39.7,36.5,29.97,NE,45,0.0,1.3,88,0.00,,---,0.00,VWS V14.01,2013-02-18 08:01:00,
2013-02-18 00:02:00,39.7,36.5,29.97,NE,45,0.0,0.0,88,0.00,,---,0.00,VWS V14.01,2013-02-18 08:02:00,
2013-02-18 00:03:00,39.7,36.5,29.97,NE,45,0.0,0.0,88,0.00,,---,0.00,VWS V14.01,2013-02-18 08:03:00,
2013-02-18 00:04:00,39.7,36.5,29.97,NE,45,0.0,0.0,88,0.00,,---,0.00,VWS V14.01,2013-02-18 08:04:00,
2013-02-18 00:05:00,39.7,36.5,29.97,NE,45,0.0,0.0,88,0.00,,---,0.00,VWS V14.01,2013-02-18 08:05:00,
2013-02-18 00:06:00,39.7,36.5,29.97,NE,45,0.0,0.0,88,0.00,,---,0.00,VWS V14.01,2013-02-18 08:06:00,
2013-02-18 00:07:00,39.7,36.5,29.97,NE,45,0.0,0.0,88,0.00,,---,0.00,VWS V14.01,2013-02-18 08:07:00,
2013-02-18 00:08:00,39.7,36.5,29.97,NE,45,0.0,0.0,88,0.00,,---,0.00,VWS V14.01,2013-02-18 08:08:00,
2013-02-18 00:09:00,39.7,36.5,29.97,NE,45,0.0,0.0,88,0.00,,---,0.00,VWS V14.01,2013-02-18 08:09:00,
2013-02-18 00:10:00,39.7,36.5,29.97,NE,45,0.0,0.0,88,0.00,,---,0.00,VWS V14.01,2013-02-18 08:10:00,
2013-02-18 00:11:00,39.7,36.5,29.97,NE,45,0.0,0.0,88,0.00,,---,0.00,VWS V14.01,2013-02-18 08:11:00,
2013-02-18 00:12:00,38.8,36.2,30.00,NE,45,0.0,0.0,90,0.00,,---,0.00,VWS V14.01,2013-02-18 08:12:00,
2013-02-18 00:13:00,39.7,36.5,29.97,NE,45,0.0,0.0,88,0.00,,---,0.00,VWS V14.01,2013-02-18 08:13:00,
2013-02-18 00:14:00,39.4,36.1,29.97,NE,45,0.0,0.0,88,0.00,,---,0.00,VWS V14.01,2013-02-18 08:14:00,
2013-02-18 00:15:00,39.6,36.3,29.97,NE,45,0.0,0.0,88,0.00,,---,0.00,VWS V14.01,2013-02-18 08:15:00,
2013-02-18 00:16:00,39.6,36.3,29.97,NE,45,0.0,0.0,88,0.00,,---,0.00,VWS V14.01,2013-02-18 08:16:00,
2013-02-18 00:17:00,39.4,36.1,29.97,NE,45,0.0,0.0,88,0.00,,---,0.00,VWS V14.01,2013-02-18 08:17:00,
2013-02-18 00:18:00,39.4,36.1,29.97,NE,45,1.6,1.6,88,0.00,,---,0.00,VWS V14.01,2013-02-18 08:18:00,
2013-02-18 00:19:00,39.4,36.1,29.97,NE,45,0.0,0.9,88,0.00,,---,0.00,VWS V14.01,2013-02-18 08:19:00,
2013-02-18 00:20:00,39.4,35.8,29.97,NE,45,1.1,1.6,87,0.00,,---,0.00,VWS V14.01,2013-02-18 08:20:00,
2013-02-18 00:21:00,39.4,35.8,29.97,NE,45,0.9,1.1,87,0.00,,---,0.00,VWS V14.01,2013-02-18 08:21:00,
2013-02-18 00:22:00,39.4,36.1,29.97,NE,45,0.0,0.9,88,0.00,,---,0.00,VWS V14.01,2013-02-18 08:22:00,
2013-02-18 00:23:00,39.4,36.1,29.97,NE,45,0.0,0.0,88,0.00,,---,0.00,VWS V14.01,2013-02-18 08:23:00,
2013-02-18 00:24:00,39.4,36.1,29.97,NE,45,0.0,0.0,88,0.00,,---,0.00,VWS V14.01,2013-02-18 08:24:00,
2013-02-18 00:25:00,39.4,36.1,29.97,NE,45,0.0,0.0,88,0.00,,---,0.00,VWS V14.01,2013-02-18 08:25:00,
2013-02-18 00:26:00,39.4,36.1,29.97,NE,45,0.0,0.0,88,0.00,,---,0.00,VWS V14.01,2013-02-18 08:26:00,
2013-02-18 00:27:00,39.4,36.1,29.97,NE,45,0.0,0.0,88,0.00,,---,0.00,VWS V14.01,2013-02-18 08:27:00,
2013-02-18 00:28:00,39.4,36.1,29.97,NE,45,0.0,0.0,88,0.00,,---,0.00,VWS V14.01,2013-02-18 08:28:00,
2013-02-18 00:29:00,39.4,36.1,29.97,NE,45,0.9,1.1,88,0.00,,---,0.00,VWS V14.01,2013-02-18 08:29:00,
2013-02-18 00:30:00,39.4,36.1,29.97,NE,45,0.9,1.3,88,0.00,,---,0.00,VWS V14.01,2013-02-18 08:30:00,
2013-02-18 00:31:00,39.4,36.1,29.97,NE,45,1.1,1.1,88,0.00,,---,0.00,VWS V14.01,2013-02-18 08:31:00,
2013-02-18 00:32:00,39.2,36.0,29.97,NE,45,0.0,1.1,88,0.00,,---,0.00,VWS V14.01,2013-02-18 08:32:00,
2013-02-18 00:33:00,39.2,36.0,29.97,NE,45,0.0,0.0,88,0.00,,---,0.00,VWS V14.01,2013-02-18 08:33:00,
2013-02-18 00:34:00,39.2,36.0,29.97,NE,45,0.0,0.0,88,0.00,,---,0.00,VWS V14.01,2013-02-18 08:34:00,
2013-02-18 00:35:00,39.2,36.0,29.97,NE,45,0.0,0.0,88,0.00,,---,0.00,VWS V14.01,2013-02-18 08:35:00,
2013-02-18 00:36:00,39.2,36.0,29.97,NE,45,0.0,0.0,88,0.00,,---,0.00,VWS V14.01,2013-02-18 08:36:00,
2013-02-18 00:37:00,39.2,36.0,29.97,NE,45,0.0,0.0,88,0.00,,---,0.00,VWS V14.01,2013-02-18 08:37:00,
2013-02-18 00:38:00,39.2,36.0,29.97,NE,45,0.0,0.0,88,0.00,,---,0.00,VWS V14.01,2013-02-18 08:38:00,
2013-02-18 00:39:00,39.2,36.0,29.97,NE,45,0.0,0.0,88,0.00,,---,0.00,VWS V14.01,2013-02-18 08:39:00,
2013-02-18 00:40:00,39.2,36.0,29.97,NE,45,0.0,0.0,88,0.00,,---,0.00,VWS V14.01,2013-02-18 08:40:00,
2013-02-18 00:41:00,39.2,36.0,29.97,NE,45,0.0,0.0,88,0.00,,---,0.00,VWS V14.01,2013-02-18 08:41:00,
2013-02-18 00:42:00,39.2,36.0,29.97,NE,45,0.0,0.0,88,0.00,,---,0.00,VWS V14.01,2013-02-18 08:42:00,
2013-02-18 00:43:00,39.2,36.0,29.97,NE,45,0.0,0.0,88,0.00,,---,0.00,VWS V14.01,2013-02-18 08:43:00,
2013-02-18 00:44:00,39.2,36.0,29.97,NE,45,0.0,0.0,88,0.00,,---,0.00,VWS V14.01,2013-02-18 08:44:00,
2013-02-18 00:45:00,39.2,36.0,29.97,NE,45,0.0,0.0,88,0.00,,---,0.00,VWS V14.01,2013-02-18 08:45:00,
2013-02-18 00:46:00,39.2,36.0,29.97,NE,45,0.0,0.0,88,0.00,,---,0.00,VWS V14.01,2013-02-18 08:46:00,
2013-02-18 00:47:00,39.2,36.0,29.97,NE,45,0.0,0.0,88,0.00,,---,0.00,VWS V14.01,2013-02-18 08:47:00,
2013-02-18 00:48:00,39.2,36.0,29.97,NE,45,0.0,0.0,88,0.00,,---,0.00,VWS V14.01,2013-02-18 08:48:00,
2013-02-18 00:49:00,39.2,36.0,30.00,NE,45,1.3,1.6,88,0.00,,---,0.00,VWS V14.01,2013-02-18 08:49:00,
2013-02-18 00:50:00,39.2,36.0,29.97,NE,45,1.1,1.3,88,0.00,,---,0.00,VWS V14.01,2013-02-18 08:50:00,
2013-02-18 00:51:00,39.2,36.0,30.00,NE,45,1.6,1.6,88,0.00,,---,0.00,VWS V14.01,2013-02-18 08:51:00,
2013-02-18 00:52:00,39.2,36.0,30.00,NE,45,1.6,1.6,88,0.00,,---,0.00,VWS V14.01,2013-02-18 08:52:00,
2013-02-18 00:53:00,39.4,36.4,30.00,NE,45,1.3,1.6,89,0.00,,---,0.00,VWS V14.01,2013-02-18 08:53:00,
2013-02-18 00:54:00,39.4,36.7,30.00,NE,45,0.0,0.0,90,0.00,,---,0.00,VWS V14.01,2013-02-18 08:54:00,
2013-02-18 00:55:00,39.6,36.9,30.00,NE,45,0.9,1.3,90,0.00,,---,0.00,VWS V14.01,2013-02-18 08:55:00,
2013-02-18 00:56:00,39.4,36.7,30.00,NE,45,0.0,0.9,90,0.00,,---,0.00,VWS V14.01,2013-02-18 08:56:00,
2013-02-18 00:57:00,39.4,36.7,30.00,NE,45,0.0,0.0,90,0.00,,---,0.00,VWS V14.01,2013-02-18 08:57:00,
2013-02-18 00:58:00,39.4,36.7,30.00,NE,45,0.0,0.0,90,0.00,,---,0.00,VWS V14.01,2013-02-18 08:58:00,
2013-02-18 00:59:00,39.4,36.7,30.00,NE,45,1.1,1.1,90,0.00,,---,0.00,VWS V14.01,2013-02-18 08:59:00,
2013-02-18 01:00:00,39.4,36.7,30.00,NE,45,1.1,1.1,90,0.00,,---,0.00,VWS V14.01,2013-02-18 09:00:00,
2013-02-18 01:01:00,39.4,36.7,30.00,NE,45,1.1,1.1,90,0.00,,---,0.00,VWS V14.01,2013-02-18 09:01:00,
2013-02-18 01:02:00,39.4,36.7,30.00,NE,45,1.1,1.1,90,0.00,,---,0.00,VWS V14.01,2013-02-18 09:02:00,
2013-02-18 01:03:00,39.2,36.5,30.00,NE,45,0.0,1.1,90,0.00,,---,0.00,VWS V14.01,2013-02-18 09:03:00,
2013-02-18 01:04:00,39.0,36.3,30.00,NE,45,0.0,0.0,90,0.00,,---,0.00,VWS V14.01,2013-02-18 09:04:00,
2013-02-18 01:05:00,39.2,36.5,30.00,NE,45,0.0,0.0,90,0.00,,---,0.00,VWS V14.01,2013-02-18 09:05:00,
2013-02-18 01:06:00,39.2,36.5,30.00,NE,45,0.0,0.0,90,0.00,,---,0.00,VWS V14.01,2013-02-18 09:06:00,
2013-02-18 01:07:00,39.0,36.3,30.00,NE,45,0.0,0.0,90,0.00,,---,0.00,VWS V14.01,2013-02-18 09:07:00,
2013-02-18 01:08:00,39.0,36.3,30.00,NE,45,0.0,0.0,90,0.00,,---,0.00,VWS V14.01,2013-02-18 09:08:00,
2013-02-18 01:09:00,38.8,36.2,30.00,NE,45,0.0,0.0,90,0.00,,---,0.00,VWS V14.01,2013-02-18 09:09:00,
2013-02-18 01:10:00,38.8,36.2,30.00,NE,45,0.0,0.0,90,0.00,,---,0.00,VWS V14.01,2013-02-18 09:10:00,
2013-02-18 01:11:00,38.8,36.2,30.00,NE,45,0.0,0.0,90,0.00,,---,0.00,VWS V14.01,2013-02-18 09:11:00,
2013-02-18 01:12:00,38.8,36.2,30.00,NE,45,0.0,0.0,90,0.00,,---,0.00,VWS V14.01,2013-02-18 09:12:00,
2013-02-18 01:13:00,38.8,36.2,30.00,NE,45,0.0,0.0,90,0.00,,---,0.00,VWS V14.01,2013-02-18 09:13:00,
2013-02-18 01:14:00,38.8,36.2,30.00,NE,45,0.0,0.0,90,0.00,,---,0.00,VWS V14.01,2013-02-18 09:14:00,
2013-02-18 01:15:00,38.8,36.2,30.00,NE,45,0.0,0.0,90,0.00,,---,0.00,VWS V14.01,2013-02-18 09:15:00,
2013-02-18 01:16:00,38.8,36.2,30.00,NE,45,0.0,0.0,90,0.00,,---,0.00,VWS V14.01,2013-02-18 09:16:00,
2013-02-18 01:17:00,38.8,36.2,30.00,NE,45,0.0,0.0,90,0.00,,---,0.00,VWS V14.01,2013-02-18 09:17:00,
2013-02-18 01:18:00,38.8,36.2,30.00,NE,45,0.0,0.0,90,0.00,,---,0.00,VWS V14.01,2013-02-18 09:18:00,
2013-02-18 01:19:00,38.8,36.2,29.97,NE,45,0.0,0.0,90,0.00,,---,0.00,VWS V14.01,2013-02-18 09:19:00,
2013-02-18 01:21:00,38.8,36.2,30.00,NE,45,0.0,0.0,90,0.00,,---,0.00,VWS V14.01,2013-02-18 09:21:00,
2013-02-18 01:22:00,38.8,36.2,29.97,NE,45,0.0,0.0,90,0.00,,---,0.00,VWS V14.01,2013-02-18 09:22:00,
2013-02-18 01:23:00,38.8,36.2,29.97,NE,45,0.0,0.0,90,0.00,,---,0.00,VWS V14.01,2013-02-18 09:23:00,
2013-02-18 01:24:00,38.8,36.2,29.97,NE,45,0.0,0.0,90,0.00,,---,0.00,VWS V14.01,2013-02-18 09:24:00,
2013-02-18 01:25:00,38.8,36.2,29.97,NE,45,0.0,0.0,90,0.00,,---,0.00,VWS V14.01,2013-02-18 09:25:00,
2013-02-18 01:26:00,38.8,36.2,29.97,NE,45,0.0,0.0,90,0.00,,---,0.00,VWS V14.01,2013-02-18 09:26:00,
2013-02-18 01:27:00,38.8,36.2,29.97,NE,45,0.0,0.0,90,0.00,,---,0.00,VWS V14.01,2013-02-18 09:27:00,
2013-02-18 01:28:00,38.8,36.2,29.97,NE,45,0.0,0.0,90,0.00,,---,0.00,VWS V14.01,2013-02-18 09:28:00,
2013-02-18 01:29:00,38.8,36.4,29.97,NE,45,0.0,0.0,91,0.00,,---,0.00,VWS V14.01,2013-02-18 09:29:00,
2013-02-18 01:30:00,38.8,36.4,29.97,NE,45,0.0,0.0,91,0.00,,---,0.00,VWS V14.01,2013-02-18 09:30:00,
2013-02-18 01:31:00,38.8,36.4,29.97,NE,45,0.0,0.0,91,0.00,,---,0.00,VWS V14.01,2013-02-18 09:31:00,
2013-02-18 01:32:00,38.1,35.7,29.97,NE,45,0.0,0.0,91,0.00,,---,0.00,VWS V14.01,2013-02-18 09:32:00,
2013-02-18 01:33:00,38.8,36.2,29.97,NE,45,1.1,1.1,90,0.00,,---,0.00,VWS V14.01,2013-02-18 09:33:00,
2013-02-18 01:34:00,38.8,36.4,29.97,NE,45,0.0,0.0,91,0.00,,---,0.00,VWS V14.01,2013-02-18 09:34:00,
2013-02-18 01:35:00,38.8,36.4,29.97,NE,45,0.0,1.1,91,0.00,,---,0.00,VWS V14.01,2013-02-18 09:35:00,
2013-02-18 01:36:00,38.8,36.4,29.97,NE,45,0.0,0.0,91,0.00,,---,0.00,VWS V14.01,2013-02-18 09:36:00,
2013-02-18 01:37:00,38.8,36.4,29.97,NE,45,0.0,0.0,91,0.00,,---,0.00,VWS V14.01,2013-02-18 09:37:00,
2013-02-18 01:38:00,38.8,36.4,29.97,NE,45,0.0,0.0,91,0.00,,---,0.00,VWS V14.01,2013-02-18 09:38:00,
2013-02-18 01:39:00,38.8,36.4,29.97,NE,45,1.6,1.6,91,0.00,,---,0.00,VWS V14.01,2013-02-18 09:39:00,
2013-02-18 01:40:00,38.7,36.3,29.97,NE,45,0.0,0.0,91,0.00,,---,0.00,VWS V14.01,2013-02-18 09:40:00,
2013-02-18 01:41:00,38.8,36.4,29.97,NE,45,0.0,0.0,91,0.00,,---,0.00,VWS V14.01,2013-02-18 09:41:00,
2013-02-18 01:42:00,38.8,36.4,29.97,NE,45,1.3,1.6,91,0.00,,---,0.00,VWS V14.01,2013-02-18 09:42:00,
2013-02-18 01:43:00,38.8,36.4,29.97,NE,45,1.3,1.3,91,0.00,,---,0.00,VWS V14.01,2013-02-18 09:43:00,
2013-02-18 01:44:00,38.8,36.4,29.97,NE,45,0.0,0.0,91,0.00,,---,0.00,VWS V14.01,2013-02-18 09:44:00,
2013-02-18 01:45:00,38.8,36.4,29.97,NE,45,0.0,0.0,91,0.00,,---,0.00,VWS V14.01,2013-02-18 09:45:00,
2013-02-18 01:46:00,38.8,36.4,29.97,NE,45,0.0,0.0,91,0.00,,---,0.00,VWS V14.01,2013-02-18 09:46:00,
2013-02-18 01:47:00,38.7,36.3,29.97,NE,45,0.0,0.0,91,0.00,,---,0.00,VWS V14.01,2013-02-18 09:47:00,
2013-02-18 01:48:00,38.7,36.3,29.97,NE,45,0.0,0.0,91,0.00,,---,0.00,VWS V14.01,2013-02-18 09:48:00,
2013-02-18 01:49:00,38.8,36.4,29.97,NE,45,0.9,1.1,91,0.00,,---,0.00,VWS V14.01,2013-02-18 09:49:00,
2013-02-18 01:50:00,38.8,36.4,29.97,NE,45,1.3,1.6,91,0.00,,---,0.00,VWS V14.01,2013-02-18 09:50:00,
2013-02-18 01:51:00,38.8,36.4,29.97,NE,45,1.1,1.3,91,0.00,,---,0.00,VWS V14.01,2013-02-18 09:51:00,
2013-02-18 01:52:00,38.8,36.4,29.97,NE,45,0.9,1.1,91,0.00,,---,0.00,VWS V14.01,2013-02-18 09:52:00,
2013-02-18 01:53:00,38.8,36.7,29.97,NE,45,0.9,0.9,92,0.00,,---,0.00,VWS V14.01,2013-02-18 09:53:00,
2013-02-18 01:54:00,38.7,36.3,29.97,NE,45,0.0,0.0,91,0.00,,---,0.00,VWS V14.01,2013-02-18 09:54:00,
2013-02-18 01:55:00,38.7,36.5,29.97,NE,45,0.0,0.0,92,0.00,,---,0.00,VWS V14.01,2013-02-18 09:55:00,
2013-02-18 01:56:00,38.7,36.5,29.97,NE,45,0.0,0.0,92,0.00,,---,0.00,VWS V14.01,2013-02-18 09:56:00,
2013-02-18 01:57:00,38.7,36.3,29.97,NE,45,0.0,0.0,91,0.00,,---,0.00,VWS V14.01,2013-02-18 09:57:00,
2013-02-18 01:58:00,38.7,36.3,29.97,NE,45,0.0,0.0,91,0.00,,---,0.00,VWS V14.01,2013-02-18 09:58:00,
2013-02-18 01:59:00,38.5,36.1,29.97,NE,45,0.0,0.0,91,0.00,,---,0.00,VWS V14.01,2013-02-18 09:59:00,
2013-02-18 02:00:00,38.5,36.1,29.97,NE,45,0.0,0.0,91,0.00,,---,0.00,VWS V14.01,2013-02-18 10:00:00,
2013-02-18 02:01:00,38.5,36.1,29.97,NE,45,0.0,0.0,91,0.00,,---,0.00,VWS V14.01,2013-02-18 10:01:00,
2013-02-18 02:02:00,38.5,36.1,29.97,NE,45,0.0,0.0,91,0.00,,---,0.00,VWS V14.01,2013-02-18 10:02:00,
2013-02-18 02:03:00,38.5,36.1,29.97,NE,45,0.0,0.0,91,0.00,,---,0.00,VWS V14.01,2013-02-18 10:03:00,
2013-02-18 02:04:00,38.3,35.9,29.97,NE,45,0.0,0.0,91,0.00,,---,0.00,VWS V14.01,2013-02-18 10:04:00,
2013-02-18 02:05:00,38.5,36.1,29.97,NE,45,0.0,0.0,91,0.00,,---,0.00,VWS V14.01,2013-02-18 10:05:00,
2013-02-18 02:06:00,38.5,36.1,29.97,NE,45,0.0,0.0,91,0.00,,---,0.00,VWS V14.01,2013-02-18 10:06:00,
2013-02-18 02:07:00,38.3,35.9,29.97,NE,45,0.0,0.0,91,0.00,,---,0.00,VWS V14.01,2013-02-18 10:07:00,
2013-02-18 02:08:00,38.5,36.1,29.97,NE,45,0.0,0.0,91,0.00,,---,0.00,VWS V14.01,2013-02-18 10:08:00,
2013-02-18 02:09:00,38.5,36.1,29.97,NE,45,1.1,1.3,91,0.00,,---,0.00,VWS V14.01,2013-02-18 10:09:00,
2013-02-18 02:10:00,38.5,36.1,29.97,NE,45,1.3,1.6,91,0.00,,---,0.00,VWS V14.01,2013-02-18 10:10:00,
2013-02-18 02:11:00,38.5,36.1,29.97,NE,45,1.3,1.3,91,0.00,,---,0.00,VWS V14.01,2013-02-18 10:11:00,
2013-02-18 02:12:00,38.5,36.1,29.97,NE,45,1.1,1.3,91,0.00,,---,0.00,VWS V14.01,2013-02-18 10:12:00,
2013-02-18 02:13:00,38.5,36.1,29.97,NE,45,1.1,1.1,91,0.00,,---,0.00,VWS V14.01,2013-02-18 10:13:00,
2013-02-18 02:14:00,38.7,36.5,29.97,NE,45,0.0,0.0,92,0.00,,---,0.00,VWS V14.01,2013-02-18 10:14:00,
2013-02-18 02:15:00,38.7,36.5,29.97,NE,45,0.0,1.1,92,0.00,,---,0.00,VWS V14.01,2013-02-18 10:15:00,
2013-02-18 02:16:00,38.7,36.5,29.97,NE,45,0.0,0.0,92,0.00,,---,0.00,VWS V14.01,2013-02-18 10:16:00,
2013-02-18 02:17:00,38.7,36.5,29.97,NE,45,0.0,0.0,92,0.00,,---,0.00,VWS V14.01,2013-02-18 10:17:00,
2013-02-18 02:18:00,38.7,36.5,29.97,NE,45,0.0,0.0,92,0.00,,---,0.00,VWS V14.01,2013-02-18 10:18:00,
2013-02-18 02:19:00,38.5,36.4,29.97,NE,45,0.0,0.0,92,0.00,,---,0.00,VWS V14.01,2013-02-18 10:19:00,
2013-02-18 02:20:00,37.4,35.0,29.94,NE,45,0.0,0.0,91,0.00,,---,0.00,VWS V14.01,2013-02-18 10:20:00,
2013-02-18 02:21:00,38.5,36.4,29.97,NE,45,0.0,0.0,92,0.00,,---,0.00,VWS V14.01,2013-02-18 10:21:00,
2013-02-18 02:22:00,38.5,36.4,29.97,NE,45,0.0,0.0,92,0.00,,---,0.00,VWS V14.01,2013-02-18 10:22:00,
2013-02-18 02:23:00,38.5,36.4,29.97,NE,45,0.0,0.0,92,0.00,,---,0.00,VWS V14.01,2013-02-18 10:23:00,
2013-02-18 02:24:00,38.3,36.2,29.97,NE,45,0.0,0.0,92,0.00,,---,0.00,VWS V14.01,2013-02-18 10:24:00,
2013-02-18 02:25:00,38.3,36.2,29.97,NE,45,0.0,0.0,92,0.00,,---,0.00,VWS V14.01,2013-02-18 10:25:00,
2013-02-18 02:26:00,38.3,36.2,29.97,NE,45,0.0,0.0,92,0.00,,---,0.00,VWS V14.01,2013-02-18 10:26:00,
2013-02-18 02:27:00,38.3,36.2,29.97,NE,45,0.0,0.0,92,0.00,,---,0.00,VWS V14.01,2013-02-18 10:27:00,
2013-02-18 02:28:00,38.3,36.2,29.97,NE,45,0.0,0.0,92,0.00,,---,0.00,VWS V14.01,2013-02-18 10:28:00,
2013-02-18 02:29:00,38.1,35.7,29.97,NE,45,0.0,0.0,91,0.00,,---,0.00,VWS V14.01,2013-02-18 10:29:00,
2013-02-18 02:30:00,38.3,35.9,29.97,NE,45,0.0,0.0,91,0.00,,---,0.00,VWS V14.01,2013-02-18 10:30:00,
2013-02-18 02:31:00,38.1,35.7,29.97,NE,45,0.0,0.0,91,0.00,,---,0.00,VWS V14.01,2013-02-18 10:31:00,
2013-02-18 02:32:00,38.1,35.7,29.97,NE,45,0.0,0.0,91,0.00,,---,0.00,VWS V14.01,2013-02-18 10:32:00,
2013-02-18 02:33:00,38.1,35.7,29.97,NE,45,0.0,0.0,91,0.00,,---,0.00,VWS V14.01,2013-02-18 10:33:00,
2013-02-18 02:34:00,38.1,35.7,29.97,NE,45,0.0,0.0,91,0.00,,---,0.00,VWS V14.01,2013-02-18 10:34:00,
2013-02-18 02:35:00,38.1,35.7,29.97,NE,45,0.0,0.0,91,0.00,,---,0.00,VWS V14.01,2013-02-18 10:35:00,
2013-02-18 02:36:00,38.1,35.7,29.97,NE,45,0.0,0.0,91,0.00,,---,0.00,VWS V14.01,2013-02-18 10:36:00,
2013-02-18 02:37:00,37.2,35.1,29.97,NE,45,0.0,0.0,92,0.00,,---,0.00,VWS V14.01,2013-02-18 10:37:00,
2013-02-18 02:38:00,38.1,35.7,29.97,NE,45,0.0,0.0,91,0.00,,---,0.00,VWS V14.01,2013-02-18 10:38:00,
2013-02-18 02:39:00,37.9,35.5,29.97,NE,45,0.0,0.0,91,0.00,,---,0.00,VWS V14.01,2013-02-18 10:39:00,
2013-02-18 02:40:00,37.9,35.5,29.97,NE,45,0.0,0.0,91,0.00,,---,0.00,VWS V14.01,2013-02-18 10:40:00,
2013-02-18 02:41:00,37.9,35.5,29.97,NE,45,0.0,0.0,91,0.00,,---,0.00,VWS V14.01,2013-02-18 10:41:00,
2013-02-18 02:42:00,37.9,35.5,29.97,NE,45,0.0,0.0,91,0.00,,---,0.00,VWS V14.01,2013-02-18 10:42:00,
2013-02-18 02:43:00,37.9,35.5,29.97,NE,45,0.0,0.0,91,0.00,,---,0.00,VWS V14.01,2013-02-18 10:43:00,
2013-02-18 02:44:00,37.9,35.5,29.97,NE,45,0.9,1.3,91,0.00,,---,0.00,VWS V14.01,2013-02-18 10:44:00,
2013-02-18 02:45:00,37.9,35.5,29.97,NE,45,1.1,1.1,91,0.00,,---,0.00,VWS V14.01,2013-02-18 10:45:00,
2013-02-18 02:46:00,37.9,35.5,29.97,NE,45,1.3,1.3,91,0.00,,---,0.00,VWS V14.01,2013-02-18 10:46:00,
2013-02-18 02:47:00,37.9,35.5,29.97,NE,45,0.0,1.3,91,0.00,,---,0.00,VWS V14.01,2013-02-18 10:47:00,
2013-02-18 02:48:00,37.9,35.5,29.97,NE,45,0.0,0.0,91,0.00,,---,0.00,VWS V14.01,2013-02-18 10:48:00,
2013-02-18 02:49:00,37.9,35.5,29.97,NE,45,1.3,1.6,91,0.00,,---,0.00,VWS V14.01,2013-02-18 10:49:00,
2013-02-18 02:50:00,37.9,35.5,29.97,NE,45,1.3,1.3,91,0.00,,---,0.00,VWS V14.01,2013-02-18 10:50:00,
2013-02-18 02:51:00,37.9,35.5,29.97,NE,45,1.3,1.6,91,0.00,,---,0.00,VWS V14.01,2013-02-18 10:51:00,
2013-02-18 02:52:00,37.9,35.5,29.97,NE,45,1.6,1.6,91,0.00,,---,0.00,VWS V14.01,2013-02-18 10:52:00,
2013-02-18 02:53:00,37.9,35.5,29.97,NE,45,1.1,1.6,91,0.00,,---,0.00,VWS V14.01,2013-02-18 10:53:00,
2013-02-18 02:54:00,37.9,35.5,29.97,NE,45,1.1,1.3,91,0.00,,---,0.00,VWS V14.01,2013-02-18 10:54:00,
2013-02-18 02:55:00,37.0,34.7,29.97,NE,45,0.0,0.0,91,0.00,,---,0.00,VWS V14.01,2013-02-18 10:55:00,
2013-02-18 02:56:00,37.8,35.4,29.97,NE,45,1.1,1.1,91,0.00,,---,0.00,VWS V14.01,2013-02-18 10:56:00,
2013-02-18 02:57:00,37.8,35.4,29.97,NE,45,1.1,1.3,91,0.00,,---,0.00,VWS V14.01,2013-02-18 10:57:00,
2013-02-18 02:58:00,37.8,35.4,29.97,NE,45,1.1,1.1,91,0.00,,---,0.00,VWS V14.01,2013-02-18 10:58:00,
2013-02-18 02:59:00,37.8,35.4,29.97,NE,45,1.1,1.3,91,0.00,,---,0.00,VWS V14.01,2013-02-18 10:59:00,
2013-02-18 03:00:00,37.8,35.4,29.97,NE,45,1.3,1.3,91,0.00,,---,0.00,VWS V14.01,2013-02-18 11:00:00,
2013-02-18 03:01:00,37.8,35.4,29.97,NE,45,1.1,1.3,91,0.00,,---,0.00,VWS V14.01,2013-02-18 11:01:00,
2013-02-18 03:02:00,37.8,35.4,29.97,NE,45,0.9,1.1,91,0.00,,---,0.00,VWS V14.01,2013-02-18 11:02:00,
2013-02-18 03:03:00,37.6,35.2,29.97,NE,45,0.0,0.9,91,0.00,,---,0.00,VWS V14.01,2013-02-18 11:03:00,
2013-02-18 03:04:00,37.6,35.2,29.97,NE,45,0.0,0.0,91,0.00,,---,0.00,VWS V14.01,2013-02-18 11:04:00,
2013-02-18 03:05:00,37.6,35.2,29.97,NE,45,0.0,0.0,91,0.00,,---,0.00,VWS V14.01,2013-02-18 11:05:00,
2013-02-18 03:06:00,37.6,35.2,29.94,NE,45,0.0,0.0,91,0.00,,---,0.00,VWS V14.01,2013-02-18 11:06:00,
2013-02-18 03:07:00,37.4,35.3,29.94,NE,45,0.0,0.0,92,0.00,,---,0.00,VWS V14.01,2013-02-18 11:07:00,
2013-02-18 03:08:00,37.6,35.5,29.94,NE,45,0.0,0.0,92,0.00,,---,0.00,VWS V14.01,2013-02-18 11:08:00,
2013-02-18 03:09:00,37.6,35.5,29.94,NE,45,0.0,0.0,92,0.00,,---,0.00,VWS V14.01,2013-02-18 11:09:00,
2013-02-18 03:10:00,37.4,35.3,29.94,NE,45,0.0,0.0,92,0.00,,---,0.00,VWS V14.01,2013-02-18 11:10:00,
2013-02-18 03:11:00,37.4,35.3,29.94,NE,45,0.0,0.0,92,0.00,,---,0.00,VWS V14.01,2013-02-18 11:11:00,
2013-02-18 03:12:00,37.4,35.0,29.94,NE,45,0.0,0.0,91,0.00,,---,0.00,VWS V14.01,2013-02-18 11:12:00,
2013-02-18 03:13:00,37.4,35.0,29.94,NE,45,0.0,0.0,91,0.00,,---,0.00,VWS V14.01,2013-02-18 11:13:00,
2013-02-18 03:14:00,37.4,35.0,29.94,NE,45,0.0,0.0,91,0.00,,---,0.00,VWS V14.01,2013-02-18 11:14:00,
2013-02-18 03:15:00,37.4,35.0,29.94,NE,45,0.0,0.0,91,0.00,,---,0.00,VWS V14.01,2013-02-18 11:15:00,
2013-02-18 03:16:00,37.4,35.0,29.94,NE,45,0.0,0.0,91,0.00,,---,0.00,VWS V14.01,2013-02-18 11:16:00,
2013-02-18 03:17:00,37.4,35.0,29.94,NE,45,0.0,0.0,91,0.00,,---,0.00,VWS V14.01,2013-02-18 11:17:00,
2013-02-18 03:18:00,37.4,35.0,29.94,NE,45,0.0,0.0,91,0.00,,---,0.00,VWS V14.01,2013-02-18 11:18:00,
2013-02-18 03:19:00,37.4,35.0,29.94,NE,45,0.0,0.0,91,0.00,,---,0.00,VWS V14.01,2013-02-18 11:19:00,
2013-02-18 03:20:00,37.4,35.0,29.94,NE,45,0.0,0.0,91,0.00,,---,0.00,VWS V14.01,2013-02-18 11:20:00,
2013-02-18 03:21:00,37.4,35.0,29.94,NE,45,2.2,2.2,91,0.00,,---,0.00,VWS V14.01,2013-02-18 11:21:00,
2013-02-18 03:22:00,37.4,35.0,29.94,ENE,68,1.3,1.3,91,0.00,,---,0.00,VWS V14.01,2013-02-18 11:22:00,
2013-02-18 03:23:00,37.4,35.0,29.94,ENE,68,2.0,2.5,91,0.00,,---,0.00,VWS V14.01,2013-02-18 11:23:00,
2013-02-18 03:24:00,37.4,35.0,29.94,ENE,68,1.3,2.0,91,0.00,,---,0.00,VWS V14.01,2013-02-18 11:24:00,
2013-02-18 03:25:00,37.4,35.0,29.94,ENE,68,1.3,1.3,91,0.00,,---,0.00,VWS V14.01,2013-02-18 11:25:00,
2013-02-18 03:26:00,36.7,34.6,29.97,ENE,68,2.0,2.5,92,0.00,,---,0.00,VWS V14.01,2013-02-18 11:26:00,
2013-02-18 03:27:00,37.4,35.0,29.94,NE,45,0.0,0.0,91,0.00,,---,0.00,VWS V14.01,2013-02-18 11:27:00,
2013-02-18 03:28:00,37.4,35.0,29.94,NE,45,0.0,0.0,91,0.00,,---,0.00,VWS V14.01,2013-02-18 11:28:00,
2013-02-18 03:29:00,37.4,35.0,29.94,NE,45,0.0,0.0,91,0.00,,---,0.00,VWS V14.01,2013-02-18 11:29:00,
2013-02-18 03:30:00,37.4,35.3,29.94,NE,45,0.0,0.0,92,0.00,,---,0.00,VWS V14.01,2013-02-18 11:30:00,
2013-02-18 03:32:00,37.4,35.3,29.94,NE,45,0.0,0.0,92,0.00,,---,0.00,VWS V14.01,2013-02-18 11:32:00,
2013-02-18 03:33:00,37.4,35.3,29.94,NE,45,0.0,0.0,92,0.00,,---,0.00,VWS V14.01,2013-02-18 11:33:00,
2013-02-18 03:34:00,37.4,35.3,29.94,NE,45,0.0,0.0,92,0.00,,---,0.00,VWS V14.01,2013-02-18 11:34:00,
2013-02-18 03:35:00,37.2,35.1,29.94,NE,45,0.0,0.0,92,0.00,,---,0.00,VWS V14.01,2013-02-18 11:35:00,
2013-02-18 03:36:00,37.2,35.1,29.97,NE,45,0.0,0.0,92,0.00,,---,0.00,VWS V14.01,2013-02-18 11:36:00,
2013-02-18 03:37:00,37.2,35.1,29.97,NE,45,0.0,0.0,92,0.00,,---,0.00,VWS V14.01,2013-02-18 11:37:00,
2013-02-18 03:38:00,37.2,35.1,29.97,NE,45,0.0,0.0,92,0.00,,---,0.00,VWS V14.01,2013-02-18 11:38:00,
2013-02-18 03:39:00,37.2,35.1,29.97,NE,45,0.0,0.0,92,0.00,,---,0.00,VWS V14.01,2013-02-18 11:39:00,
2013-02-18 03:40:00,37.2,35.1,29.97,NE,45,0.0,0.0,92,0.00,,---,0.00,VWS V14.01,2013-02-18 11:40:00,
2013-02-18 03:41:00,37.2,35.1,29.97,NE,45,0.0,0.0,92,0.00,,---,0.00,VWS V14.01,2013-02-18 11:41:00,
2013-02-18 03:42:00,37.0,34.9,29.97,NE,45,0.0,0.0,92,0.00,,---,0.00,VWS V14.01,2013-02-18 11:42:00,
2013-02-18 03:43:00,37.0,34.9,29.97,NE,45,0.0,0.0,92,0.00,,---,0.00,VWS V14.01,2013-02-18 11:43:00,
2013-02-18 03:44:00,37.0,34.9,29.97,NE,45,0.0,0.0,92,0.00,,---,0.00,VWS V14.01,2013-02-18 11:44:00,
2013-02-18 03:45:00,37.0,34.9,29.97,NE,45,0.0,0.0,92,0.00,,---,0.00,VWS V14.01,2013-02-18 11:45:00,
2013-02-18 03:46:00,37.0,34.9,29.97,NE,45,0.0,0.0,92,0.00,,---,0.00,VWS V14.01,2013-02-18 11:46:00,
2013-02-18 03:47:00,37.0,34.9,29.97,NE,45,0.0,0.0,92,0.00,,---,0.00,VWS V14.01,2013-02-18 11:47:00,
2013-02-18 03:48:00,37.0,34.9,29.97,NE,45,0.0,0.0,92,0.00,,---,0.00,VWS V14.01,2013-02-18 11:48:00,
2013-02-18 03:49:00,37.0,34.9,29.97,NE,45,0.0,0.0,92,0.00,,---,0.00,VWS V14.01,2013-02-18 11:49:00,
2013-02-18 03:50:00,37.0,34.9,29.97,NE,45,0.0,0.0,92,0.00,,---,0.00,VWS V14.01,2013-02-18 11:50:00,
2013-02-18 03:51:00,37.0,34.9,29.97,NE,45,0.0,0.0,92,0.00,,---,0.00,VWS V14.01,2013-02-18 11:51:00,
2013-02-18 03:52:00,37.0,34.7,29.97,NE,45,0.0,0.0,91,0.00,,---,0.00,VWS V14.01,2013-02-18 11:52:00,
2013-02-18 03:53:00,37.0,34.9,29.97,NE,45,0.0,0.0,92,0.00,,---,0.00,VWS V14.01,2013-02-18 11:53:00,
2013-02-18 03:54:00,37.0,34.9,29.97,NE,45,0.0,0.0,92,0.00,,---,0.00,VWS V14.01,2013-02-18 11:54:00,
2013-02-18 03:55:00,37.0,34.7,29.97,NE,45,0.0,0.0,91,0.00,,---,0.00,VWS V14.01,2013-02-18 11:55:00,
2013-02-18 03:56:00,37.0,34.7,29.97,NE,45,0.0,0.0,91,0.00,,---,0.00,VWS V14.01,2013-02-18 11:56:00,
2013-02-18 03:57:00,37.0,34.9,29.97,NE,45,0.0,0.0,92,0.00,,---,0.00,VWS V14.01,2013-02-18 11:57:00,
2013-02-18 03:58:00,37.0,34.9,29.97,NE,45,0.0,0.0,92,0.00,,---,0.00,VWS V14.01,2013-02-18 11:58:00,
2013-02-18 03:59:00,37.0,34.9,29.97,NE,45,0.0,0.0,92,0.00,,---,0.00,VWS V14.01,2013-02-18 11:59:00,
2013-02-18 04:00:00,37.0,34.9,29.97,NE,45,0.0,0.0,92,0.00,,---,0.00,VWS V14.01,2013-02-18 12:00:00,
2013-02-18 04:01:00,36.9,34.8,29.97,NE,45,0.0,0.0,92,0.00,,---,0.00,VWS V14.01,2013-02-18 12:01:00,
2013-02-18 04:02:00,36.9,34.5,29.97,NE,45,0.0,0.0,91,0.00,,---,0.00,VWS V14.01,2013-02-18 12:02:00,
2013-02-18 04:03:00,36.9,34.5,29.97,NE,45,0.0,0.0,91,0.00,,---,0.00,VWS V14.01,2013-02-18 12:03:00,
2013-02-18 04:04:00,36.3,34.5,29.97,NE,45,0.0,0.0,93,0.00,,---,0.00,VWS V14.01,2013-02-18 12:04:00,
2013-02-18 04:05:00,36.9,34.5,29.97,NE,45,0.0,0.0,91,0.00,,---,0.00,VWS V14.01,2013-02-18 12:05:00,
2013-02-18 04:06:00,36.9,34.5,29.97,NE,45,0.9,1.3,91,0.00,,---,0.00,VWS V14.01,2013-02-18 12:06:00,
2013-02-18 04:07:00,36.9,34.8,29.97,NE,45,0.0,0.0,92,0.00,,---,0.00,VWS V14.01,2013-02-18 12:07:00,
2013-02-18 04:08:00,36.9,34.8,29.97,NE,45,0.0,0.0,92,0.00,,---,0.00,VWS V14.01,2013-02-18 12:08:00,
2013-02-18 04:09:00,36.9,34.8,29.97,NE,45,0.0,0.0,92,0.00,,---,0.00,VWS V14.01,2013-02-18 12:09:00,
2013-02-18 04:10:00,36.9,34.8,29.97,NE,45,0.0,0.0,92,0.00,,---,0.00,VWS V14.01,2013-02-18 12:10:00,
2013-02-18 04:11:00,36.9,34.8,29.97,NE,45,0.0,0.0,92,0.00,,---,0.00,VWS V14.01,2013-02-18 12:11:00,
2013-02-18 04:12:00,36.9,34.8,29.97,NE,45,0.0,0.0,92,0.00,,---,0.00,VWS V14.01,2013-02-18 12:12:00,
2013-02-18 04:13:00,36.9,34.8,29.97,NE,45,0.0,0.0,92,0.00,,---,0.00,VWS V14.01,2013-02-18 12:13:00,
2013-02-18 04:14:00,36.9,34.8,29.97,NE,45,0.0,0.0,92,0.00,,---,0.00,VWS V14.01,2013-02-18 12:14:00,
2013-02-18 04:15:00,36.9,34.8,29.97,NE,45,0.0,0.0,92,0.00,,---,0.00,VWS V14.01,2013-02-18 12:15:00,
2013-02-18 04:16:00,36.9,34.8,29.97,NE,45,0.0,0.0,92,0.00,,---,0.00,VWS V14.01,2013-02-18 12:16:00,
2013-02-18 04:17:00,36.7,34.6,29.97,NE,45,0.0,0.0,92,0.00,,---,0.00,VWS V14.01,2013-02-18 12:17:00,
2013-02-18 04:18:00,36.7,34.6,29.97,NE,45,0.0,0.0,92,0.00,,---,0.00,VWS V14.01,2013-02-18 12:18:00,
2013-02-18 04:19:00,36.7,34.6,29.97,NE,45,0.0,0.0,92,0.00,,---,0.00,VWS V14.01,2013-02-18 12:19:00,
2013-02-18 04:20:00,36.7,34.6,29.97,NE,45,0.0,0.0,92,0.00,,---,0.00,VWS V14.01,2013-02-18 12:20:00,
2013-02-18 04:21:00,36.7,34.6,29.97,NE,45,0.0,0.0,92,0.00,,---,0.00,VWS V14.01,2013-02-18 12:21:00,
2013-02-18 04:22:00,36.7,34.6,29.97,NE,45,1.6,1.6,92,0.00,,---,0.00,VWS V14.01,2013-02-18 12:22:00,
2013-02-18 04:23:00,36.7,34.6,29.97,NE,45,0.0,0.0,92,0.00,,---,0.00,VWS V14.01,2013-02-18 12:23:00,
2013-02-18 04:24:00,36.7,34.6,29.97,NE,45,1.3,1.3,92,0.00,,---,0.00,VWS V14.01,2013-02-18 12:24:00,
2013-02-18 04:25:00,36.7,34.6,29.97,NE,45,2.0,2.2,92,0.00,,---,0.00,VWS V14.01,2013-02-18 12:25:00,
2013-02-18 04:26:00,36.7,34.6,29.97,NE,45,2.0,2.0,92,0.00,,---,0.00,VWS V14.01,2013-02-18 12:26:00,
2013-02-18 04:27:00,36.7,34.6,29.97,ENE,68,2.0,2.2,92,0.00,,---,0.00,VWS V14.01,2013-02-18 12:27:00,
2013-02-18 04:28:00,36.7,34.6,29.97,ENE,68,2.0,2.2,92,0.00,,---,0.00,VWS V14.01,2013-02-18 12:28:00,
2013-02-18 04:29:00,36.7,34.6,29.97,NE,45,2.0,2.2,92,0.00,,---,0.00,VWS V14.01,2013-02-18 12:29:00,
2013-02-18 04:30:00,36.7,34.6,29.97,NE,45,2.2,2.2,92,0.00,,---,0.00,VWS V14.01,2013-02-18 12:30:00,
2013-02-18 04:31:00,36.7,34.6,29.97,NE,45,0.0,0.0,92,0.00,,---,0.00,VWS V14.01,2013-02-18 12:31:00,
2013-02-18 04:32:00,36.7,34.6,29.97,NE,45,1.3,2.2,92,0.00,,---,0.00,VWS V14.01,2013-02-18 12:32:00,
2013-02-18 04:33:00,36.7,34.6,29.97,NE,45,0.0,1.3,92,0.00,,---,0.00,VWS V14.01,2013-02-18 12:33:00,
2013-02-18 04:34:00,36.7,34.6,29.97,NE,45,0.0,0.0,92,0.00,,---,0.00,VWS V14.01,2013-02-18 12:34:00,
2013-02-18 04:35:00,36.7,34.6,29.97,NE,45,0.0,0.0,92,0.00,,---,0.00,VWS V14.01,2013-02-18 12:35:00,
2013-02-18 04:36:00,36.7,34.8,29.97,ENE,68,0.0,0.0,93,0.00,,---,0.00,VWS V14.01,2013-02-18 12:36:00,
2013-02-18 04:37:00,36.7,34.8,29.97,ENE,68,0.0,0.0,93,0.00,,---,0.00,VWS V14.01,2013-02-18 12:37:00,
2013-02-18 04:38:00,36.7,34.8,29.97,ENE,68,0.0,0.0,93,0.00,,---,0.00,VWS V14.01,2013-02-18 12:38:00,
2013-02-18 04:39:00,36.7,34.8,29.97,ENE,68,0.0,0.0,93,0.00,,---,0.00,VWS V14.01,2013-02-18 12:39:00,
2013-02-18 04:40:00,36.7,34.8,29.97,ENE,68,0.0,0.0,93,0.00,,---,0.00,VWS V14.01,2013-02-18 12:40:00,
2013-02-18 04:41:00,36.3,34.5,29.97,ENE,68,1.1,1.1,93,0.00,,---,0.00,VWS V14.01,2013-02-18 12:41:00,
2013-02-18 04:42:00,36.5,34.7,29.97,ENE,68,0.0,0.0,93,0.00,,---,0.00,VWS V14.01,2013-02-18 12:42:00,
2013-02-18 04:43:00,36.5,34.7,29.97,ENE,68,0.0,0.0,93,0.00,,---,0.00,VWS V14.01,2013-02-18 12:43:00,
2013-02-18 04:44:00,36.3,34.5,29.97,ENE,68,1.1,1.1,93,0.00,,---,0.00,VWS V14.01,2013-02-18 12:44:00,
2013-02-18 04:45:00,36.3,34.2,29.97,ENE,68,1.1,1.1,92,0.00,,---,0.00,VWS V14.01,2013-02-18 12:45:00,
2013-02-18 04:46:00,36.3,34.2,29.97,ENE,68,1.1,1.1,92,0.00,,---,0.00,VWS V14.01,2013-02-18 12:46:00,
2013-02-18 04:47:00,36.3,34.2,29.97,ENE,68,0.0,0.0,92,0.00,,---,0.00,VWS V14.01,2013-02-18 12:47:00,
2013-02-18 04:48:00,36.3,34.2,29.97,ENE,68,0.0,1.1,92,0.00,,---,0.00,VWS V14.01,2013-02-18 12:48:00,
2013-02-18 04:49:00,36.3,34.2,29.97,ENE,68,0.0,0.0,92,0.00,,---,0.00,VWS V14.01,2013-02-18 12:49:00,
2013-02-18 04:50:00,36.3,34.2,29.97,ENE,68,0.0,0.0,92,0.00,,---,0.00,VWS V14.01,2013-02-18 12:50:00,
2013-02-18 04:51:00,36.3,34.2,29.97,ENE,68,0.0,0.0,92,0.00,,---,0.00,VWS V14.01,2013-02-18 12:51:00,
2013-02-18 04:52:00,36.3,34.2,29.97,ENE,68,0.0,0.0,92,0.00,,---,0.00,VWS V14.01,2013-02-18 12:52:00,
2013-02-18 04:53:00,36.3,34.2,29.97,ENE,68,0.0,0.0,92,0.00,,---,0.00,VWS V14.01,2013-02-18 12:53:00,
2013-02-18 04:54:00,36.3,34.2,29.97,ENE,68,0.0,0.0,92,0.00,,---,0.00,VWS V14.01,2013-02-18 12:54:00,
2013-02-18 04:55:00,36.3,34.2,29.97,ENE,68,0.0,0.0,92,0.00,,---,0.00,VWS V14.01,2013-02-18 12:55:00,
2013-02-18 04:56:00,36.3,34.2,29.97,ENE,68,0.0,0.0,92,0.00,,---,0.00,VWS V14.01,2013-02-18 12:56:00,
2013-02-18 04:57:00,36.3,34.2,29.97,ENE,68,0.0,0.0,92,0.00,,---,0.00,VWS V14.01,2013-02-18 12:57:00,
2013-02-18 04:58:00,36.3,34.2,29.97,ENE,68,0.0,0.0,92,0.00,,---,0.00,VWS V14.01,2013-02-18 12:58:00,
2013-02-18 04:59:00,36.3,34.2,29.97,ENE,68,0.0,0.0,92,0.00,,---,0.00,VWS V14.01,2013-02-18 12:59:00,
2013-02-18 05:00:00,37.9,36.4,29.97,NE,45,0.0,0.0,94,0.00,,---,0.00,VWS V14.01,2013-02-18 13:00:00,
2013-02-18 05:01:00,36.3,34.2,29.97,ENE,68,0.0,0.0,92,0.00,,---,0.00,VWS V14.01,2013-02-18 13:01:00,
2013-02-18 05:02:00,36.3,34.5,29.97,NE,45,0.0,0.0,93,0.00,,---,0.00,VWS V14.01,2013-02-18 13:02:00,
2013-02-18 05:03:00,36.3,34.5,29.97,NE,45,0.0,0.9,93,0.00,,---,0.00,VWS V14.01,2013-02-18 13:03:00,
2013-02-18 05:04:00,36.3,34.5,29.97,NE,45,0.0,0.0,93,0.00,,---,0.00,VWS V14.01,2013-02-18 13:04:00,
2013-02-18 05:05:00,36.3,34.5,29.97,NE,45,0.0,0.0,93,0.00,,---,0.00,VWS V14.01,2013-02-18 13:05:00,
2013-02-18 05:06:00,36.3,34.5,29.94,NE,45,0.0,0.0,93,0.00,,---,0.00,VWS V14.01,2013-02-18 13:06:00,
2013-02-18 05:07:00,36.1,34.3,29.94,NE,45,0.0,0.0,93,0.00,,---,0.00,VWS V14.01,2013-02-18 13:07:00,
2013-02-18 05:08:00,36.3,34.5,29.94,NE,45,0.0,0.0,93,0.00,,---,0.00,VWS V14.01,2013-02-18 13:08:00,
2013-02-18 05:09:00,36.3,34.5,29.94,NE,45,0.0,0.0,93,0.00,,---,0.00,VWS V14.01,2013-02-18 13:09:00,
2013-02-18 05:10:00,36.1,34.3,29.94,NE,45,0.0,0.0,93,0.00,,---,0.00,VWS V14.01,2013-02-18 13:10:00,
2013-02-18 05:11:00,36.1,34.3,29.94,NE,45,0.0,0.0,93,0.00,,---,0.00,VWS V14.01,2013-02-18 13:11:00,
2013-02-18 05:12:00,36.1,34.3,29.94,NE,45,0.0,0.0,93,0.00,,---,0.00,VWS V14.01,2013-02-18 13:12:00,
2013-02-18 05:13:00,36.1,34.3,29.94,NE,45,0.0,0.0,93,0.00,,---,0.00,VWS V14.01,2013-02-18 13:13:00,
2013-02-18 05:14:00,36.1,34.3,29.94,NE,45,0.0,0.0,93,0.00,,---,0.00,VWS V14.01,2013-02-18 13:14:00,
2013-02-18 05:15:00,36.3,34.5,29.94,NE,45,0.0,0.0,93,0.00,,---,0.00,VWS V14.01,2013-02-18 13:15:00,
2013-02-18 05:16:00,36.3,34.5,29.94,NE,45,0.0,0.0,93,0.00,,---,0.00,VWS V14.01,2013-02-18 13:16:00,
2013-02-18 05:17:00,36.5,34.7,29.94,NE,45,0.0,0.0,93,0.00,,---,0.00,VWS V14.01,2013-02-18 13:17:00,
2013-02-18 05:18:00,36.3,34.5,29.94,NE,45,0.0,0.0,93,0.00,,---,0.00,VWS V14.01,2013-02-18 13:18:00,
2013-02-18 05:19:00,36.5,34.7,29.94,NE,45,0.0,0.0,93,0.00,,---,0.00,VWS V14.01,2013-02-18 13:19:00,
2013-02-18 05:20:00,36.7,34.8,29.94,NE,45,1.1,1.1,93,0.00,,---,0.00,VWS V14.01,2013-02-18 13:20:00,
2013-02-18 05:21:00,36.7,34.8,29.94,NE,45,1.1,1.1,93,0.00,,---,0.00,VWS V14.01,2013-02-18 13:21:00,
2013-02-18 05:22:00,36.7,35.1,29.94,NE,45,0.0,0.0,94,0.00,,---,0.00,VWS V14.01,2013-02-18 13:22:00,
2013-02-18 05:23:00,36.7,35.1,29.94,NE,45,0.0,0.9,94,0.00,,---,0.00,VWS V14.01,2013-02-18 13:23:00,
2013-02-18 05:24:00,36.7,35.1,29.94,NE,45,0.0,0.0,94,0.00,,---,0.00,VWS V14.01,2013-02-18 13:24:00,
2013-02-18 05:25:00,36.7,35.1,29.94,NE,45,0.0,0.0,94,0.00,,---,0.00,VWS V14.01,2013-02-18 13:25:00,
2013-02-18 05:26:00,36.7,35.1,29.94,NE,45,0.0,0.0,94,0.00,,---,0.00,VWS V14.01,2013-02-18 13:26:00,
2013-02-18 05:27:00,36.9,35.3,29.94,NE,45,0.0,0.0,94,0.00,,---,0.00,VWS V14.01,2013-02-18 13:27:00,
2013-02-18 05:28:00,36.9,35.3,29.94,NE,45,0.0,0.0,94,0.00,,---,0.00,VWS V14.01,2013-02-18 13:28:00,
2013-02-18 05:29:00,36.9,35.3,29.94,NE,45,0.0,0.0,94,0.00,,---,0.00,VWS V14.01,2013-02-18 13:29:00,
2013-02-18 05:30:00,36.9,35.3,29.94,NE,45,0.0,0.0,94,0.00,,---,0.00,VWS V14.01,2013-02-18 13:30:00,
2013-02-18 05:31:00,37.0,35.5,29.94,NE,45,0.0,0.0,94,0.00,,---,0.00,VWS V14.01,2013-02-18 13:31:00,
2013-02-18 05:32:00,37.0,35.5,29.94,NE,45,0.0,0.0,94,0.00,,---,0.00,VWS V14.01,2013-02-18 13:32:00,
2013-02-18 05:33:00,37.0,35.5,29.94,NE,45,0.0,0.0,94,0.00,,---,0.00,VWS V14.01,2013-02-18 13:33:00,
2013-02-18 05:34:00,37.0,35.5,29.94,NE,45,0.0,0.0,94,0.00,,---,0.00,VWS V14.01,2013-02-18 13:34:00,
2013-02-18 05:35:00,38.8,37.0,29.94,NE,45,0.0,0.0,93,0.00,,---,0.00,VWS V14.01,2013-02-18 13:35:00,
2013-02-18 05:36:00,37.0,35.5,29.94,NE,45,0.0,0.0,94,0.00,,---,0.00,VWS V14.01,2013-02-18 13:36:00,
2013-02-18 05:37:00,37.4,35.8,29.97,NE,45,0.0,0.0,94,0.00,,---,0.00,VWS V14.01,2013-02-18 13:37:00,
2013-02-18 05:38:00,37.2,35.9,29.97,NE,45,0.0,0.0,95,0.00,,---,0.00,VWS V14.01,2013-02-18 13:38:00,
2013-02-18 05:39:00,37.2,35.9,29.97,NE,45,0.0,0.0,95,0.00,,---,0.00,VWS V14.01,2013-02-18 13:39:00,
2013-02-18 05:40:00,37.4,35.8,29.97,NE,45,0.0,0.0,94,0.00,,---,0.00,VWS V14.01,2013-02-18 13:40:00,
2013-02-18 05:41:00,37.4,35.8,29.97,NE,45,0.0,0.0,94,0.00,,---,0.00,VWS V14.01,2013-02-18 13:41:00,
2013-02-18 05:42:00,37.6,36.0,29.97,NE,45,0.0,0.0,94,0.00,,---,0.00,VWS V14.01,2013-02-18 13:42:00,
2013-02-18 05:43:00,37.4,35.8,29.97,NE,45,0.0,0.0,94,0.00,,---,0.00,VWS V14.01,2013-02-18 13:43:00,
2013-02-18 05:44:00,37.6,36.0,29.97,NE,45,0.0,0.0,94,0.00,,---,0.00,VWS V14.01,2013-02-18 13:44:00,
2013-02-18 05:45:00,37.6,36.0,29.97,NE,45,0.0,0.0,94,0.00,,---,0.00,VWS V14.01,2013-02-18 13:45:00,
2013-02-18 05:46:00,37.6,36.0,29.97,NE,45,0.0,0.0,94,0.00,,---,0.00,VWS V14.01,2013-02-18 13:46:00,
2013-02-18 05:47:00,37.6,36.0,29.97,NE,45,0.0,0.0,94,0.00,,---,0.00,VWS V14.01,2013-02-18 13:47:00,
2013-02-18 05:48:00,39.0,37.2,29.97,NE,45,0.0,0.0,93,0.00,,---,0.00,VWS V14.01,2013-02-18 13:48:00,
2013-02-18 05:49:00,37.6,36.0,29.97,NE,45,0.0,0.0,94,0.00,,---,0.00,VWS V14.01,2013-02-18 13:49:00,
2013-02-18 05:50:00,37.6,36.0,29.97,NE,45,0.0,0.0,94,0.00,,---,0.00,VWS V14.01,2013-02-18 13:50:00,
2013-02-18 05:51:00,39.0,37.2,29.97,NE,45,0.0,0.0,93,0.00,,---,0.00,VWS V14.01,2013-02-18 13:51:00,
2013-02-18 05:52:00,37.8,36.2,29.97,NE,45,0.0,0.0,94,0.00,,---,0.00,VWS V14.01,2013-02-18 13:52:00,
2013-02-18 05:53:00,37.8,36.2,29.97,NE,45,0.0,0.0,94,0.00,,---,0.00,VWS V14.01,2013-02-18 13:53:00,
2013-02-18 05:54:00,37.8,36.2,29.97,NE,45,0.0,0.0,94,0.00,,---,0.00,VWS V14.01,2013-02-18 13:54:00,
2013-02-18 05:55:00,37.8,36.2,29.97,NE,45,0.0,0.0,94,0.00,,---,0.00,VWS V14.01,2013-02-18 13:55:00,
2013-02-18 05:56:00,37.8,36.2,29.97,NE,45,0.0,0.0,94,0.00,,---,0.00,VWS V14.01,2013-02-18 13:56:00,
2013-02-18 05:57:00,37.9,36.4,29.97,NE,45,0.0,0.0,94,0.00,,---,0.00,VWS V14.01,2013-02-18 13:57:00,
2013-02-18 05:58:00,37.9,36.4,29.97,NE,45,0.0,0.0,94,0.00,,---,0.00,VWS V14.01,2013-02-18 13:58:00,
2013-02-18 05:59:00,37.9,36.4,29.97,NE,45,0.0,0.0,94,0.00,,---,0.00,VWS V14.01,2013-02-18 13:59:00,
2013-02-18 06:00:00,37.9,36.4,29.97,NE,45,0.0,0.0,94,0.00,,---,0.00,VWS V14.01,2013-02-18 14:00:00,
2013-02-18 06:01:00,37.9,36.4,29.97,NE,45,0.0,0.0,94,0.00,,---,0.00,VWS V14.01,2013-02-18 14:01:00,
2013-02-18 06:02:00,38.1,36.5,29.97,NE,45,0.0,0.0,94,0.00,,---,0.00,VWS V14.01,2013-02-18 14:02:00,
2013-02-18 06:03:00,38.1,36.5,29.97,NE,45,0.0,0.0,94,0.00,,---,0.00,VWS V14.01,2013-02-18 14:03:00,
2013-02-18 06:04:00,38.1,36.5,29.97,NE,45,0.0,0.0,94,0.00,,---,0.00,VWS V14.01,2013-02-18 14:04:00,
2013-02-18 06:05:00,38.1,36.5,29.97,NE,45,0.0,0.0,94,0.00,,---,0.00,VWS V14.01,2013-02-18 14:05:00,
2013-02-18 06:06:00,38.1,36.5,29.97,NE,45,0.0,0.0,94,0.00,,---,0.00,VWS V14.01,2013-02-18 14:06:00,
2013-02-18 06:07:00,38.1,36.5,29.97,NE,45,0.0,0.0,94,0.00,,---,0.00,VWS V14.01,2013-02-18 14:07:00,
2013-02-18 06:08:00,38.1,36.5,29.97,NE,45,0.0,0.0,94,0.00,,---,0.00,VWS V14.01,2013-02-18 14:08:00,
2013-02-18 06:09:00,38.1,36.5,29.97,NE,45,0.0,0.0,94,0.00,,---,0.00,VWS V14.01,2013-02-18 14:09:00,
2013-02-18 06:10:00,38.1,36.5,29.97,NE,45,0.0,0.0,94,0.00,,---,0.00,VWS V14.01,2013-02-18 14:10:00,
2013-02-18 06:11:00,38.1,36.5,29.97,NE,45,0.0,0.0,94,0.00,,---,0.00,VWS V14.01,2013-02-18 14:11:00,
2013-02-18 06:12:00,38.3,36.7,29.97,NE,45,0.0,0.0,94,0.00,,---,0.00,VWS V14.01,2013-02-18 14:12:00,
2013-02-18 06:13:00,38.3,36.7,29.97,NE,45,0.0,0.0,94,0.00,,---,0.00,VWS V14.01,2013-02-18 14:13:00,
2013-02-18 06:14:00,38.3,36.7,29.97,NE,45,0.0,0.0,94,0.00,,---,0.00,VWS V14.01,2013-02-18 14:14:00,
2013-02-18 06:15:00,38.5,36.9,29.97,NE,45,0.0,0.0,94,0.00,,---,0.00,VWS V14.01,2013-02-18 14:15:00,
2013-02-18 06:16:00,38.5,36.9,29.97,NE,45,0.0,0.0,94,0.00,,---,0.00,VWS V14.01,2013-02-18 14:16:00,
2013-02-18 06:17:00,38.5,36.9,29.97,NE,45,0.0,0.0,94,0.00,,---,0.00,VWS V14.01,2013-02-18 14:17:00,
2013-02-18 06:18:00,38.5,36.9,29.97,NE,45,0.0,0.0,94,0.00,,---,0.00,VWS V14.01,2013-02-18 14:18:00,
2013-02-18 06:19:00,38.5,36.9,29.97,NE,45,0.0,0.0,94,0.00,,---,0.00,VWS V14.01,2013-02-18 14:19:00,
2013-02-18 06:20:00,38.5,36.9,29.97,NE,45,0.0,0.0,94,0.00,,---,0.00,VWS V14.01,2013-02-18 14:20:00,
2013-02-18 06:21:00,38.5,36.6,29.94,NE,45,0.0,0.0,93,0.00,,---,0.00,VWS V14.01,2013-02-18 14:21:00,
2013-02-18 06:22:00,38.7,36.8,29.94,NE,45,0.0,0.0,93,0.00,,---,0.00,VWS V14.01,2013-02-18 14:22:00,
2013-02-18 06:23:00,38.7,36.8,29.94,NE,45,0.0,0.0,93,0.00,,---,0.00,VWS V14.01,2013-02-18 14:23:00,
2013-02-18 06:24:00,38.7,36.8,29.94,NE,45,0.0,0.0,93,0.00,,---,0.00,VWS V14.01,2013-02-18 14:24:00,
2013-02-18 06:25:00,38.7,36.8,29.94,NE,45,0.0,0.0,93,0.00,,---,0.00,VWS V14.01,2013-02-18 14:25:00,
2013-02-18 06:26:00,38.7,36.8,29.94,NE,45,0.0,0.0,93,0.00,,---,0.00,VWS V14.01,2013-02-18 14:26:00,
2013-02-18 06:27:00,38.7,36.8,29.94,NE,45,0.0,0.0,93,0.00,,---,0.00,VWS V14.01,2013-02-18 14:27:00,
2013-02-18 06:28:00,38.7,36.8,29.94,NE,45,0.0,0.0,93,0.00,,---,0.00,VWS V14.01,2013-02-18 14:28:00,
2013-02-18 06:29:00,38.7,36.8,29.94,NE,45,0.0,0.0,93,0.00,,---,0.00,VWS V14.01,2013-02-18 14:29:00,
2013-02-18 06:30:00,38.7,36.8,29.94,NE,45,0.0,0.0,93,0.00,,---,0.00,VWS V14.01,2013-02-18 14:30:00,
2013-02-18 06:31:00,38.8,37.0,29.94,NE,45,0.0,0.0,93,0.00,,---,0.00,VWS V14.01,2013-02-18 14:31:00,
2013-02-18 06:32:00,38.8,37.0,29.94,NE,45,0.0,0.0,93,0.00,,---,0.00,VWS V14.01,2013-02-18 14:32:00,
2013-02-18 06:33:00,38.8,37.0,29.94,NE,45,0.0,0.0,93,0.00,,---,0.00,VWS V14.01,2013-02-18 14:33:00,
2013-02-18 06:34:00,38.8,37.0,29.94,NE,45,0.0,0.0,93,0.00,,---,0.00,VWS V14.01,2013-02-18 14:34:00,
2013-02-18 06:35:00,38.8,37.0,29.94,NE,45,0.0,0.0,93,0.00,,---,0.00,VWS V14.01,2013-02-18 14:35:00,
2013-02-18 06:36:00,39.0,37.2,29.97,NE,45,0.0,0.0,93,0.00,,---,0.00,VWS V14.01,2013-02-18 14:36:00,
2013-02-18 06:37:00,39.0,37.2,29.97,NE,45,0.0,0.0,93,0.00,,---,0.00,VWS V14.01,2013-02-18 14:37:00,
2013-02-18 06:38:00,39.0,37.2,29.97,NE,45,0.0,0.0,93,0.00,,---,0.00,VWS V14.01,2013-02-18 14:38:00,
2013-02-18 06:39:00,39.0,37.2,29.97,NE,45,0.0,0.0,93,0.00,,---,0.00,VWS V14.01,2013-02-18 14:39:00,
2013-02-18 06:40:00,39.0,37.2,29.97,NE,45,0.0,0.0,93,0.00,,---,0.00,VWS V14.01,2013-02-18 14:40:00,
2013-02-18 06:41:00,39.0,37.2,29.97,NE,45,0.0,0.0,93,0.00,,---,0.00,VWS V14.01,2013-02-18 14:41:00,
2013-02-18 06:42:00,39.0,37.2,29.97,NE,45,0.0,0.0,93,0.00,,---,0.00,VWS V14.01,2013-02-18 14:42:00,
2013-02-18 06:43:00,39.0,37.2,29.97,NE,45,0.0,0.0,93,0.00,,---,0.00,VWS V14.01,2013-02-18 14:43:00,
2013-02-18 06:44:00,39.0,37.2,29.97,NE,45,0.0,0.0,93,0.00,,---,0.00,VWS V14.01,2013-02-18 14:44:00,
2013-02-18 06:45:00,39.0,37.2,29.97,NE,45,0.0,0.0,93,0.00,,---,0.00,VWS V14.01,2013-02-18 14:45:00,
2013-02-18 06:46:00,39.0,37.2,29.97,NE,45,0.0,0.0,93,0.00,,---,0.00,VWS V14.01,2013-02-18 14:46:00,
2013-02-18 06:47:00,39.0,37.2,29.97,NE,45,0.0,0.0,93,0.00,,---,0.00,VWS V14.01,2013-02-18 14:47:00,
2013-02-18 06:48:00,39.0,37.2,29.97,NE,45,0.0,0.0,93,0.00,,---,0.00,VWS V14.01,2013-02-18 14:48:00,
2013-02-18 06:49:00,39.0,37.2,29.97,NE,45,0.0,0.0,93,0.00,,---,0.00,VWS V14.01,2013-02-18 14:49:00,
2013-02-18 06:50:00,39.0,37.2,29.97,NE,45,0.0,0.0,93,0.00,,---,0.00,VWS V14.01,2013-02-18 14:50:00,
2013-02-18 06:51:00,39.0,37.2,29.97,NE,45,0.0,0.0,93,0.00,,---,0.00,VWS V14.01,2013-02-18 14:51:00,
2013-02-18 06:52:00,39.4,37.2,29.97,NE,45,0.0,0.0,92,0.00,,---,0.00,VWS V14.01,2013-02-18 14:52:00,
2013-02-18 06:53:00,39.2,37.1,29.97,NE,45,0.0,0.0,92,0.00,,---,0.00,VWS V14.01,2013-02-18 14:53:00,
2013-02-18 06:54:00,39.4,37.2,29.97,NE,45,0.0,0.0,92,0.00,,---,0.00,VWS V14.01,2013-02-18 14:54:00,
2013-02-18 06:55:00,39.4,37.2,29.97,NE,45,0.0,0.0,92,0.00,,---,0.00,VWS V14.01,2013-02-18 14:55:00,
2013-02-18 06:56:00,39.4,37.2,29.97,NE,45,0.0,0.0,92,0.00,,---,0.00,VWS V14.01,2013-02-18 14:56:00,
2013-02-18 06:57:00,39.4,37.2,29.97,NE,45,0.0,0.0,92,0.00,,---,0.00,VWS V14.01,2013-02-18 14:57:00,
2013-02-18 06:58:00,39.4,37.2,29.97,NE,45,0.0,0.0,92,0.00,,---,0.00,VWS V14.01,2013-02-18 14:58:00,
2013-02-18 06:59:00,39.4,37.2,29.97,NE,45,0.0,0.0,92,0.00,,---,0.00,VWS V14.01,2013-02-18 14:59:00,
2013-02-18 07:00:00,40.8,39.0,29.97,ESE,112,0.0,1.1,93,0.00,,---,0.00,VWS V14.01,2013-02-18 15:00:00,
2013-02-18 07:01:00,39.4,37.2,29.97,NE,45,0.0,0.0,92,0.00,,---,0.00,VWS V14.01,2013-02-18 15:01:00,
2013-02-18 07:02:00,39.4,37.2,29.97,NE,45,0.0,0.0,92,0.00,,---,0.00,VWS V14.01,2013-02-18 15:02:00,
2013-02-18 07:03:00,40.6,38.8,29.97,SE,135,1.3,2.0,93,0.00,,---,0.00,VWS V14.01,2013-02-18 15:03:00,
2013-02-18 07:04:00,39.4,37.2,29.97,NE,45,0.0,0.0,92,0.00,,---,0.00,VWS V14.01,2013-02-18 15:04:00,
2013-02-18 07:05:00,39.6,37.4,29.97,NE,45,0.0,0.0,92,0.00,,---,0.00,VWS V14.01,2013-02-18 15:05:00,
2013-02-18 07:06:00,39.6,37.4,29.97,NE,45,0.0,0.0,92,0.00,,---,0.00,VWS V14.01,2013-02-18 15:06:00,
2013-02-18 07:07:00,39.6,37.4,29.97,NE,45,0.0,0.0,92,0.00,,---,0.00,VWS V14.01,2013-02-18 15:07:00,
2013-02-18 07:08:00,39.6,37.4,29.97,NE,45,0.0,0.0,92,0.00,,---,0.00,VWS V14.01,2013-02-18 15:08:00,
2013-02-18 07:09:00,39.6,37.4,29.97,NE,45,0.0,0.0,92,0.00,,---,0.00,VWS V14.01,2013-02-18 15:09:00,
2013-02-18 07:10:00,39.6,37.4,29.97,NE,45,0.0,0.0,92,0.00,,---,0.00,VWS V14.01,2013-02-18 15:10:00,
2013-02-18 07:11:00,39.6,37.4,29.97,NE,45,0.0,0.0,92,0.00,,---,0.00,VWS V14.01,2013-02-18 15:11:00,
2013-02-18 07:12:00,39.9,37.8,29.97,NE,45,0.0,0.0,92,0.00,,---,0.00,VWS V14.01,2013-02-18 15:12:00,
2013-02-18 07:13:00,39.9,37.8,29.97,NE,45,0.0,0.0,92,0.00,,---,0.00,VWS V14.01,2013-02-18 15:13:00,
2013-02-18 07:14:00,39.9,37.8,29.97,NE,45,0.0,0.0,92,0.00,,---,0.00,VWS V14.01,2013-02-18 15:14:00,
2013-02-18 07:15:00,39.9,38.1,29.97,NE,45,0.0,0.0,93,0.00,,---,0.00,VWS V14.01,2013-02-18 15:15:00,
2013-02-18 07:16:00,39.9,38.1,29.97,NE,45,0.0,0.0,93,0.00,,---,0.00,VWS V14.01,2013-02-18 15:16:00,
2013-02-18 07:17:00,39.9,37.8,29.97,NE,45,0.0,0.0,92,0.00,,---,0.00,VWS V14.01,2013-02-18 15:17:00,
2013-02-18 07:18:00,39.9,38.1,29.97,NE,45,0.0,0.0,93,0.00,,---,0.00,VWS V14.01,2013-02-18 15:18:00,
2013-02-18 07:19:00,39.9,37.8,29.97,NE,45,0.0,0.0,92,0.00,,---,0.00,VWS V14.01,2013-02-18 15:19:00,
2013-02-18 07:20:00,39.9,37.8,29.97,NE,45,0.0,0.0,92,0.00,,---,0.00,VWS V14.01,2013-02-18 15:20:00,
2013-02-18 07:21:00,39.9,37.8,29.97,NE,45,0.0,0.0,92,0.00,,---,0.00,VWS V14.01,2013-02-18 15:21:00,
2013-02-18 07:22:00,40.1,38.0,29.97,NE,45,0.0,0.0,92,0.00,,---,0.00,VWS V14.01,2013-02-18 15:22:00,
2013-02-18 07:23:00,40.1,38.0,29.97,NE,45,0.0,0.0,92,0.00,,---,0.00,VWS V14.01,2013-02-18 15:23:00,
2013-02-18 07:24:00,40.1,38.0,29.97,NE,45,0.0,0.0,92,0.00,,---,0.00,VWS V14.01,2013-02-18 15:24:00,
2013-02-18 07:25:00,40.1,38.0,29.97,NE,45,0.0,0.0,92,0.00,,---,0.00,VWS V14.01,2013-02-18 15:25:00,
2013-02-18 07:26:00,40.1,38.0,29.97,NE,45,0.0,0.0,92,0.00,,---,0.00,VWS V14.01,2013-02-18 15:26:00,
2013-02-18 07:27:00,40.1,38.0,29.97,ENE,68,0.0,0.0,92,0.00,,---,0.00,VWS V14.01,2013-02-18 15:27:00,
2013-02-18 07:28:00,40.1,38.0,29.97,ENE,68,0.0,0.0,92,0.00,,---,0.00,VWS V14.01,2013-02-18 15:28:00,
2013-02-18 07:29:00,40.1,38.0,29.97,ENE,68,0.0,0.0,92,0.00,,---,0.00,VWS V14.01,2013-02-18 15:29:00,
2013-02-18 07:30:00,40.1,38.0,29.97,ENE,68,0.0,0.0,92,0.00,,---,0.00,VWS V14.01,2013-02-18 15:30:00,
2013-02-18 07:31:00,40.3,38.2,29.97,ENE,68,0.0,0.0,92,0.00,,---,0.00,VWS V14.01,2013-02-18 15:31:00,
2013-02-18 07:32:00,40.3,38.2,29.97,East,90,1.1,1.1,92,0.00,,---,0.00,VWS V14.01,2013-02-18 15:32:00,
2013-02-18 07:33:00,40.3,38.2,29.97,East,90,0.0,0.0,92,0.00,,---,0.00,VWS V14.01,2013-02-18 15:33:00,
2013-02-18 07:34:00,40.3,38.2,29.97,East,90,1.1,1.1,92,0.00,,---,0.00,VWS V14.01,2013-02-18 15:34:00,
2013-02-18 07:35:00,40.3,38.2,29.97,East,90,0.0,1.1,92,0.00,,---,0.00,VWS V14.01,2013-02-18 15:35:00,
2013-02-18 07:36:00,40.5,38.3,29.97,East,90,0.0,0.0,92,0.00,,---,0.00,VWS V14.01,2013-02-18 15:36:00,
2013-02-18 07:37:00,40.5,38.3,29.97,East,90,1.3,2.2,92,0.00,,---,0.00,VWS V14.01,2013-02-18 15:37:00,
2013-02-18 07:38:00,40.5,38.3,29.97,East,90,0.9,1.1,92,0.00,,---,0.00,VWS V14.01,2013-02-18 15:38:00,
2013-02-18 07:39:00,40.5,38.3,29.97,East,90,2.2,2.2,92,0.00,,---,0.00,VWS V14.01,2013-02-18 15:39:00,
2013-02-18 07:40:00,40.5,38.3,29.97,East,90,0.0,2.2,92,0.00,,---,0.00,VWS V14.01,2013-02-18 15:40:00,
2013-02-18 07:41:00,40.5,38.3,29.97,East,90,0.0,0.9,92,0.00,,---,0.00,VWS V14.01,2013-02-18 15:41:00,
2013-02-18 07:42:00,40.5,38.3,29.97,East,90,0.0,0.0,92,0.00,,---,0.00,VWS V14.01,2013-02-18 15:42:00,
2013-02-18 07:43:00,40.5,38.3,29.97,East,90,0.0,1.6,92,0.00,,---,0.00,VWS V14.01,2013-02-18 15:43:00,
2013-02-18 07:44:00,40.5,38.3,29.97,East,90,0.0,0.0,92,0.00,,---,0.00,VWS V14.01,2013-02-18 15:44:00,
2013-02-18 07:45:00,40.5,38.3,29.97,East,90,0.0,0.0,92,0.00,,---,0.00,VWS V14.01,2013-02-18 15:45:00,
2013-02-18 07:46:00,40.5,38.3,29.97,East,90,0.0,0.0,92,0.00,,---,0.00,VWS V14.01,2013-02-18 15:46:00,
2013-02-18 07:47:00,40.5,38.3,29.97,East,90,1.3,1.3,92,0.00,,---,0.00,VWS V14.01,2013-02-18 15:47:00,
2013-02-18 07:48:00,42.3,40.1,30.00,NNE,22,0.0,0.0,92,0.00,,---,0.00,VWS V14.01,2013-02-18 15:48:00,
2013-02-18 07:49:00,40.5,38.3,29.97,East,90,0.0,0.0,92,0.00,,---,0.00,VWS V14.01,2013-02-18 15:49:00,
2013-02-18 07:50:00,40.5,38.3,29.97,East,90,1.6,1.6,92,0.00,,---,0.00,VWS V14.01,2013-02-18 15:50:00,
2013-02-18 07:51:00,40.6,38.8,29.97,East,90,1.1,1.6,93,0.00,,---,0.00,VWS V14.01,2013-02-18 15:51:00,
2013-02-18 07:52:00,40.6,38.8,29.97,East,90,1.3,1.3,93,0.00,,---,0.00,VWS V14.01,2013-02-18 15:52:00,
2013-02-18 07:53:00,40.6,38.8,29.97,East,90,1.1,1.6,93,0.00,,---,0.00,VWS V14.01,2013-02-18 15:53:00,
2013-02-18 07:54:00,40.6,38.8,29.97,East,90,1.1,1.1,93,0.00,,---,0.00,VWS V14.01,2013-02-18 15:54:00,
2013-02-18 07:55:00,40.6,38.8,29.97,East,90,0.9,1.3,93,0.00,,---,0.00,VWS V14.01,2013-02-18 15:55:00,
2013-02-18 07:56:00,40.6,38.8,29.97,East,90,0.9,1.3,93,0.00,,---,0.00,VWS V14.01,2013-02-18 15:56:00,
2013-02-18 07:57:00,40.6,38.8,29.97,ESE,112,0.9,1.1,93,0.00,,---,0.00,VWS V14.01,2013-02-18 15:57:00,
2013-02-18 07:58:00,40.6,38.8,29.97,ESE,112,0.9,0.9,93,0.00,,---,0.00,VWS V14.01,2013-02-18 15:58:00,
2013-02-18 07:59:00,40.6,38.8,29.97,ESE,112,0.9,1.1,93,0.00,,---,0.00,VWS V14.01,2013-02-18 15:59:00,
2013-02-18 08:00:00,40.8,39.0,29.97,ESE,112,0.0,1.1,93,0.00,,---,0.00,VWS V14.01,2013-02-18 16:00:00,
2013-02-18 08:01:00,40.6,38.8,29.97,ESE,112,0.0,1.3,93,0.00,,---,0.00,VWS V14.01,2013-02-18 16:01:00,
2013-02-18 08:02:00,40.6,38.8,29.97,SSW,202,1.1,1.6,93,0.00,,---,0.00,VWS V14.01,2013-02-18 16:02:00,
2013-02-18 08:03:00,40.6,38.8,29.97,SE,135,1.3,2.0,93,0.00,,---,0.00,VWS V14.01,2013-02-18 16:03:00,
2013-02-18 08:04:00,40.6,38.8,29.97,South,180,1.6,1.6,93,0.00,,---,0.00,VWS V14.01,2013-02-18 16:04:00,
2013-02-18 08:05:00,40.6,38.8,29.97,SW,225,1.3,1.6,93,0.00,,---,0.00,VWS V14.01,2013-02-18 16:05:00,
2013-02-18 08:06:00,40.8,39.0,30.00,SW,225,0.0,1.3,93,0.00,,---,0.00,VWS V14.01,2013-02-18 16:06:00,
2013-02-18 08:07:00,41.0,39.1,30.00,West,270,0.0,1.1,93,0.00,,---,0.00,VWS V14.01,2013-02-18 16:07:00,
2013-02-18 08:08:00,41.0,39.1,30.00,West,270,1.3,1.3,93,0.00,,---,0.00,VWS V14.01,2013-02-18 16:08:00,
2013-02-18 08:09:00,41.0,39.1,30.00,West,270,1.1,1.3,93,0.00,,---,0.00,VWS V14.01,2013-02-18 16:09:00,
2013-02-18 08:10:00,41.0,39.1,30.00,West,270,0.0,1.1,93,0.00,,---,0.00,VWS V14.01,2013-02-18 16:10:00,
2013-02-18 08:11:00,41.0,39.1,30.00,West,270,1.3,1.3,93,0.00,,---,0.00,VWS V14.01,2013-02-18 16:11:00,
2013-02-18 08:12:00,41.0,39.1,30.00,WNW,292,0.0,0.0,93,0.00,,---,0.00,VWS V14.01,2013-02-18 16:12:00,
2013-02-18 08:13:00,41.0,39.1,30.00,WNW,292,1.6,1.6,93,0.00,,---,0.00,VWS V14.01,2013-02-18 16:13:00,
2013-02-18 08:14:00,41.0,39.1,30.00,WNW,292,0.0,1.6,93,0.00,,---,0.00,VWS V14.01,2013-02-18 16:14:00,
2013-02-18 08:15:00,41.0,39.1,30.00,WNW,292,0.0,0.0,93,0.00,,---,0.00,VWS V14.01,2013-02-18 16:15:00,
2013-02-18 08:16:00,41.0,39.1,30.00,WNW,292,0.0,0.0,93,0.00,,---,0.00,VWS V14.01,2013-02-18 16:16:00,
2013-02-18 08:17:00,41.0,39.1,30.00,WNW,292,1.1,1.1,93,0.00,,---,0.00,VWS V14.01,2013-02-18 16:17:00,
2013-02-18 08:18:00,41.0,39.1,30.00,West,270,0.0,0.0,93,0.00,,---,0.00,VWS V14.01,2013-02-18 16:18:00,
2013-02-18 08:19:00,41.0,39.1,30.00,WNW,292,0.0,0.0,93,0.00,,---,0.00,VWS V14.01,2013-02-18 16:19:00,
2013-02-18 08:20:00,41.0,39.1,30.00,WNW,292,1.3,1.3,93,0.00,,---,0.00,VWS V14.01,2013-02-18 16:20:00,
2013-02-18 08:21:00,41.0,39.1,30.00,West,270,1.3,1.3,93,0.00,,---,0.00,VWS V14.01,2013-02-18 16:21:00,
2013-02-18 08:22:00,41.5,39.4,30.00,West,270,0.9,1.1,92,0.00,,---,0.00,VWS V14.01,2013-02-18 16:22:00,
2013-02-18 08:23:00,41.0,39.1,30.00,West,270,0.9,1.3,93,0.00,,---,0.00,VWS V14.01,2013-02-18 16:23:00,
2013-02-18 08:24:00,41.0,39.1,30.00,West,270,1.1,1.1,93,0.00,,---,0.00,VWS V14.01,2013-02-18 16:24:00,
2013-02-18 08:25:00,41.5,39.4,30.00,WNW,292,0.9,1.1,92,0.00,,---,0.00,VWS V14.01,2013-02-18 16:25:00,
2013-02-18 08:26:00,41.5,39.4,30.00,WNW,292,0.0,1.1,92,0.00,,---,0.00,VWS V14.01,2013-02-18 16:26:00,
2013-02-18 08:27:00,41.7,39.6,30.00,NW,315,0.0,0.0,92,0.00,,---,0.00,VWS V14.01,2013-02-18 16:27:00,
2013-02-18 08:28:00,41.5,39.4,30.00,NW,315,0.0,0.0,92,0.00,,---,0.00,VWS V14.01,2013-02-18 16:28:00,
2013-02-18 08:29:00,41.7,39.6,30.00,NW,315,0.0,0.0,92,0.00,,---,0.00,VWS V14.01,2013-02-18 16:29:00,
2013-02-18 08:30:00,41.7,39.6,30.00,NW,315,0.0,0.0,92,0.00,,---,0.00,VWS V14.01,2013-02-18 16:30:00,
2013-02-18 08:31:00,41.7,39.6,30.00,NW,315,0.0,0.0,92,0.00,,---,0.00,VWS V14.01,2013-02-18 16:31:00,
2013-02-18 08:32:00,41.7,39.6,30.00,NW,315,0.0,0.0,92,0.00,,---,0.00,VWS V14.01,2013-02-18 16:32:00,
2013-02-18 08:33:00,41.7,39.6,30.00,NW,315,0.0,0.0,92,0.00,,---,0.00,VWS V14.01,2013-02-18 16:33:00,
2013-02-18 08:34:00,41.7,39.6,30.00,NW,315,0.0,0.0,92,0.00,,---,0.00,VWS V14.01,2013-02-18 16:34:00,
2013-02-18 08:35:00,41.7,39.6,30.00,NW,315,0.0,0.0,92,0.00,,---,0.00,VWS V14.01,2013-02-18 16:35:00,
2013-02-18 08:36:00,41.7,39.6,30.00,NW,315,0.0,0.0,92,0.00,,---,0.00,VWS V14.01,2013-02-18 16:36:00,
2013-02-18 08:37:00,41.9,39.8,30.00,North,0,0.0,0.0,92,0.00,,---,0.00,VWS V14.01,2013-02-18 16:37:00,
2013-02-18 08:38:00,41.9,39.8,30.00,NE,45,0.0,1.1,92,0.00,,---,0.00,VWS V14.01,2013-02-18 16:38:00,
2013-02-18 08:39:00,41.9,39.8,30.00,NNE,22,0.0,0.0,92,0.00,,---,0.00,VWS V14.01,2013-02-18 16:39:00,
2013-02-18 08:40:00,41.9,39.8,30.00,North,0,0.0,0.0,92,0.00,,---,0.00,VWS V14.01,2013-02-18 16:40:00,
2013-02-18 08:41:00,42.1,39.9,30.00,North,0,0.0,0.0,92,0.00,,---,0.00,VWS V14.01,2013-02-18 16:41:00,
2013-02-18 08:42:00,42.1,39.9,30.00,North,0,0.0,0.0,92,0.00,,---,0.00,VWS V14.01,2013-02-18 16:42:00,
2013-02-18 08:43:00,42.1,39.9,30.00,North,0,0.0,0.0,92,0.00,,---,0.00,VWS V14.01,2013-02-18 16:43:00,
2013-02-18 08:44:00,42.1,39.9,30.00,North,0,0.0,0.0,92,0.00,,---,0.00,VWS V14.01,2013-02-18 16:44:00,
2013-02-18 08:45:00,42.3,40.1,30.00,North,0,0.0,0.0,92,0.00,,---,0.00,VWS V14.01,2013-02-18 16:45:00,
2013-02-18 08:46:00,42.3,40.1,30.00,North,0,0.0,0.0,92,0.00,,---,0.00,VWS V14.01,2013-02-18 16:46:00,
2013-02-18 08:47:00,42.4,40.3,30.00,NNE,22,0.0,0.0,92,0.00,,---,0.00,VWS V14.01,2013-02-18 16:47:00,
2013-02-18 08:48:00,42.3,40.1,30.00,NNE,22,0.0,0.0,92,0.00,,---,0.00,VWS V14.01,2013-02-18 16:48:00,
2013-02-18 08:49:00,42.3,40.1,30.00,NNE,22,0.0,0.0,92,0.00,,---,0.00,VWS V14.01,2013-02-18 16:49:00,
2013-02-18 08:50:00,42.4,40.3,30.00,NNE,22,0.0,0.0,92,0.00,,---,0.00,VWS V14.01,2013-02-18 16:50:00,
2013-02-18 08:51:00,42.4,40.3,30.00,NNE,22,0.0,0.0,92,0.00,,---,0.00,VWS V14.01,2013-02-18 16:51:00,
2013-02-18 08:52:00,42.4,40.3,30.00,NNE,22,0.0,0.0,92,0.00,,---,0.00,VWS V14.01,2013-02-18 16:52:00,
2013-02-18 08:53:00,42.4,40.3,30.00,NNE,22,0.9,1.1,92,0.00,,---,0.00,VWS V14.01,2013-02-18 16:53:00,
2013-02-18 08:54:00,42.4,40.3,30.00,NNE,22,0.0,0.9,92,0.00,,---,0.00,VWS V14.01,2013-02-18 16:54:00,
2013-02-18 08:55:00,42.4,40.3,30.00,NNE,22,0.0,0.0,92,0.00,,---,0.00,VWS V14.01,2013-02-18 16:55:00,
2013-02-18 08:56:00,42.4,40.3,30.00,North,0,0.0,1.1,92,0.00,,---,0.00,VWS V14.01,2013-02-18 16:56:00,
2013-02-18 08:57:00,42.4,40.3,30.00,North,0,0.0,0.0,92,0.00,,---,0.00,VWS V14.01,2013-02-18 16:57:00,
2013-02-18 08:58:00,42.4,40.3,30.00,North,0,0.0,0.0,92,0.00,,---,0.00,VWS V14.01,2013-02-18 16:58:00,
2013-02-18 08:59:00,42.4,40.3,30.00,North,0,0.0,0.0,92,0.00,,---,0.00,VWS V14.01,2013-02-18 16:59:00,
2013-02-18 09:00:00,42.4,40.3,30.00,North,0,0.0,0.0,92,0.00,,---,0.00,VWS V14.01,2013-02-18 17:00:00,
2013-02-18 09:01:00,42.4,40.3,30.00,North,0,1.1,1.1,92,0.00,,---,0.00,VWS V14.01,2013-02-18 17:01:00,
2013-02-18 09:02:00,43.0,40.5,30.00,North,0,0.0,0.0,91,0.00,,---,0.00,VWS V14.01,2013-02-18 17:02:00,
2013-02-18 09:03:00,42.4,40.3,30.00,North,0,0.0,1.3,92,0.00,,---,0.00,VWS V14.01,2013-02-18 17:03:00,
2013-02-18 09:04:00,42.4,40.3,30.00,North,0,0.0,0.0,92,0.00,,---,0.00,VWS V14.01,2013-02-18 17:04:00,
2013-02-18 09:05:00,43.0,40.5,30.00,North,0,0.0,0.0,91,0.00,,---,0.00,VWS V14.01,2013-02-18 17:05:00,
2013-02-18 09:06:00,43.0,40.8,30.00,North,0,0.0,0.0,92,0.00,,---,0.00,VWS V14.01,2013-02-18 17:06:00,
2013-02-18 09:07:00,43.2,41.0,30.00,North,0,0.0,0.0,92,0.00,,---,0.00,VWS V14.01,2013-02-18 17:07:00,
2013-02-18 09:08:00,43.2,41.0,30.00,North,0,0.0,0.0,92,0.00,,---,0.00,VWS V14.01,2013-02-18 17:08:00,
2013-02-18 09:09:00,43.2,41.0,30.00,North,0,0.0,0.0,92,0.00,,---,0.00,VWS V14.01,2013-02-18 17:09:00,
2013-02-18 09:10:00,43.3,40.9,30.00,North,0,0.0,0.0,91,0.00,,---,0.00,VWS V14.01,2013-02-18 17:10:00,
2013-02-18 09:11:00,43.3,40.9,30.00,North,0,0.0,0.0,91,0.00,,---,0.00,VWS V14.01,2013-02-18 17:11:00,
2013-02-18 09:12:00,43.5,41.1,30.00,North,0,0.0,0.0,91,0.00,,---,0.00,VWS V14.01,2013-02-18 17:12:00,
2013-02-18 09:13:00,43.3,40.9,30.00,North,0,0.0,0.0,91,0.00,,---,0.00,VWS V14.01,2013-02-18 17:13:00,
2013-02-18 09:14:00,43.5,41.1,30.00,North,0,0.0,0.0,91,0.00,,---,0.00,VWS V14.01,2013-02-18 17:14:00,
2013-02-18 09:15:00,43.5,41.1,30.00,North,0,0.0,0.0,91,0.00,,---,0.00,VWS V14.01,2013-02-18 17:15:00,
2013-02-18 09:16:00,43.5,41.1,30.00,North,0,0.0,0.0,91,0.00,,---,0.00,VWS V14.01,2013-02-18 17:16:00,
2013-02-18 09:17:00,43.7,41.2,30.00,NNE,22,0.9,1.1,91,0.00,,---,0.00,VWS V14.01,2013-02-18 17:17:00,
2013-02-18 09:18:00,43.5,41.1,30.00,North,0,0.0,0.0,91,0.00,,---,0.00,VWS V14.01,2013-02-18 17:18:00,
2013-02-18 09:19:00,43.7,41.2,30.00,NNE,22,1.1,1.1,91,0.00,,---,0.00,VWS V14.01,2013-02-18 17:19:00,
2013-02-18 09:20:00,43.7,41.2,30.00,NNE,22,0.9,1.1,91,0.00,,---,0.00,VWS V14.01,2013-02-18 17:20:00,
2013-02-18 09:21:00,43.7,41.2,30.00,NNE,22,0.0,0.9,91,0.00,,---,0.00,VWS V14.01,2013-02-18 17:21:00,
2013-02-18 09:22:00,44.1,41.6,30.00,NNE,22,1.3,1.3,91,0.00,,---,0.00,VWS V14.01,2013-02-18 17:22:00,
2013-02-18 09:23:00,44.1,41.6,30.00,NNE,22,0.0,0.0,91,0.00,,---,0.00,VWS V14.01,2013-02-18 17:23:00,
2013-02-18 09:24:00,44.1,41.6,30.00,NNE,22,1.3,1.3,91,0.00,,---,0.00,VWS V14.01,2013-02-18 17:24:00,
2013-02-18 09:25:00,44.1,41.6,30.00,NNE,22,1.6,1.6,91,0.00,,---,0.00,VWS V14.01,2013-02-18 17:25:00,
2013-02-18 09:26:00,44.1,41.6,30.00,NE,45,2.0,2.0,91,0.00,,---,0.00,VWS V14.01,2013-02-18 17:26:00,
2013-02-18 09:27:00,44.1,41.6,30.00,NE,45,0.0,0.9,91,0.00,,---,0.00,VWS V14.01,2013-02-18 17:27:00,
2013-02-18 09:28:00,44.1,41.6,30.00,NE,45,0.0,1.6,91,0.00,,---,0.00,VWS V14.01,2013-02-18 17:28:00,
2013-02-18 09:29:00,44.1,41.6,30.00,NE,45,0.9,0.9,91,0.00,,---,0.00,VWS V14.01,2013-02-18 17:29:00,
2013-02-18 09:30:00,44.1,41.6,30.00,NE,45,0.0,0.9,91,0.00,,---,0.00,VWS V14.01,2013-02-18 17:30:00,
2013-02-18 09:31:00,44.1,41.6,30.00,NE,45,0.0,0.0,91,0.00,,---,0.00,VWS V14.01,2013-02-18 17:31:00,
2013-02-18 09:32:00,44.1,41.6,30.00,NE,45,1.1,1.1,91,0.00,,---,0.00,VWS V14.01,2013-02-18 17:32:00,
2013-02-18 09:33:00,44.1,41.6,30.00,NE,45,0.0,0.0,91,0.00,,---,0.00,VWS V14.01,2013-02-18 17:33:00,
2013-02-18 09:34:00,44.1,41.6,30.00,NE,45,1.1,1.1,91,0.00,,---,0.00,VWS V14.01,2013-02-18 17:34:00,
2013-02-18 09:35:00,44.1,41.6,30.00,NE,45,0.0,1.1,91,0.00,,---,0.00,VWS V14.01,2013-02-18 17:35:00,
2013-02-18 09:36:00,44.1,41.6,30.00,NE,45,0.0,0.0,91,0.00,,---,0.00,VWS V14.01,2013-02-18 17:36:00,
2013-02-18 09:37:00,44.8,42.0,30.00,NE,45,0.0,0.0,90,0.00,,---,0.00,VWS V14.01,2013-02-18 17:37:00,
2013-02-18 09:38:00,44.1,41.6,30.00,NE,45,0.0,0.0,91,0.00,,---,0.00,VWS V14.01,2013-02-18 17:38:00,
2013-02-18 09:39:00,44.8,42.0,30.00,NE,45,0.0,0.0,90,0.00,,---,0.00,VWS V14.01,2013-02-18 17:39:00,
2013-02-18 09:40:00,44.8,42.0,30.00,NE,45,0.0,0.0,90,0.00,,---,0.00,VWS V14.01,2013-02-18 17:40:00,
2013-02-18 09:41:00,44.8,41.7,30.00,NE,45,0.0,0.0,89,0.00,,---,0.00,VWS V14.01,2013-02-18 17:41:00,
2013-02-18 09:42:00,45.0,41.9,30.00,NE,45,0.0,0.0,89,0.00,,---,0.00,VWS V14.01,2013-02-18 17:42:00,
2013-02-18 09:43:00,44.8,41.7,30.00,NE,45,0.0,0.0,89,0.00,,---,0.00,VWS V14.01,2013-02-18 17:43:00,
2013-02-18 09:44:00,45.0,41.9,30.00,NE,45,0.0,0.0,89,0.00,,---,0.00,VWS V14.01,2013-02-18 17:44:00,
2013-02-18 09:45:00,45.1,42.1,30.00,NE,45,0.0,0.0,89,0.00,,---,0.00,VWS V14.01,2013-02-18 17:45:00,
2013-02-18 09:46:00,45.1,42.1,30.00,NE,45,0.0,0.0,89,0.00,,---,0.00,VWS V14.01,2013-02-18 17:46:00,
2013-02-18 09:47:00,45.3,42.3,30.00,North,0,1.1,1.1,89,0.00,,---,0.00,VWS V14.01,2013-02-18 17:47:00,
2013-02-18 09:48:00,45.1,42.1,30.00,NNE,22,0.0,0.0,89,0.00,,---,0.00,VWS V14.01,2013-02-18 17:48:00,
2013-02-18 09:49:00,45.1,42.1,30.00,North,0,1.1,1.1,89,0.00,,---,0.00,VWS V14.01,2013-02-18 17:49:00,
2013-02-18 09:50:00,45.3,42.3,30.00,North,0,0.9,1.1,89,0.00,,---,0.00,VWS V14.01,2013-02-18 17:50:00,
2013-02-18 09:51:00,45.3,42.0,30.00,NNW,338,2.0,2.0,88,0.00,,---,0.00,VWS V14.01,2013-02-18 17:51:00,
2013-02-18 09:52:00,45.5,42.2,30.00,NNW,338,1.3,1.3,88,0.00,,---,0.00,VWS V14.01,2013-02-18 17:52:00,
2013-02-18 09:53:00,45.3,42.0,30.00,NNW,338,1.6,1.6,88,0.00,,---,0.00,VWS V14.01,2013-02-18 17:53:00,
2013-02-18 09:54:00,45.3,42.0,30.00,NNW,338,1.1,1.6,88,0.00,,---,0.00,VWS V14.01,2013-02-18 17:54:00,
2013-02-18 09:55:00,45.5,42.2,30.00,NNW,338,0.9,1.3,88,0.00,,---,0.00,VWS V14.01,2013-02-18 17:55:00,
2013-02-18 09:56:00,45.5,42.2,30.00,NNW,338,0.0,0.9,88,0.00,,---,0.00,VWS V14.01,2013-02-18 17:56:00,
2013-02-18 09:57:00,45.5,42.2,30.00,NW,315,0.0,1.6,88,0.00,,---,0.00,VWS V14.01,2013-02-18 17:57:00,
2013-02-18 09:58:00,47.1,42.8,30.00,WSW,248,0.0,0.0,85,0.00,,---,0.00,VWS V14.01,2013-02-18 17:58:00,
2013-02-18 09:59:00,45.5,42.2,30.00,NW,315,1.6,1.6,88,0.00,,---,0.00,VWS V14.01,2013-02-18 17:59:00,
2013-02-18 10:00:00,45.5,42.2,30.00,NW,315,0.0,1.6,88,0.00,,---,0.00,VWS V14.01,2013-02-18 18:00:00,
2013-02-18 10:01:00,45.5,42.2,30.00,NW,315,0.0,0.0,88,0.00,,---,0.00,VWS V14.01,2013-02-18 18:01:00,
2013-02-18 10:02:00,45.5,42.2,30.00,NW,315,0.0,0.9,88,0.00,,---,0.00,VWS V14.01,2013-02-18 18:02:00,
2013-02-18 10:03:00,47.5,43.2,30.00,NW,315,0.9,1.6,85,0.00,,---,0.00,VWS V14.01,2013-02-18 18:03:00,
2013-02-18 10:04:00,45.5,42.2,30.00,NW,315,0.0,0.0,88,0.00,,---,0.00,VWS V14.01,2013-02-18 18:04:00,
2013-02-18 10:05:00,45.5,42.2,30.00,NW,315,0.0,0.9,88,0.00,,---,0.00,VWS V14.01,2013-02-18 18:05:00,
2013-02-18 10:06:00,45.5,42.2,30.00,WNW,292,1.1,1.6,88,0.00,,---,0.00,VWS V14.01,2013-02-18 18:06:00,
2013-02-18 10:07:00,45.5,42.2,30.00,WNW,292,1.3,1.6,88,0.00,,---,0.00,VWS V14.01,2013-02-18 18:07:00,
2013-02-18 10:08:00,45.5,42.2,30.00,WNW,292,1.6,2.0,88,0.00,,---,0.00,VWS V14.01,2013-02-18 18:08:00,
2013-02-18 10:09:00,45.5,42.2,30.00,WNW,292,1.6,1.6,88,0.00,,---,0.00,VWS V14.01,2013-02-18 18:09:00,
2013-02-18 10:10:00,45.5,42.2,30.00,WNW,292,1.3,1.6,88,0.00,,---,0.00,VWS V14.01,2013-02-18 18:10:00,
2013-02-18 10:11:00,45.5,42.2,30.00,WNW,292,0.0,1.3,88,0.00,,---,0.00,VWS V14.01,2013-02-18 18:11:00,
2013-02-18 10:12:00,45.9,42.2,30.00,West,270,1.1,1.6,87,0.00,,---,0.00,VWS V14.01,2013-02-18 18:12:00,
2013-02-18 10:13:00,45.5,42.2,30.00,West,270,1.6,2.2,88,0.00,,---,0.00,VWS V14.01,2013-02-18 18:13:00,
2013-02-18 10:14:00,45.9,42.2,30.00,West,270,1.6,1.6,87,0.00,,---,0.00,VWS V14.01,2013-02-18 18:14:00,
2013-02-18 10:15:00,48.2,42.7,30.00,WNW,292,1.6,1.6,81,0.00,,---,0.00,VWS V14.01,2013-02-18 18:15:00,
2013-02-18 10:16:00,45.9,42.2,30.00,West,270,1.3,1.6,87,0.00,,---,0.00,VWS V14.01,2013-02-18 18:16:00,
2013-02-18 10:17:00,46.0,42.4,30.00,West,270,0.0,0.0,87,0.00,,---,0.00,VWS V14.01,2013-02-18 18:17:00,
2013-02-18 10:18:00,46.0,42.4,30.00,West,270,0.0,0.0,87,0.00,,---,0.00,VWS V14.01,2013-02-18 18:18:00,
2013-02-18 10:19:00,46.0,42.4,30.00,West,270,0.0,0.0,87,0.00,,---,0.00,VWS V14.01,2013-02-18 18:19:00,
2013-02-18 10:20:00,46.0,42.4,30.00,West,270,0.9,0.9,87,0.00,,---,0.00,VWS V14.01,2013-02-18 18:20:00,
2013-02-18 10:21:00,46.0,42.4,30.00,WSW,248,0.0,0.9,87,0.00,,---,0.00,VWS V14.01,2013-02-18 18:21:00,
2013-02-18 10:22:00,46.2,42.6,30.00,WSW,248,0.0,0.0,87,0.00,,---,0.00,VWS V14.01,2013-02-18 18:22:00,
2013-02-18 10:23:00,46.0,42.4,30.00,SW,225,0.0,1.1,87,0.00,,---,0.00,VWS V14.01,2013-02-18 18:23:00,
2013-02-18 10:24:00,46.2,42.6,30.00,WSW,248,0.0,0.0,87,0.00,,---,0.00,VWS V14.01,2013-02-18 18:24:00,
2013-02-18 10:25:00,46.2,42.6,30.00,WSW,248,0.0,0.0,87,0.00,,---,0.00,VWS V14.01,2013-02-18 18:25:00,
2013-02-18 10:26:00,46.2,42.6,30.00,WSW,248,0.0,0.0,87,0.00,,---,0.00,VWS V14.01,2013-02-18 18:26:00,
2013-02-18 10:27:00,46.2,42.3,30.00,WSW,248,0.0,0.9,86,0.00,,---,0.00,VWS V14.01,2013-02-18 18:27:00,
2013-02-18 10:28:00,46.2,42.3,30.00,WSW,248,0.0,0.0,86,0.00,,---,0.00,VWS V14.01,2013-02-18 18:28:00,
2013-02-18 10:29:00,46.2,42.3,30.00,SSE,158,2.2,2.2,86,0.00,,---,0.00,VWS V14.01,2013-02-18 18:29:00,
2013-02-18 10:30:00,46.2,42.3,30.00,SSE,158,2.2,2.2,86,0.00,,---,0.00,VWS V14.01,2013-02-18 18:30:00,
2013-02-18 10:31:00,46.2,42.3,30.00,SSE,158,0.0,2.2,86,0.00,,---,0.00,VWS V14.01,2013-02-18 18:31:00,
2013-02-18 10:32:00,46.2,42.0,30.00,WSW,248,1.6,1.6,85,0.00,,---,0.00,VWS V14.01,2013-02-18 18:32:00,
2013-02-18 10:33:00,46.2,42.0,30.00,SSW,202,0.0,0.0,85,0.00,,---,0.00,VWS V14.01,2013-02-18 18:33:00,
2013-02-18 10:34:00,46.2,42.0,30.00,SSW,202,0.0,0.0,85,0.00,,---,0.00,VWS V14.01,2013-02-18 18:34:00,
2013-02-18 10:35:00,46.2,42.0,30.00,West,270,1.3,1.6,85,0.00,,---,0.00,VWS V14.01,2013-02-18 18:35:00,
2013-02-18 10:36:00,46.2,42.0,30.00,West,270,0.0,1.3,85,0.00,,---,0.00,VWS V14.01,2013-02-18 18:36:00,
2013-02-18 10:37:00,46.4,42.1,30.00,West,270,0.9,1.3,85,0.00,,---,0.00,VWS V14.01,2013-02-18 18:37:00,
2013-02-18 10:38:00,46.2,42.0,30.00,SW,225,0.0,0.0,85,0.00,,---,0.00,VWS V14.01,2013-02-18 18:38:00,
2013-02-18 10:39:00,46.4,42.1,30.00,West,270,1.3,1.6,85,0.00,,---,0.00,VWS V14.01,2013-02-18 18:39:00,
2013-02-18 10:40:00,46.4,42.1,30.00,West,270,1.1,1.3,85,0.00,,---,0.00,VWS V14.01,2013-02-18 18:40:00,
2013-02-18 10:41:00,46.4,42.1,30.00,West,270,0.9,1.6,85,0.00,,---,0.00,VWS V14.01,2013-02-18 18:41:00,
2013-02-18 10:42:00,46.4,42.1,30.00,WSW,248,1.6,1.6,85,0.00,,---,0.00,VWS V14.01,2013-02-18 18:42:00,
2013-02-18 10:43:00,46.4,42.1,30.00,WSW,248,0.0,0.9,85,0.00,,---,0.00,VWS V14.01,2013-02-18 18:43:00,
2013-02-18 10:44:00,46.4,42.1,30.00,SW,225,0.0,0.0,85,0.00,,---,0.00,VWS V14.01,2013-02-18 18:44:00,
2013-02-18 10:45:00,46.4,42.1,30.00,West,270,1.1,1.6,85,0.00,,---,0.00,VWS V14.01,2013-02-18 18:45:00,
2013-02-18 10:46:00,46.4,42.1,30.00,West,270,0.0,2.2,85,0.00,,---,0.00,VWS V14.01,2013-02-18 18:46:00,
2013-02-18 10:47:00,46.4,42.1,30.00,West,270,0.0,0.0,85,0.00,,---,0.00,VWS V14.01,2013-02-18 18:47:00,
2013-02-18 10:48:00,46.4,42.1,30.00,West,270,1.1,1.3,85,0.00,,---,0.00,VWS V14.01,2013-02-18 18:48:00,
2013-02-18 10:49:00,46.4,42.1,30.00,West,270,0.0,1.1,85,0.00,,---,0.00,VWS V14.01,2013-02-18 18:49:00,
2013-02-18 10:50:00,46.4,42.1,30.00,West,270,0.0,0.0,85,0.00,,---,0.00,VWS V14.01,2013-02-18 18:50:00,
2013-02-18 10:51:00,46.4,42.1,30.00,West,270,0.9,0.9,85,0.00,,---,0.00,VWS V14.01,2013-02-18 18:51:00,
2013-02-18 10:52:00,46.8,42.5,30.00,SW,225,0.0,0.0,85,0.00,,---,0.00,VWS V14.01,2013-02-18 18:52:00,
2013-02-18 10:53:00,46.8,42.5,30.00,SW,225,0.0,1.3,85,0.00,,---,0.00,VWS V14.01,2013-02-18 18:53:00,
2013-02-18 10:54:00,46.8,42.5,30.00,WSW,248,0.0,0.0,85,0.00,,---,0.00,VWS V14.01,2013-02-18 18:54:00,
2013-02-18 10:55:00,46.8,42.5,30.00,WSW,248,0.0,0.0,85,0.00,,---,0.00,VWS V14.01,2013-02-18 18:55:00,
2013-02-18 10:56:00,46.9,42.7,30.00,WSW,248,0.0,0.0,85,0.00,,---,0.00,VWS V14.01,2013-02-18 18:56:00,
2013-02-18 10:57:00,47.3,43.0,30.00,South,180,0.9,1.3,85,0.00,,---,0.00,VWS V14.01,2013-02-18 18:57:00,
2013-02-18 10:58:00,47.1,42.8,30.00,WSW,248,0.0,0.0,85,0.00,,---,0.00,VWS V14.01,2013-02-18 18:58:00,
2013-02-18 10:59:00,47.1,42.8,30.00,South,180,1.3,1.3,85,0.00,,---,0.00,VWS V14.01,2013-02-18 18:59:00,
2013-02-18 11:00:00,47.3,43.0,30.00,SE,135,1.6,1.6,85,0.00,,---,0.00,VWS V14.01,2013-02-18 19:00:00,
2013-02-18 11:01:00,47.3,43.0,30.00,ENE,68,1.1,1.6,85,0.00,,---,0.00,VWS V14.01,2013-02-18 19:01:00,
2013-02-18 11:02:00,47.7,43.4,30.00,NW,315,0.0,0.0,85,0.00,,---,0.00,VWS V14.01,2013-02-18 19:02:00,
2013-02-18 11:03:00,47.5,43.2,30.00,NW,315,0.9,1.6,85,0.00,,---,0.00,VWS V14.01,2013-02-18 19:03:00,
2013-02-18 11:04:00,47.5,43.2,30.00,NW,315,0.0,0.9,85,0.00,,---,0.00,VWS V14.01,2013-02-18 19:04:00,
2013-02-18 11:05:00,47.7,43.4,30.00,NW,315,0.0,0.0,85,0.00,,---,0.00,VWS V14.01,2013-02-18 19:05:00,
2013-02-18 11:06:00,47.7,43.4,30.00,NW,315,0.0,0.0,85,0.00,,---,0.00,VWS V14.01,2013-02-18 19:06:00,
2013-02-18 11:07:00,47.8,42.6,30.00,West,270,1.6,2.0,82,0.00,,---,0.00,VWS V14.01,2013-02-18 19:07:00,
2013-02-18 11:08:00,47.8,42.9,30.00,NW,315,0.0,0.0,83,0.00,,---,0.00,VWS V14.01,2013-02-18 19:08:00,
2013-02-18 11:09:00,47.8,42.9,30.00,West,270,2.0,2.0,83,0.00,,---,0.00,VWS V14.01,2013-02-18 19:09:00,
2013-02-18 11:10:00,47.8,42.6,30.00,West,270,2.0,2.5,82,0.00,,---,0.00,VWS V14.01,2013-02-18 19:10:00,
2013-02-18 11:11:00,48.0,42.8,30.00,West,270,1.3,2.0,82,0.00,,---,0.00,VWS V14.01,2013-02-18 19:11:00,
2013-02-18 11:12:00,48.2,42.7,30.00,West,270,1.3,1.6,81,0.00,,---,0.00,VWS V14.01,2013-02-18 19:12:00,
2013-02-18 11:13:00,48.2,43.0,30.00,West,270,1.6,2.5,82,0.00,,---,0.00,VWS V14.01,2013-02-18 19:13:00,
2013-02-18 11:14:00,48.2,42.7,30.00,West,270,1.3,2.2,81,0.00,,---,0.00,VWS V14.01,2013-02-18 19:14:00,
2013-02-18 11:15:00,48.2,42.7,30.00,WNW,292,1.6,1.6,81,0.00,,---,0.00,VWS V14.01,2013-02-18 19:15:00,
2013-02-18 11:16:00,51.3,41.1,30.00,South,180,1.3,2.5,68,0.00,,---,0.00,VWS V14.01,2013-02-18 19:16:00,
2013-02-18 11:17:00,48.2,42.7,30.00,WNW,292,0.0,0.0,81,0.00,,---,0.00,VWS V14.01,2013-02-18 19:17:00,
2013-02-18 11:18:00,48.2,42.7,30.00,WNW,292,0.0,1.1,81,0.00,,---,0.00,VWS V14.01,2013-02-18 19:18:00,
2013-02-18 11:19:00,48.2,42.7,30.00,WNW,292,0.0,0.0,81,0.00,,---,0.00,VWS V14.01,2013-02-18 19:19:00,
2013-02-18 11:20:00,48.2,42.7,30.00,WNW,292,0.0,0.0,81,0.00,,---,0.00,VWS V14.01,2013-02-18 19:20:00,
2013-02-18 11:21:00,48.2,42.7,30.00,WNW,292,0.0,0.9,81,0.00,,---,0.00,VWS V14.01,2013-02-18 19:21:00,
2013-02-18 11:22:00,48.2,42.7,30.00,SW,225,2.5,2.7,81,0.00,,---,0.00,VWS V14.01,2013-02-18 19:22:00,
2013-02-18 11:23:00,48.2,42.7,30.00,West,270,0.9,2.2,81,0.00,,---,0.00,VWS V14.01,2013-02-18 19:23:00,
2013-02-18 11:24:00,48.2,42.7,30.00,West,270,0.0,0.9,81,0.00,,---,0.00,VWS V14.01,2013-02-18 19:24:00,
2013-02-18 11:25:00,48.2,42.7,30.00,SW,225,2.5,2.7,81,0.00,,---,0.00,VWS V14.01,2013-02-18 19:25:00,
2013-02-18 11:26:00,48.2,42.7,30.00,West,270,2.2,2.5,81,0.00,,---,0.00,VWS V14.01,2013-02-18 19:26:00,
2013-02-18 11:27:00,49.6,43.7,30.00,West,270,0.0,0.0,80,0.00,,---,0.00,VWS V14.01,2013-02-18 19:27:00,
2013-02-18 11:28:00,48.2,42.7,30.00,NW,315,0.0,1.6,81,0.00,,---,0.00,VWS V14.01,2013-02-18 19:28:00,
2013-02-18 11:29:00,48.2,42.7,30.00,WNW,292,0.0,0.0,81,0.00,,---,0.00,VWS V14.01,2013-02-18 19:29:00,
2013-02-18 11:30:00,49.8,43.9,30.00,West,270,0.0,0.0,80,0.00,,---,0.00,VWS V14.01,2013-02-18 19:30:00,
2013-02-18 11:31:00,49.8,43.9,30.00,SSE,158,2.0,2.5,80,0.00,,---,0.00,VWS V14.01,2013-02-18 19:31:00,
2013-02-18 11:32:00,49.8,42.9,30.00,South,180,0.0,0.0,77,0.00,,---,0.00,VWS V14.01,2013-02-18 19:32:00,
2013-02-18 11:33:00,49.8,43.6,30.00,SSE,158,0.0,2.0,79,0.00,,---,0.00,VWS V14.01,2013-02-18 19:33:00,
2013-02-18 11:34:00,49.8,43.2,30.00,South,180,0.0,0.0,78,0.00,,---,0.00,VWS V14.01,2013-02-18 19:34:00,
2013-02-18 11:35:00,49.8,42.9,30.00,South,180,0.0,0.0,77,0.00,,---,0.00,VWS V14.01,2013-02-18 19:35:00,
2013-02-18 11:36:00,49.8,42.9,30.00,SSW,202,0.9,0.9,77,0.00,,---,0.00,VWS V14.01,2013-02-18 19:36:00,
2013-02-18 11:37:00,50.0,42.7,30.00,SW,225,1.3,1.3,76,0.00,,---,0.00,VWS V14.01,2013-02-18 19:37:00,
2013-02-18 11:38:00,50.0,42.7,30.00,SW,225,0.0,1.3,76,0.00,,---,0.00,VWS V14.01,2013-02-18 19:38:00,
2013-02-18 11:39:00,50.0,42.7,30.00,SSW,202,1.1,2.0,76,0.00,,---,0.00,VWS V14.01,2013-02-18 19:39:00,
2013-02-18 11:40:00,50.0,42.7,30.00,SW,225,1.3,1.3,76,0.00,,---,0.00,VWS V14.01,2013-02-18 19:40:00,
2013-02-18 11:41:00,50.0,42.4,30.00,SW,225,2.5,3.1,75,0.00,,---,0.00,VWS V14.01,2013-02-18 19:41:00,
2013-02-18 11:42:00,50.0,42.0,30.00,West,270,1.6,1.6,74,0.00,,---,0.00,VWS V14.01,2013-02-18 19:42:00,
2013-02-18 11:43:00,50.0,42.0,30.00,SW,225,2.2,2.9,74,0.00,,---,0.00,VWS V14.01,2013-02-18 19:43:00,
2013-02-18 11:44:00,50.0,42.0,30.00,West,270,1.3,3.8,74,0.00,,---,0.00,VWS V14.01,2013-02-18 19:44:00,
2013-02-18 11:45:00,51.3,38.7,29.94,West,270,1.3,1.3,62,0.00,,---,0.00,VWS V14.01,2013-02-18 19:45:00,
2013-02-18 11:46:00,50.0,42.0,30.00,West,270,1.6,1.6,74,0.00,,---,0.00,VWS V14.01,2013-02-18 19:46:00,
2013-02-18 11:47:00,50.2,41.9,30.00,SSW,202,0.0,0.9,73,0.00,,---,0.00,VWS V14.01,2013-02-18 19:47:00,
2013-02-18 11:48:00,50.0,42.0,30.00,SSW,202,0.0,0.0,74,0.00,,---,0.00,VWS V14.01,2013-02-18 19:48:00,
2013-02-18 11:49:00,50.2,41.9,30.00,SSW,202,0.9,1.1,73,0.00,,---,0.00,VWS V14.01,2013-02-18 19:49:00,
2013-02-18 11:50:00,50.2,41.9,30.00,SSW,202,0.0,0.9,73,0.00,,---,0.00,VWS V14.01,2013-02-18 19:50:00,
2013-02-18 11:51:00,50.2,41.9,30.00,WSW,248,0.0,0.0,73,0.00,,---,0.00,VWS V14.01,2013-02-18 19:51:00,
2013-02-18 11:52:00,50.2,41.9,30.00,West,270,1.1,1.1,73,0.00,,---,0.00,VWS V14.01,2013-02-18 19:52:00,
2013-02-18 11:53:00,50.2,41.9,30.00,West,270,1.1,2.5,73,0.00,,---,0.00,VWS V14.01,2013-02-18 19:53:00,
2013-02-18 11:54:00,51.6,40.7,29.97,SSE,158,1.3,2.0,66,0.00,,---,0.00,VWS V14.01,2013-02-18 19:54:00,
2013-02-18 11:55:00,50.2,41.9,30.00,West,270,0.0,1.1,73,0.00,,---,0.00,VWS V14.01,2013-02-18 19:55:00,
2013-02-18 11:56:00,50.2,41.9,30.00,WSW,248,2.0,2.0,73,0.00,,---,0.00,VWS V14.01,2013-02-18 19:56:00,
2013-02-18 11:57:00,50.2,41.9,30.00,NW,315,0.0,1.1,73,0.00,,---,0.00,VWS V14.01,2013-02-18 19:57:00,
2013-02-18 11:58:00,50.2,41.9,30.00,NW,315,1.1,2.5,73,0.00,,---,0.00,VWS V14.01,2013-02-18 19:58:00,
2013-02-18 11:59:00,50.2,41.9,30.00,NW,315,1.1,1.1,73,0.00,,---,0.00,VWS V14.01,2013-02-18 19:59:00,
2013-02-18 12:00:00,50.2,41.9,30.00,NW,315,0.0,1.1,73,0.00,,---,0.00,VWS V14.01,2013-02-18 20:00:00,
2013-02-18 12:01:00,50.2,41.9,30.00,NW,315,0.0,0.0,73,0.00,,---,0.00,VWS V14.01,2013-02-18 20:01:00,
2013-02-18 12:02:00,50.2,41.9,30.00,SSW,202,1.1,2.0,73,0.00,,---,0.00,VWS V14.01,2013-02-18 20:02:00,
2013-02-18 12:03:00,50.2,41.9,30.00,West,270,1.3,1.6,73,0.00,,---,0.00,VWS V14.01,2013-02-18 20:03:00,
2013-02-18 12:04:00,50.2,41.9,30.00,West,270,1.3,1.3,73,0.00,,---,0.00,VWS V14.01,2013-02-18 20:04:00,
2013-02-18 12:05:00,50.2,41.9,30.00,SSW,202,1.1,2.0,73,0.00,,---,0.00,VWS V14.01,2013-02-18 20:05:00,
2013-02-18 12:06:00,50.2,41.9,30.00,SW,225,1.1,1.6,73,0.00,,---,0.00,VWS V14.01,2013-02-18 20:06:00,
2013-02-18 12:07:00,51.3,41.1,30.00,SW,225,1.1,1.6,68,0.00,,---,0.00,VWS V14.01,2013-02-18 20:07:00,
2013-02-18 12:08:00,51.3,41.5,30.00,SW,225,1.3,1.3,69,0.00,,---,0.00,VWS V14.01,2013-02-18 20:08:00,
2013-02-18 12:09:00,51.3,41.5,30.00,West,270,1.3,2.5,69,0.00,,---,0.00,VWS V14.01,2013-02-18 20:09:00,
2013-02-18 12:10:00,51.3,41.1,30.00,SW,225,1.1,1.6,68,0.00,,---,0.00,VWS V14.01,2013-02-18 20:10:00,
2013-02-18 12:11:00,51.3,41.5,30.00,SW,225,1.6,1.6,69,0.00,,---,0.00,VWS V14.01,2013-02-18 20:11:00,
2013-02-18 12:12:00,51.3,40.3,30.00,WNW,292,2.5,3.6,66,0.00,,---,0.00,VWS V14.01,2013-02-18 20:12:00,
2013-02-18 12:13:00,51.3,40.3,30.00,SW,225,1.1,1.6,66,0.00,,---,0.00,VWS V14.01,2013-02-18 20:13:00,
2013-02-18 12:14:00,51.3,41.1,30.00,West,270,3.6,3.6,68,0.00,,---,0.00,VWS V14.01,2013-02-18 20:14:00,
2013-02-18 12:15:00,51.3,40.3,30.00,WNW,292,2.5,3.6,66,0.00,,---,0.00,VWS V14.01,2013-02-18 20:15:00,
2013-02-18 12:16:00,51.3,41.1,30.00,South,180,1.3,2.5,68,0.00,,---,0.00,VWS V14.01,2013-02-18 20:16:00,
2013-02-18 12:17:00,51.4,41.2,30.00,South,180,1.3,2.5,68,0.00,,---,0.00,VWS V14.01,2013-02-18 20:17:00,
2013-02-18 12:18:00,51.3,41.1,30.00,South,180,1.1,1.6,68,0.00,,---,0.00,VWS V14.01,2013-02-18 20:18:00,
2013-02-18 12:19:00,51.4,41.2,30.00,South,180,2.5,2.7,68,0.00,,---,0.00,VWS V14.01,2013-02-18 20:19:00,
2013-02-18 12:20:00,51.4,41.2,30.00,South,180,1.3,2.5,68,0.00,,---,0.00,VWS V14.01,2013-02-18 20:20:00,
2013-02-18 12:21:00,51.4,41.2,29.97,South,180,0.0,1.3,68,0.00,,---,0.00,VWS V14.01,2013-02-18 20:21:00,
2013-02-18 12:22:00,51.4,40.5,29.97,SW,225,0.9,2.7,66,0.00,,---,0.00,VWS V14.01,2013-02-18 20:22:00,
2013-02-18 12:23:00,51.4,40.5,29.97,South,180,1.3,2.2,66,0.00,,---,0.00,VWS V14.01,2013-02-18 20:23:00,
2013-02-18 12:24:00,51.4,40.5,29.97,SSE,158,2.5,2.7,66,0.00,,---,0.00,VWS V14.01,2013-02-18 20:24:00,
2013-02-18 12:25:00,51.4,40.5,29.97,SW,225,0.9,2.7,66,0.00,,---,0.00,VWS V14.01,2013-02-18 20:25:00,
2013-02-18 12:26:00,51.4,40.9,29.97,SW,225,0.0,0.9,67,0.00,,---,0.00,VWS V14.01,2013-02-18 20:26:00,
2013-02-18 12:27:00,51.4,40.9,29.97,South,180,2.0,2.2,67,0.00,,---,0.00,VWS V14.01,2013-02-18 20:27:00,
2013-02-18 12:28:00,51.4,40.9,29.97,South,180,0.0,0.0,67,0.00,,---,0.00,VWS V14.01,2013-02-18 20:28:00,
2013-02-18 12:29:00,51.4,40.9,29.97,South,180,2.2,2.2,67,0.00,,---,0.00,VWS V14.01,2013-02-18 20:29:00,
2013-02-18 12:30:00,51.4,40.9,29.97,South,180,2.0,2.2,67,0.00,,---,0.00,VWS V14.01,2013-02-18 20:30:00,
2013-02-18 12:31:00,51.4,40.9,29.97,SSE,158,3.1,3.1,67,0.00,,---,0.00,VWS V14.01,2013-02-18 20:31:00,
2013-02-18 12:32:00,51.4,40.9,29.97,West,270,0.9,3.1,67,0.00,,---,0.00,VWS V14.01,2013-02-18 20:32:00,
2013-02-18 12:33:00,51.4,40.9,29.97,SW,225,2.2,2.2,67,0.00,,---,0.00,VWS V14.01,2013-02-18 20:33:00,
2013-02-18 12:34:00,51.4,40.9,29.97,West,270,2.9,3.1,67,0.00,,---,0.00,VWS V14.01,2013-02-18 20:34:00,
2013-02-18 12:35:00,51.4,40.9,29.97,West,270,0.9,3.1,67,0.00,,---,0.00,VWS V14.01,2013-02-18 20:35:00,
2013-02-18 12:36:00,51.4,40.9,29.94,SSW,202,1.1,1.3,67,0.00,,---,0.00,VWS V14.01,2013-02-18 20:36:00,
2013-02-18 12:37:00,51.4,40.9,29.94,West,270,0.0,0.0,67,0.00,,---,0.00,VWS V14.01,2013-02-18 20:37:00,
2013-02-18 12:38:00,51.4,40.9,29.94,WNW,292,0.0,0.0,67,0.00,,---,0.00,VWS V14.01,2013-02-18 20:38:00,
2013-02-18 12:39:00,51.4,40.9,29.94,WNW,292,0.0,0.0,67,0.00,,---,0.00,VWS V14.01,2013-02-18 20:39:00,
2013-02-18 12:40:00,51.4,40.9,29.94,SW,225,0.0,0.0,67,0.00,,---,0.00,VWS V14.01,2013-02-18 20:40:00,
2013-02-18 12:41:00,51.8,40.8,29.94,SSW,202,0.9,1.3,66,0.00,,---,0.00,VWS V14.01,2013-02-18 20:41:00,
2013-02-18 12:42:00,51.3,38.7,29.94,West,270,1.3,1.3,62,0.00,,---,0.00,VWS V14.01,2013-02-18 20:42:00,
2013-02-18 12:43:00,51.8,40.8,29.94,SW,225,2.2,2.2,66,0.00,,---,0.00,VWS V14.01,2013-02-18 20:43:00,
2013-02-18 12:44:00,51.3,38.7,29.94,West,270,0.9,2.2,62,0.00,,---,0.00,VWS V14.01,2013-02-18 20:44:00,
2013-02-18 12:45:00,51.3,38.7,29.94,West,270,1.3,1.3,62,0.00,,---,0.00,VWS V14.01,2013-02-18 20:45:00,
2013-02-18 12:46:00,51.6,40.7,29.94,West,270,2.0,2.0,66,0.00,,---,0.00,VWS V14.01,2013-02-18 20:46:00,
2013-02-18 12:47:00,51.6,41.0,29.94,SW,225,2.2,2.9,67,0.00,,---,0.00,VWS V14.01,2013-02-18 20:47:00,
2013-02-18 12:48:00,51.6,40.7,29.94,SW,225,1.3,2.9,66,0.00,,---,0.00,VWS V14.01,2013-02-18 20:48:00,
2013-02-18 12:49:00,51.6,40.7,29.94,WNW,292,1.6,2.9,66,0.00,,---,0.00,VWS V14.01,2013-02-18 20:49:00,
2013-02-18 12:50:00,51.6,41.0,29.94,SW,225,2.2,2.9,67,0.00,,---,0.00,VWS V14.01,2013-02-18 20:50:00,
2013-02-18 12:51:00,51.6,41.0,29.97,West,270,2.7,2.7,67,0.00,,---,0.00,VWS V14.01,2013-02-18 20:51:00,
2013-02-18 12:52:00,51.6,40.2,29.97,SE,135,2.9,3.1,65,0.00,,---,0.00,VWS V14.01,2013-02-18 20:52:00,
2013-02-18 12:53:00,51.6,40.7,29.97,SW,225,1.6,1.6,66,0.00,,---,0.00,VWS V14.01,2013-02-18 20:53:00,
2013-02-18 12:54:00,51.6,40.7,29.97,SSE,158,1.3,2.0,66,0.00,,---,0.00,VWS V14.01,2013-02-18 20:54:00,
2013-02-18 12:55:00,51.6,40.2,29.97,SE,135,2.9,3.1,65,0.00,,---,0.00,VWS V14.01,2013-02-18 20:55:00,
2013-02-18 12:56:00,51.4,39.3,29.97,SE,135,1.6,3.1,63,0.00,,---,0.00,VWS V14.01,2013-02-18 20:56:00,
2013-02-18 12:57:00,51.3,38.3,29.97,SSW,202,0.0,2.0,61,0.00,,---,0.00,VWS V14.01,2013-02-18 20:57:00,
2013-02-18 12:58:00,51.3,38.7,29.97,SSE,158,2.0,3.1,62,0.00,,---,0.00,VWS V14.01,2013-02-18 20:58:00,
2013-02-18 12:59:00,51.1,36.4,29.97,SSW,202,1.6,2.7,57,0.00,,---,0.00,VWS V14.01,2013-02-18 20:59:00,
2013-02-18 13:00:00,51.3,38.3,29.97,South,180,1.1,2.0,61,0.00,,---,0.00,VWS V14.01,2013-02-18 21:00:00,
2013-02-18 13:02:00,51.1,38.1,29.97,SE,135,3.6,3.6,61,0.00,,---,0.00,VWS V14.01,2013-02-18 21:02:00,
2013-02-18 13:03:00,51.3,38.7,29.97,SW,225,1.1,3.4,62,0.00,,---,0.00,VWS V14.01,2013-02-18 21:03:00,
2013-02-18 13:04:00,51.1,38.1,29.97,SE,135,3.6,3.6,61,0.00,,---,0.00,VWS V14.01,2013-02-18 21:04:00,
2013-02-18 13:05:00,51.1,38.1,29.97,SE,135,3.6,3.6,61,0.00,,---,0.00,VWS V14.01,2013-02-18 21:05:00,
2013-02-18 13:06:00,51.1,38.1,29.97,SE,135,1.3,3.6,61,0.00,,---,0.00,VWS V14.01,2013-02-18 21:06:00,
2013-02-18 13:07:00,51.1,38.1,29.97,WSW,248,1.3,2.0,61,0.00,,---,0.00,VWS V14.01,2013-02-18 21:07:00,
2013-02-18 13:08:00,51.1,38.1,29.97,SW,225,1.6,2.7,61,0.00,,---,0.00,VWS V14.01,2013-02-18 21:08:00,
2013-02-18 13:09:00,51.1,38.1,29.97,SW,225,1.6,2.2,61,0.00,,---,0.00,VWS V14.01,2013-02-18 21:09:00,
2013-02-18 13:10:00,51.1,38.1,29.97,WSW,248,1.3,2.0,61,0.00,,---,0.00,VWS V14.01,2013-02-18 21:10:00,
2013-02-18 13:11:00,51.1,38.1,29.97,SW,225,0.0,1.3,61,0.00,,---,0.00,VWS V14.01,2013-02-18 21:11:00,
2013-02-18 13:12:00,51.1,38.1,29.97,West,270,1.6,2.5,61,0.00,,---,0.00,VWS V14.01,2013-02-18 21:12:00,
2013-02-18 13:13:00,51.6,38.6,29.97,West,270,1.1,2.0,61,0.00,,---,0.00,VWS V14.01,2013-02-18 21:13:00,
2013-02-18 13:14:00,51.1,38.1,29.97,WSW,248,1.3,3.1,61,0.00,,---,0.00,VWS V14.01,2013-02-18 21:14:00,
2013-02-18 13:15:00,51.1,38.1,29.97,WNW,292,2.0,2.5,61,0.00,,---,0.00,VWS V14.01,2013-02-18 21:15:00,
2013-02-18 13:16:00,51.1,38.1,29.97,WSW,248,2.7,2.7,61,0.00,,---,0.00,VWS V14.01,2013-02-18 21:16:00,
2013-02-18 13:17:00,51.1,38.1,29.97,West,270,1.6,2.2,61,0.00,,---,0.00,VWS V14.01,2013-02-18 21:17:00,
2013-02-18 13:18:00,51.1,38.1,29.97,WSW,248,1.3,1.6,61,0.00,,---,0.00,VWS V14.01,2013-02-18 21:18:00,
2013-02-18 13:19:00,51.1,38.1,29.97,WSW,248,1.3,3.4,61,0.00,,---,0.00,VWS V14.01,2013-02-18 21:19:00,
2013-02-18 13:20:00,51.1,38.1,29.97,West,270,1.6,2.2,61,0.00,,---,0.00,VWS V14.01,2013-02-18 21:20:00,
2013-02-18 13:21:00,50.9,39.2,29.97,WSW,248,2.9,2.9,64,0.00,,---,0.00,VWS V14.01,2013-02-18 21:21:00,
2013-02-18 13:22:00,50.9,39.6,29.97,West,270,2.9,2.9,65,0.00,,---,0.00,VWS V14.01,2013-02-18 21:22:00,
2013-02-18 13:23:00,50.9,39.6,29.97,WSW,248,2.7,2.7,65,0.00,,---,0.00,VWS V14.01,2013-02-18 21:23:00,
2013-02-18 13:24:00,50.9,39.6,29.97,West,270,0.9,2.7,65,0.00,,---,0.00,VWS V14.01,2013-02-18 21:24:00,
2013-02-18 13:25:00,50.9,39.6,29.97,West,270,2.9,2.9,65,0.00,,---,0.00,VWS V14.01,2013-02-18 21:25:00,
2013-02-18 13:26:00,50.9,39.6,29.97,SW,225,1.1,2.9,65,0.00,,---,0.00,VWS V14.01,2013-02-18 21:26:00,
2013-02-18 13:27:00,50.9,40.0,29.97,West,270,0.0,0.0,66,0.00,,---,0.00,VWS V14.01,2013-02-18 21:27:00,
2013-02-18 13:28:00,50.9,40.0,29.97,West,270,1.3,2.9,66,0.00,,---,0.00,VWS V14.01,2013-02-18 21:28:00,
2013-02-18 13:29:00,50.9,40.0,29.97,West,270,0.0,2.0,66,0.00,,---,0.00,VWS V14.01,2013-02-18 21:29:00,
2013-02-18 13:30:00,50.9,40.0,29.97,West,270,0.0,0.0,66,0.00,,---,0.00,VWS V14.01,2013-02-18 21:30:00,
2013-02-18 13:31:00,50.7,39.4,29.97,West,270,0.0,0.0,65,0.00,,---,0.00,VWS V14.01,2013-02-18 21:31:00,
2013-02-18 13:32:00,50.9,39.2,29.97,West,270,0.0,0.0,64,0.00,,---,0.00,VWS V14.01,2013-02-18 21:32:00,
2013-02-18 13:33:00,50.7,39.4,29.97,West,270,0.0,0.0,65,0.00,,---,0.00,VWS V14.01,2013-02-18 21:33:00,
2013-02-18 13:34:00,50.9,39.6,29.97,NW,315,0.0,0.9,65,0.00,,---,0.00,VWS V14.01,2013-02-18 21:34:00,
2013-02-18 13:35:00,50.9,39.2,29.97,West,270,0.0,0.0,64,0.00,,---,0.00,VWS V14.01,2013-02-18 21:35:00,
2013-02-18 13:36:00,50.9,39.2,29.97,South,180,1.1,1.1,64,0.00,,---,0.00,VWS V14.01,2013-02-18 21:36:00,
2013-02-18 13:37:00,51.1,38.5,29.97,NW,315,0.0,1.1,62,0.00,,---,0.00,VWS V14.01,2013-02-18 21:37:00,
2013-02-18 13:38:00,50.9,39.2,29.97,SW,225,2.0,2.0,64,0.00,,---,0.00,VWS V14.01,2013-02-18 21:38:00,
2013-02-18 13:39:00,51.1,38.5,29.97,SW,225,0.9,2.0,62,0.00,,---,0.00,VWS V14.01,2013-02-18 21:39:00,
2013-02-18 13:40:00,51.1,38.5,29.97,NW,315,0.0,1.1,62,0.00,,---,0.00,VWS V14.01,2013-02-18 21:40:00,
2013-02-18 13:41:00,51.1,38.5,29.97,NW,315,0.0,0.0,62,0.00,,---,0.00,VWS V14.01,2013-02-18 21:41:00,
2013-02-18 13:42:00,51.1,38.5,29.97,SSE,158,1.3,2.5,62,0.00,,---,0.00,VWS V14.01,2013-02-18 21:42:00,
2013-02-18 13:43:00,51.1,38.5,29.97,SSE,158,2.5,2.5,62,0.00,,---,0.00,VWS V14.01,2013-02-18 21:43:00,
2013-02-18 13:44:00,51.1,38.5,29.97,SSE,158,2.5,2.5,62,0.00,,---,0.00,VWS V14.01,2013-02-18 21:44:00,
2013-02-18 13:45:00,51.1,38.5,29.97,SSE,158,1.3,2.5,62,0.00,,---,0.00,VWS V14.01,2013-02-18 21:45:00,
2013-02-18 13:46:00,51.1,38.5,29.97,SE,135,3.6,3.6,62,0.00,,---,0.00,VWS V14.01,2013-02-18 21:46:00,
2013-02-18 13:47:00,51.1,38.5,29.97,SW,225,0.9,0.9,62,0.00,,---,0.00,VWS V14.01,2013-02-18 21:47:00,
2013-02-18 13:48:00,51.1,38.5,29.97,SE,135,0.0,2.0,62,0.00,,---,0.00,VWS V14.01,2013-02-18 21:48:00,
2013-02-18 13:49:00,51.1,38.5,29.97,South,180,0.0,0.0,62,0.00,,---,0.00,VWS V14.01,2013-02-18 21:49:00,
2013-02-18 13:50:00,51.1,38.5,29.97,SW,225,0.9,0.9,62,0.00,,---,0.00,VWS V14.01,2013-02-18 21:50:00,
2013-02-18 13:51:00,51.1,38.5,29.97,SW,225,0.9,1.6,62,0.00,,---,0.00,VWS V14.01,2013-02-18 21:51:00,
2013-02-18 13:52:00,51.4,38.5,29.97,WSW,248,2.0,2.0,61,0.00,,---,0.00,VWS V14.01,2013-02-18 21:52:00,
2013-02-18 13:53:00,51.1,38.5,29.97,West,270,1.3,1.3,62,0.00,,---,0.00,VWS V14.01,2013-02-18 21:53:00,
2013-02-18 13:54:00,51.1,38.5,29.97,West,270,0.0,1.3,62,0.00,,---,0.00,VWS V14.01,2013-02-18 21:54:00,
2013-02-18 13:55:00,51.4,38.5,29.97,WSW,248,2.0,2.0,61,0.00,,---,0.00,VWS V14.01,2013-02-18 21:55:00,
2013-02-18 13:56:00,51.3,37.0,29.97,WSW,248,1.3,2.9,58,0.00,,---,0.00,VWS V14.01,2013-02-18 21:56:00,
2013-02-18 13:57:00,51.3,37.4,29.97,SW,225,0.0,0.0,59,0.00,,---,0.00,VWS V14.01,2013-02-18 21:57:00,
2013-02-18 13:58:00,51.1,36.4,29.97,South,180,1.1,1.1,57,0.00,,---,0.00,VWS V14.01,2013-02-18 21:58:00,
2013-02-18 13:59:00,51.1,36.4,29.97,SSW,202,1.6,2.7,57,0.00,,---,0.00,VWS V14.01,2013-02-18 21:59:00,
2013-02-18 14:00:00,51.1,36.4,29.97,South,180,0.0,2.0,57,0.00,,---,0.00,VWS V14.01,2013-02-18 22:00:00,
2013-02-18 14:01:00,50.5,38.0,29.97,West,270,0.9,0.9,62,0.00,,---,0.00,VWS V14.01,2013-02-18 22:01:00,
2013-02-18 14:02:00,51.4,37.6,29.97,West,270,2.5,2.5,59,0.00,,---,0.00,VWS V14.01,2013-02-18 22:02:00,
2013-02-18 14:03:00,51.4,38.0,29.97,WSW,248,0.9,2.0,60,0.00,,---,0.00,VWS V14.01,2013-02-18 22:03:00,
2013-02-18 14:04:00,51.4,38.0,29.97,SSW,202,0.0,0.9,60,0.00,,---,0.00,VWS V14.01,2013-02-18 22:04:00,
2013-02-18 14:05:00,51.4,37.6,29.97,West,270,2.5,2.7,59,0.00,,---,0.00,VWS V14.01,2013-02-18 22:05:00,
2013-02-18 14:06:00,51.3,37.4,29.97,West,270,1.3,2.5,59,0.00,,---,0.00,VWS V14.01,2013-02-18 22:06:00,
2013-02-18 14:07:00,51.4,38.5,29.97,West,270,0.0,0.0,61,0.00,,---,0.00,VWS V14.01,2013-02-18 22:07:00,
2013-02-18 14:08:00,51.4,38.0,29.97,NW,315,0.9,2.0,60,0.00,,---,0.00,VWS V14.01,2013-02-18 22:08:00,
2013-02-18 14:09:00,51.4,38.5,29.97,West,270,0.0,0.9,61,0.00,,---,0.00,VWS V14.01,2013-02-18 22:09:00,
2013-02-18 14:10:00,51.4,38.5,29.97,West,270,0.0,1.1,61,0.00,,---,0.00,VWS V14.01,2013-02-18 22:10:00,
2013-02-18 14:11:00,51.6,38.6,29.97,West,270,0.9,1.6,61,0.00,,---,0.00,VWS V14.01,2013-02-18 22:11:00,
2013-02-18 14:12:00,51.4,38.5,29.97,West,270,1.6,1.6,61,0.00,,---,0.00,VWS V14.01,2013-02-18 22:12:00,
2013-02-18 14:13:00,51.6,39.0,29.97,WNW,292,2.0,2.0,62,0.00,,---,0.00,VWS V14.01,2013-02-18 22:13:00,
2013-02-18 14:14:00,51.6,39.0,29.97,WNW,292,1.6,1.6,62,0.00,,---,0.00,VWS V14.01,2013-02-18 22:14:00,
2013-02-18 14:15:00,51.6,39.0,29.97,WNW,292,2.0,2.0,62,0.00,,---,0.00,VWS V14.01,2013-02-18 22:15:00,
2013-02-18 14:16:00,51.6,39.0,29.97,WNW,292,2.2,2.7,62,0.00,,---,0.00,VWS V14.01,2013-02-18 22:16:00,
2013-02-18 14:17:00,51.6,39.0,29.97,West,270,1.1,2.2,62,0.00,,---,0.00,VWS V14.01,2013-02-18 22:17:00,
2013-02-18 14:18:00,51.6,39.0,29.97,WSW,248,1.3,2.5,62,0.00,,---,0.00,VWS V14.01,2013-02-18 22:18:00,
2013-02-18 14:19:00,51.6,39.0,29.97,South,180,1.1,1.1,62,0.00,,---,0.00,VWS V14.01,2013-02-18 22:19:00,
2013-02-18 14:20:00,51.6,39.0,29.97,WSW,248,2.5,2.5,62,0.00,,---,0.00,VWS V14.01,2013-02-18 22:20:00,
2013-02-18 14:21:00,51.6,39.0,29.97,West,270,2.0,2.5,62,0.00,,---,0.00,VWS V14.01,2013-02-18 22:21:00,
2013-02-18 14:22:00,51.6,39.0,29.97,West,270,2.2,2.7,62,0.00,,---,0.00,VWS V14.01,2013-02-18 22:22:00,
2013-02-18 14:23:00,51.6,39.0,29.97,West,270,2.5,2.5,62,0.00,,---,0.00,VWS V14.01,2013-02-18 22:23:00,
2013-02-18 14:24:00,51.6,39.0,29.97,West,270,0.0,1.1,62,0.00,,---,0.00,VWS V14.01,2013-02-18 22:24:00,
2013-02-18 14:25:00,51.6,39.0,29.97,WNW,292,2.7,2.7,62,0.00,,---,0.00,VWS V14.01,2013-02-18 22:25:00,
2013-02-18 14:26:00,51.6,39.0,29.97,WNW,292,2.7,2.7,62,0.00,,---,0.00,VWS V14.01,2013-02-18 22:26:00,
2013-02-18 14:27:00,51.6,39.0,29.97,WNW,292,0.9,2.7,62,0.00,,---,0.00,VWS V14.01,2013-02-18 22:27:00,
2013-02-18 14:28:00,51.4,38.5,29.97,West,270,1.3,1.3,61,0.00,,---,0.00,VWS V14.01,2013-02-18 22:28:00,
2013-02-18 14:29:00,51.4,38.0,29.97,WNW,292,3.1,3.1,60,0.00,,---,0.00,VWS V14.01,2013-02-18 22:29:00,
2013-02-18 14:30:00,51.3,37.9,29.97,West,270,1.1,3.1,60,0.00,,---,0.00,VWS V14.01,2013-02-18 22:30:00,
2013-02-18 14:31:00,51.4,38.5,29.97,West,270,1.3,1.3,61,0.00,,---,0.00,VWS V14.01,2013-02-18 22:31:00,
2013-02-18 14:32:00,51.4,38.5,29.97,West,270,2.0,2.0,61,0.00,,---,0.00,VWS V14.01,2013-02-18 22:32:00,
2013-02-18 14:33:00,51.3,37.4,29.97,SSE,158,2.0,2.0,59,0.00,,---,0.00,VWS V14.01,2013-02-18 22:33:00,
2013-02-18 14:34:00,51.4,38.5,29.97,SW,225,2.7,2.7,61,0.00,,---,0.00,VWS V14.01,2013-02-18 22:34:00,
2013-02-18 14:35:00,51.3,37.4,29.97,South,180,1.3,2.7,59,0.00,,---,0.00,VWS V14.01,2013-02-18 22:35:00,
2013-02-18 14:36:00,50.9,37.1,29.94,SSW,202,0.0,2.5,59,0.00,,---,0.00,VWS V14.01,2013-02-18 22:36:00,
2013-02-18 14:37:00,50.9,37.1,29.94,SW,225,0.9,2.2,59,0.00,,---,0.00,VWS V14.01,2013-02-18 22:37:00,
2013-02-18 14:38:00,50.7,37.8,29.94,South,180,2.7,2.7,61,0.00,,---,0.00,VWS V14.01,2013-02-18 22:38:00,
2013-02-18 14:39:00,50.9,37.5,29.94,SSE,158,2.0,2.0,60,0.00,,---,0.00,VWS V14.01,2013-02-18 22:39:00,
2013-02-18 14:40:00,50.7,37.8,29.94,South,180,2.7,2.7,61,0.00,,---,0.00,VWS V14.01,2013-02-18 22:40:00,
2013-02-18 14:41:00,50.7,37.8,29.94,South,180,2.9,2.9,61,0.00,,---,0.00,VWS V14.01,2013-02-18 22:41:00,
2013-02-18 14:42:00,50.7,37.8,29.94,South,180,1.1,2.9,61,0.00,,---,0.00,VWS V14.01,2013-02-18 22:42:00,
2013-02-18 14:43:00,50.5,37.6,29.94,SSE,158,1.6,2.0,61,0.00,,---,0.00,VWS V14.01,2013-02-18 22:43:00,
2013-02-18 14:44:00,50.7,37.8,29.94,SE,135,2.5,3.8,61,0.00,,---,0.00,VWS V14.01,2013-02-18 22:44:00,
2013-02-18 14:45:00,50.5,37.6,29.94,SSE,158,2.0,3.1,61,0.00,,---,0.00,VWS V14.01,2013-02-18 22:45:00,
2013-02-18 14:46:00,50.5,37.6,29.94,SSE,158,1.6,2.0,61,0.00,,---,0.00,VWS V14.01,2013-02-18 22:46:00,
2013-02-18 14:47:00,50.5,38.0,29.94,SSE,158,0.9,1.6,62,0.00,,---,0.00,VWS V14.01,2013-02-18 22:47:00,
2013-02-18 14:48:00,50.5,38.0,29.94,WSW,248,1.3,1.3,62,0.00,,---,0.00,VWS V14.01,2013-02-18 22:48:00,
2013-02-18 14:49:00,50.5,38.0,29.94,NW,315,1.3,2.2,62,0.00,,---,0.00,VWS V14.01,2013-02-18 22:49:00,
2013-02-18 14:50:00,50.5,38.0,29.94,WSW,248,1.3,1.3,62,0.00,,---,0.00,VWS V14.01,2013-02-18 22:50:00,
2013-02-18 14:51:00,50.5,38.0,29.97,West,270,0.0,1.3,62,0.00,,---,0.00,VWS V14.01,2013-02-18 22:51:00,
2013-02-18 14:52:00,50.5,38.0,29.97,West,270,0.9,1.3,62,0.00,,---,0.00,VWS V14.01,2013-02-18 22:52:00,
2013-02-18 14:53:00,50.5,38.0,29.97,West,270,0.0,0.0,62,0.00,,---,0.00,VWS V14.01,2013-02-18 22:53:00,
2013-02-18 14:54:00,50.5,38.0,29.97,West,270,1.1,1.3,62,0.00,,---,0.00,VWS V14.01,2013-02-18 22:54:00,
2013-02-18 14:55:00,50.5,38.0,29.97,West,270,0.0,1.1,62,0.00,,---,0.00,VWS V14.01,2013-02-18 22:55:00,
2013-02-18 14:56:00,50.5,38.0,29.97,West,270,0.0,0.0,62,0.00,,---,0.00,VWS V14.01,2013-02-18 22:56:00,
2013-02-18 14:57:00,50.5,38.0,29.97,West,270,0.0,0.0,62,0.00,,---,0.00,VWS V14.01,2013-02-18 22:57:00,
2013-02-18 14:58:00,50.5,38.0,29.97,SE,135,0.0,0.9,62,0.00,,---,0.00,VWS V14.01,2013-02-18 22:58:00,
2013-02-18 14:59:00,50.5,38.0,29.97,SW,225,1.3,1.3,62,0.00,,---,0.00,VWS V14.01,2013-02-18 22:59:00,
2013-02-18 15:00:00,50.5,38.0,29.97,SE,135,0.9,3.1,62,0.00,,---,0.00,VWS V14.01,2013-02-18 23:00:00,
2013-02-18 15:01:00,50.5,38.0,29.97,West,270,0.9,0.9,62,0.00,,---,0.00,VWS V14.01,2013-02-18 23:01:00,
2013-02-18 15:02:00,50.5,38.4,29.97,WNW,292,0.0,1.6,63,0.00,,---,0.00,VWS V14.01,2013-02-18 23:02:00,
2013-02-18 15:03:00,50.5,38.4,29.97,WNW,292,2.0,2.0,63,0.00,,---,0.00,VWS V14.01,2013-02-18 23:03:00,
2013-02-18 15:04:00,50.5,38.4,29.97,WNW,292,0.0,0.0,63,0.00,,---,0.00,VWS V14.01,2013-02-18 23:04:00,
2013-02-18 15:05:00,50.5,38.4,29.97,West,270,0.0,2.0,63,0.00,,---,0.00,VWS V14.01,2013-02-18 23:05:00,
2013-02-18 15:06:00,50.5,38.4,29.97,West,270,0.0,0.0,63,0.00,,---,0.00,VWS V14.01,2013-02-18 23:06:00,
2013-02-18 15:07:00,50.5,38.4,29.97,West,270,1.6,1.6,63,0.00,,---,0.00,VWS V14.01,2013-02-18 23:07:00,
2013-02-18 15:08:00,50.0,37.5,29.97,WSW,248,0.0,0.0,62,0.00,,---,0.00,VWS V14.01,2013-02-18 23:08:00,
2013-02-18 15:09:00,50.0,37.5,29.97,WSW,248,0.0,2.2,62,0.00,,---,0.00,VWS V14.01,2013-02-18 23:09:00,
2013-02-18 15:10:00,50.0,37.5,29.97,WSW,248,0.0,0.0,62,0.00,,---,0.00,VWS V14.01,2013-02-18 23:10:00,
2013-02-18 15:11:00,50.0,37.5,29.97,West,270,1.1,1.1,62,0.00,,---,0.00,VWS V14.01,2013-02-18 23:11:00,
2013-02-18 15:12:00,50.0,37.9,29.97,West,270,0.0,1.1,63,0.00,,---,0.00,VWS V14.01,2013-02-18 23:12:00,
2013-02-18 15:13:00,50.0,38.3,29.97,West,270,1.3,1.3,64,0.00,,---,0.00,VWS V14.01,2013-02-18 23:13:00,
2013-02-18 15:14:00,50.0,37.9,29.97,West,270,1.3,1.3,63,0.00,,---,0.00,VWS V14.01,2013-02-18 23:14:00,
2013-02-18 15:15:00,50.0,38.3,29.97,West,270,1.1,1.3,64,0.00,,---,0.00,VWS V14.01,2013-02-18 23:15:00,
2013-02-18 15:16:00,50.0,38.3,29.97,West,270,0.9,1.1,64,0.00,,---,0.00,VWS V14.01,2013-02-18 23:16:00,
2013-02-18 15:17:00,50.0,38.3,29.97,West,270,1.1,2.0,64,0.00,,---,0.00,VWS V14.01,2013-02-18 23:17:00,
2013-02-18 15:18:00,50.0,38.3,29.97,SE,135,2.7,3.4,64,0.00,,---,0.00,VWS V14.01,2013-02-18 23:18:00,
2013-02-18 15:19:00,49.8,38.2,29.97,South,180,2.2,2.2,64,0.00,,---,0.00,VWS V14.01,2013-02-18 23:19:00,
2013-02-18 15:20:00,50.0,38.3,29.97,SE,135,3.4,3.4,64,0.00,,---,0.00,VWS V14.01,2013-02-18 23:20:00,
2013-02-18 15:21:00,50.0,38.3,29.97,SSE,158,2.7,3.4,64,0.00,,---,0.00,VWS V14.01,2013-02-18 23:21:00,
2013-02-18 15:22:00,50.0,38.3,29.97,SE,135,2.5,2.9,64,0.00,,---,0.00,VWS V14.01,2013-02-18 23:22:00,
2013-02-18 15:23:00,50.0,38.3,29.97,WSW,248,1.3,1.3,64,0.00,,---,0.00,VWS V14.01,2013-02-18 23:23:00,
2013-02-18 15:24:00,50.0,38.3,29.97,SE,135,0.0,2.5,64,0.00,,---,0.00,VWS V14.01,2013-02-18 23:24:00,
2013-02-18 15:25:00,50.0,38.3,29.97,WSW,248,1.3,1.6,64,0.00,,---,0.00,VWS V14.01,2013-02-18 23:25:00,
2013-02-18 15:26:00,50.0,38.3,29.97,WSW,248,0.0,1.3,64,0.00,,---,0.00,VWS V14.01,2013-02-18 23:26:00,
2013-02-18 15:27:00,50.0,38.3,29.97,WSW,248,0.0,0.0,64,0.00,,---,0.00,VWS V14.01,2013-02-18 23:27:00,
2013-02-18 15:28:00,50.0,38.3,29.97,NW,315,1.1,1.1,64,0.00,,---,0.00,VWS V14.01,2013-02-18 23:28:00,
2013-02-18 15:29:00,50.0,38.3,29.97,West,270,1.1,1.1,64,0.00,,---,0.00,VWS V14.01,2013-02-18 23:29:00,
2013-02-18 15:30:00,50.0,38.3,29.97,NW,315,1.1,1.1,64,0.00,,---,0.00,VWS V14.01,2013-02-18 23:30:00,
2013-02-18 15:31:00,50.0,38.3,29.97,NW,315,0.0,1.1,64,0.00,,---,0.00,VWS V14.01,2013-02-18 23:31:00,
2013-02-18 15:32:00,50.0,38.3,29.97,NW,315,0.0,0.0,64,0.00,,---,0.00,VWS V14.01,2013-02-18 23:32:00,
2013-02-18 15:33:00,50.2,37.7,29.97,North,0,2.7,2.7,62,0.00,,---,0.00,VWS V14.01,2013-02-18 23:33:00,
2013-02-18 15:34:00,50.0,38.3,29.97,WSW,248,0.0,0.0,64,0.00,,---,0.00,VWS V14.01,2013-02-18 23:34:00,
2013-02-18 15:35:00,50.2,37.7,29.97,North,0,2.7,2.7,62,0.00,,---,0.00,VWS V14.01,2013-02-18 23:35:00,
2013-02-18 15:36:00,50.2,37.7,29.94,NNW,338,0.0,2.7,62,0.00,,---,0.00,VWS V14.01,2013-02-18 23:36:00,
2013-02-18 15:37:00,50.2,37.7,29.94,NW,315,0.0,0.0,62,0.00,,---,0.00,VWS V14.01,2013-02-18 23:37:00,
2013-02-18 15:38:00,50.2,37.3,29.94,WNW,292,0.9,2.0,61,0.00,,---,0.00,VWS V14.01,2013-02-18 23:38:00,
2013-02-18 15:39:00,50.2,37.7,29.94,SE,135,1.3,3.6,62,0.00,,---,0.00,VWS V14.01,2013-02-18 23:39:00,
2013-02-18 15:40:00,50.2,37.3,29.94,SE,135,2.0,2.2,61,0.00,,---,0.00,VWS V14.01,2013-02-18 23:40:00,
2013-02-18 15:41:00,50.2,37.3,29.94,NW,315,2.0,2.2,61,0.00,,---,0.00,VWS V14.01,2013-02-18 23:41:00,
2013-02-18 15:42:00,50.2,37.7,29.94,NW,315,1.1,2.7,62,0.00,,---,0.00,VWS V14.01,2013-02-18 23:42:00,
2013-02-18 15:43:00,50.2,37.3,29.94,SE,135,2.9,4.3,61,0.00,,---,0.00,VWS V14.01,2013-02-18 23:43:00,
2013-02-18 15:44:00,50.2,37.7,29.94,South,180,1.6,1.6,62,0.00,,---,0.00,VWS V14.01,2013-02-18 23:44:00,
2013-02-18 15:45:00,50.2,37.7,29.94,SE,135,4.3,4.3,62,0.00,,---,0.00,VWS V14.01,2013-02-18 23:45:00,
2013-02-18 15:46:00,50.2,37.3,29.94,South,180,2.9,4.3,61,0.00,,---,0.00,VWS V14.01,2013-02-18 23:46:00,
2013-02-18 15:47:00,50.2,36.8,29.94,SE,135,4.0,4.0,60,0.00,,---,0.00,VWS V14.01,2013-02-18 23:47:00,
2013-02-18 15:48:00,50.0,36.7,29.94,SE,135,2.5,2.7,60,0.00,,---,0.00,VWS V14.01,2013-02-18 23:48:00,
2013-02-18 15:49:00,50.0,36.7,29.94,NW,315,2.7,2.7,60,0.00,,---,0.00,VWS V14.01,2013-02-18 23:49:00,
2013-02-18 15:50:00,50.0,36.7,29.94,NW,315,2.7,2.7,60,0.00,,---,0.00,VWS V14.01,2013-02-18 23:50:00,
2013-02-18 15:51:00,50.0,36.7,29.94,SSE,158,2.9,3.1,60,0.00,,---,0.00,VWS V14.01,2013-02-18 23:51:00,
2013-02-18 15:52:00,49.8,36.5,29.94,SW,225,1.6,4.0,60,0.00,,---,0.00,VWS V14.01,2013-02-18 23:52:00,
2013-02-18 15:53:00,49.8,36.1,29.94,SE,135,2.7,2.7,59,0.00,,---,0.00,VWS V14.01,2013-02-18 23:53:00,
2013-02-18 15:54:00,49.8,36.1,29.94,South,180,1.3,3.1,59,0.00,,---,0.00,VWS V14.01,2013-02-18 23:54:00,
2013-02-18 15:55:00,49.8,36.1,29.94,SE,135,2.7,2.7,59,0.00,,---,0.00,VWS V14.01,2013-02-18 23:55:00,
2013-02-18 15:56:00,49.8,36.1,29.94,SE,135,2.7,2.7,59,0.00,,---,0.00,VWS V14.01,2013-02-18 23:56:00,
2013-02-18 15:57:00,49.8,36.1,29.94,SE,135,4.0,4.0,59,0.00,,---,0.00,VWS V14.01,2013-02-18 23:57:00,
2013-02-18 15:58:00,49.6,35.9,29.94,SE,135,2.2,2.2,59,0.00,,---,0.00,VWS V14.01,2013-02-18 23:58:00,
2013-02-18 15:59:00,49.6,35.9,29.94,South,180,2.9,2.9,59,0.00,,---,0.00,VWS V14.01,2013-02-18 23:59:00,
2013-02-18 16:00:00,49.6,35.9,29.94,SE,135,2.2,3.6,59,0.00,,---,0.00,VWS V14.01,2013-02-19 00:00:00,
2013-02-18 16:01:00,49.6,35.9,29.94,South,180,1.6,3.8,59,0.00,,---,0.00,VWS V14.01,2013-02-19 00:01:00,
2013-02-18 16:02:00,49.6,35.9,29.94,ESE,112,3.1,3.1,59,0.00,,---,0.00,VWS V14.01,2013-02-19 00:02:00,
2013-02-18 16:03:00,49.6,35.9,29.94,SE,135,2.0,2.7,59,0.00,,---,0.00,VWS V14.01,2013-02-19 00:03:00,
2013-02-18 16:04:00,49.6,35.9,29.94,SE,135,2.0,4.3,59,0.00,,---,0.00,VWS V14.01,2013-02-19 00:04:00,
2013-02-18 16:05:00,47.3,34.1,29.94,West,270,1.6,1.6,60,0.00,,---,0.00,VWS V14.01,2013-02-19 00:05:00,
2013-02-18 16:06:00,49.6,35.9,29.94,SE,135,2.9,2.9,59,0.00,,---,0.00,VWS V14.01,2013-02-19 00:06:00,
2013-02-18 16:07:00,49.6,35.9,29.97,SE,135,3.8,5.8,59,0.00,,---,0.00,VWS V14.01,2013-02-19 00:07:00,
2013-02-18 16:08:00,49.1,34.5,29.97,SSE,158,1.3,2.0,57,0.00,,---,0.00,VWS V14.01,2013-02-19 00:08:00,
2013-02-18 16:09:00,49.1,34.5,29.97,SSE,158,2.0,3.1,57,0.00,,---,0.00,VWS V14.01,2013-02-19 00:09:00,
2013-02-18 16:10:00,49.1,34.5,29.97,SE,135,2.0,2.0,57,0.00,,---,0.00,VWS V14.01,2013-02-19 00:10:00,
2013-02-18 16:11:00,48.9,33.9,29.97,SSE,158,0.0,2.0,56,0.00,,---,0.00,VWS V14.01,2013-02-19 00:11:00,
2013-02-18 16:12:00,48.9,34.4,29.97,SSE,158,1.1,1.1,57,0.00,,---,0.00,VWS V14.01,2013-02-19 00:12:00,
2013-02-18 16:13:00,48.9,34.8,29.97,SE,135,1.3,1.3,58,0.00,,---,0.00,VWS V14.01,2013-02-19 00:13:00,
2013-02-18 16:14:00,48.9,34.4,29.97,SE,135,1.6,2.9,57,0.00,,---,0.00,VWS V14.01,2013-02-19 00:14:00,
2013-02-18 16:15:00,48.9,34.8,29.97,SE,135,0.0,1.6,58,0.00,,---,0.00,VWS V14.01,2013-02-19 00:15:00,
2013-02-18 16:16:00,48.9,34.8,29.97,SE,135,3.1,3.1,58,0.00,,---,0.00,VWS V14.01,2013-02-19 00:16:00,
2013-02-18 16:17:00,48.9,34.8,29.97,SSE,158,2.5,3.1,58,0.00,,---,0.00,VWS V14.01,2013-02-19 00:17:00,
2013-02-18 16:18:00,48.9,34.8,29.97,West,270,1.1,1.3,58,0.00,,---,0.00,VWS V14.01,2013-02-19 00:18:00,
2013-02-18 16:19:00,48.9,34.8,29.97,West,270,2.7,2.7,58,0.00,,---,0.00,VWS V14.01,2013-02-19 00:19:00,
2013-02-18 16:20:00,48.9,34.8,29.97,North,0,1.3,2.9,58,0.00,,---,0.00,VWS V14.01,2013-02-19 00:20:00,
2013-02-18 16:21:00,48.9,34.8,29.97,WNW,292,1.3,2.2,58,0.00,,---,0.00,VWS V14.01,2013-02-19 00:21:00,
2013-02-18 16:22:00,48.9,34.8,29.97,WNW,292,1.3,1.3,58,0.00,,---,0.00,VWS V14.01,2013-02-19 00:22:00,
2013-02-18 16:23:00,48.7,34.6,29.97,SSW,202,0.9,0.9,58,0.00,,---,0.00,VWS V14.01,2013-02-19 00:23:00,
2013-02-18 16:24:00,48.9,33.9,29.97,SW,225,0.0,0.0,56,0.00,,---,0.00,VWS V14.01,2013-02-19 00:24:00,
2013-02-18 16:25:00,48.7,34.2,29.97,SSW,202,0.9,2.0,57,0.00,,---,0.00,VWS V14.01,2013-02-19 00:25:00,
2013-02-18 16:26:00,48.7,34.2,29.97,WNW,292,2.0,2.0,57,0.00,,---,0.00,VWS V14.01,2013-02-19 00:26:00,
2013-02-18 16:27:00,48.7,34.2,29.97,West,270,2.2,2.9,57,0.00,,---,0.00,VWS V14.01,2013-02-19 00:27:00,
2013-02-18 16:28:00,48.7,34.2,29.97,SE,135,1.3,1.6,57,0.00,,---,0.00,VWS V14.01,2013-02-19 00:28:00,
2013-02-18 16:29:00,48.7,34.2,29.97,SE,135,2.7,2.7,57,0.00,,---,0.00,VWS V14.01,2013-02-19 00:29:00,
2013-02-18 16:30:00,48.7,34.2,29.97,South,180,1.6,2.9,57,0.00,,---,0.00,VWS V14.01,2013-02-19 00:30:00,
2013-02-18 16:31:00,48.7,34.2,29.97,SE,135,1.6,2.0,57,0.00,,---,0.00,VWS V14.01,2013-02-19 00:31:00,
2013-02-18 16:32:00,48.7,34.2,29.97,ESE,112,1.1,5.4,57,0.00,,---,0.00,VWS V14.01,2013-02-19 00:32:00,
2013-02-18 16:33:00,48.7,34.2,29.97,WNW,292,5.4,5.4,57,0.00,,---,0.00,VWS V14.01,2013-02-19 00:33:00,
2013-02-18 16:34:00,48.7,34.2,29.97,West,270,2.9,4.3,57,0.00,,---,0.00,VWS V14.01,2013-02-19 00:34:00,
2013-02-18 16:35:00,48.7,34.2,29.97,WNW,292,2.5,5.4,57,0.00,,---,0.00,VWS V14.01,2013-02-19 00:35:00,
2013-02-18 16:36:00,48.7,34.2,29.97,WNW,292,2.5,2.5,57,0.00,,---,0.00,VWS V14.01,2013-02-19 00:36:00,
2013-02-18 16:37:00,48.7,34.2,29.97,West,270,2.0,3.6,57,0.00,,---,0.00,VWS V14.01,2013-02-19 00:37:00,
2013-02-18 16:38:00,48.0,34.0,29.97,West,270,2.5,3.8,58,0.00,,---,0.00,VWS V14.01,2013-02-19 00:38:00,
2013-02-18 16:39:00,48.7,34.2,29.97,North,0,1.3,3.1,57,0.00,,---,0.00,VWS V14.01,2013-02-19 00:39:00,
2013-02-18 16:40:00,48.7,34.2,29.97,WNW,292,3.8,4.0,57,0.00,,---,0.00,VWS V14.01,2013-02-19 00:40:00,
2013-02-18 16:41:00,48.0,34.4,29.97,SW,225,1.3,3.8,59,0.00,,---,0.00,VWS V14.01,2013-02-19 00:41:00,
2013-02-18 16:42:00,48.0,34.0,29.97,SSE,158,3.8,7.6,58,0.00,,---,0.00,VWS V14.01,2013-02-19 00:42:00,
2013-02-18 16:43:00,47.8,34.2,29.97,SE,135,3.1,3.8,59,0.00,,---,0.00,VWS V14.01,2013-02-19 00:43:00,
2013-02-18 16:44:00,46.6,33.5,29.97,West,270,2.0,2.0,60,0.00,,---,0.00,VWS V14.01,2013-02-19 00:44:00,
2013-02-18 16:45:00,47.8,34.2,29.97,WNW,292,2.7,2.7,59,0.00,,---,0.00,VWS V14.01,2013-02-19 00:45:00,
2013-02-18 16:46:00,47.8,34.2,29.97,SE,135,3.4,4.9,59,0.00,,---,0.00,VWS V14.01,2013-02-19 00:46:00,
2013-02-18 16:47:00,47.7,34.0,29.97,SE,135,4.3,4.3,59,0.00,,---,0.00,VWS V14.01,2013-02-19 00:47:00,
2013-02-18 16:48:00,47.5,33.9,29.97,WNW,292,1.6,1.6,59,0.00,,---,0.00,VWS V14.01,2013-02-19 00:48:00,
2013-02-18 16:49:00,47.5,33.9,29.97,WNW,292,2.2,2.9,59,0.00,,---,0.00,VWS V14.01,2013-02-19 00:49:00,
2013-02-18 16:50:00,47.5,33.9,29.97,SSW,202,1.6,2.9,59,0.00,,---,0.00,VWS V14.01,2013-02-19 00:50:00,
2013-02-18 16:51:00,47.5,33.9,29.94,South,180,1.6,1.6,59,0.00,,---,0.00,VWS V14.01,2013-02-19 00:51:00,
2013-02-18 16:52:00,47.5,33.9,29.94,SE,135,4.3,4.3,59,0.00,,---,0.00,VWS V14.01,2013-02-19 00:52:00,
2013-02-18 16:53:00,47.5,34.3,29.94,SW,225,1.3,1.3,60,0.00,,---,0.00,VWS V14.01,2013-02-19 00:53:00,
2013-02-18 16:54:00,47.5,33.9,29.94,SSE,158,6.0,6.0,59,0.00,,---,0.00,VWS V14.01,2013-02-19 00:54:00,
2013-02-18 16:55:00,47.5,33.9,29.94,South,180,0.9,6.0,59,0.00,,---,0.00,VWS V14.01,2013-02-19 00:55:00,
2013-02-18 16:56:00,47.5,34.3,29.94,SE,135,3.8,3.8,60,0.00,,---,0.00,VWS V14.01,2013-02-19 00:56:00,
2013-02-18 16:57:00,47.5,34.3,29.94,WNW,292,2.5,3.8,60,0.00,,---,0.00,VWS V14.01,2013-02-19 00:57:00,
2013-02-18 16:58:00,47.3,34.1,29.94,West,270,1.1,2.0,60,0.00,,---,0.00,VWS V14.01,2013-02-19 00:58:00,
2013-02-18 16:59:00,47.5,33.9,29.94,West,270,2.5,2.7,59,0.00,,---,0.00,VWS V14.01,2013-02-19 00:59:00,
2013-02-18 17:00:00,47.3,34.1,29.94,West,270,2.0,2.5,60,0.00,,---,0.00,VWS V14.01,2013-02-19 01:00:00,
2013-02-18 17:01:00,47.3,34.1,29.94,West,270,1.3,2.0,60,0.00,,---,0.00,VWS V14.01,2013-02-19 01:01:00,
2013-02-18 17:02:00,47.3,34.1,29.94,West,270,2.0,2.0,60,0.00,,---,0.00,VWS V14.01,2013-02-19 01:02:00,
2013-02-18 17:03:00,47.3,34.1,29.94,West,270,1.3,1.6,60,0.00,,---,0.00,VWS V14.01,2013-02-19 01:03:00,
2013-02-18 17:04:00,47.3,34.1,29.94,West,270,0.9,2.5,60,0.00,,---,0.00,VWS V14.01,2013-02-19 01:04:00,
2013-02-18 17:05:00,47.3,34.1,29.94,West,270,1.6,1.6,60,0.00,,---,0.00,VWS V14.01,2013-02-19 01:05:00,
2013-02-18 17:06:00,47.3,34.1,29.94,West,270,1.3,1.6,60,0.00,,---,0.00,VWS V14.01,2013-02-19 01:06:00,
2013-02-18 17:07:00,47.3,34.1,29.97,West,270,0.0,1.3,60,0.00,,---,0.00,VWS V14.01,2013-02-19 01:07:00,
2013-02-18 17:08:00,47.3,33.7,29.97,WSW,248,0.0,1.1,59,0.00,,---,0.00,VWS V14.01,2013-02-19 01:08:00,
2013-02-18 17:09:00,47.3,34.1,29.97,WSW,248,0.9,1.6,60,0.00,,---,0.00,VWS V14.01,2013-02-19 01:09:00,
2013-02-18 17:10:00,47.3,33.7,29.97,WSW,248,0.0,1.1,59,0.00,,---,0.00,VWS V14.01,2013-02-19 01:10:00,
2013-02-18 17:11:00,47.3,33.7,29.97,SW,225,1.3,1.3,59,0.00,,---,0.00,VWS V14.01,2013-02-19 01:11:00,
2013-02-18 17:12:00,47.3,33.7,29.97,SW,225,1.1,1.3,59,0.00,,---,0.00,VWS V14.01,2013-02-19 01:12:00,
2013-02-18 17:13:00,47.3,34.5,29.97,SW,225,1.1,2.0,61,0.00,,---,0.00,VWS V14.01,2013-02-19 01:13:00,
2013-02-18 17:14:00,47.3,34.1,29.97,SSE,158,1.6,2.0,60,0.00,,---,0.00,VWS V14.01,2013-02-19 01:14:00,
2013-02-18 17:15:00,47.3,34.1,29.97,SW,225,2.0,3.4,60,0.00,,---,0.00,VWS V14.01,2013-02-19 01:15:00,
2013-02-18 17:16:00,47.3,34.5,29.97,West,270,1.1,2.0,61,0.00,,---,0.00,VWS V14.01,2013-02-19 01:16:00,
2013-02-18 17:17:00,47.3,34.5,29.97,NW,315,1.1,1.6,61,0.00,,---,0.00,VWS V14.01,2013-02-19 01:17:00,
2013-02-18 17:18:00,47.1,34.0,29.97,WNW,292,0.0,2.0,60,0.00,,---,0.00,VWS V14.01,2013-02-19 01:18:00,
2013-02-18 17:19:00,47.1,34.0,29.97,WNW,292,2.0,2.2,60,0.00,,---,0.00,VWS V14.01,2013-02-19 01:19:00,
2013-02-18 17:20:00,47.1,34.0,29.97,WNW,292,0.0,2.0,60,0.00,,---,0.00,VWS V14.01,2013-02-19 01:20:00,
2013-02-18 17:21:00,47.1,34.0,29.97,West,270,1.6,1.6,60,0.00,,---,0.00,VWS V14.01,2013-02-19 01:21:00,
2013-02-18 17:22:00,46.9,33.4,29.97,West,270,1.3,2.2,59,0.00,,---,0.00,VWS V14.01,2013-02-19 01:22:00,
2013-02-18 17:23:00,46.9,33.4,29.97,West,270,0.0,0.9,59,0.00,,---,0.00,VWS V14.01,2013-02-19 01:23:00,
2013-02-18 17:24:00,46.9,33.8,29.97,WNW,292,1.6,2.7,60,0.00,,---,0.00,VWS V14.01,2013-02-19 01:24:00,
2013-02-18 17:25:00,47.1,34.0,29.97,WNW,292,0.9,1.6,60,0.00,,---,0.00,VWS V14.01,2013-02-19 01:25:00,
2013-02-18 17:26:00,45.7,34.6,29.97,SSW,202,0.0,0.0,65,0.00,,---,0.00,VWS V14.01,2013-02-19 01:26:00,
2013-02-18 17:27:00,46.9,33.4,29.97,West,270,0.0,0.9,59,0.00,,---,0.00,VWS V14.01,2013-02-19 01:27:00,
2013-02-18 17:28:00,46.9,33.4,29.97,South,180,1.3,1.3,59,0.00,,---,0.00,VWS V14.01,2013-02-19 01:28:00,
2013-02-18 17:29:00,46.9,33.4,29.97,SE,135,2.5,2.5,59,0.00,,---,0.00,VWS V14.01,2013-02-19 01:29:00,
2013-02-18 17:30:00,46.9,33.4,29.97,South,180,1.1,2.5,59,0.00,,---,0.00,VWS V14.01,2013-02-19 01:30:00,
2013-02-18 17:31:00,46.9,33.4,29.97,South,180,0.0,1.3,59,0.00,,---,0.00,VWS V14.01,2013-02-19 01:31:00,
2013-02-18 17:32:00,46.9,33.4,29.97,South,180,0.0,0.0,59,0.00,,---,0.00,VWS V14.01,2013-02-19 01:32:00,
2013-02-18 17:33:00,46.9,33.4,29.97,South,180,0.0,0.0,59,0.00,,---,0.00,VWS V14.01,2013-02-19 01:33:00,
2013-02-18 17:34:00,46.9,33.4,29.97,SSE,158,0.0,1.1,59,0.00,,---,0.00,VWS V14.01,2013-02-19 01:34:00,
2013-02-18 17:35:00,46.9,33.4,29.97,South,180,0.0,0.0,59,0.00,,---,0.00,VWS V14.01,2013-02-19 01:35:00,
2013-02-18 17:36:00,46.9,33.4,29.97,SSE,158,1.3,1.3,59,0.00,,---,0.00,VWS V14.01,2013-02-19 01:36:00,
2013-02-18 17:37:00,46.9,33.4,29.97,SSE,158,1.3,1.3,59,0.00,,---,0.00,VWS V14.01,2013-02-19 01:37:00,
2013-02-18 17:38:00,46.9,33.4,29.97,SSE,158,0.0,0.9,59,0.00,,---,0.00,VWS V14.01,2013-02-19 01:38:00,
2013-02-18 17:39:00,46.9,33.4,29.97,SSE,158,1.6,2.2,59,0.00,,---,0.00,VWS V14.01,2013-02-19 01:39:00,
2013-02-18 17:40:00,46.9,33.4,29.97,SSE,158,0.9,1.6,59,0.00,,---,0.00,VWS V14.01,2013-02-19 01:40:00,
2013-02-18 17:41:00,46.9,33.4,29.97,SSE,158,0.0,0.9,59,0.00,,---,0.00,VWS V14.01,2013-02-19 01:41:00,
2013-02-18 17:42:00,46.9,33.4,29.97,South,180,0.0,0.0,59,0.00,,---,0.00,VWS V14.01,2013-02-19 01:42:00,
2013-02-18 17:43:00,46.6,33.5,29.97,West,270,1.3,1.3,60,0.00,,---,0.00,VWS V14.01,2013-02-19 01:43:00,
2013-02-18 17:44:00,46.6,33.5,29.97,West,270,2.0,2.0,60,0.00,,---,0.00,VWS V14.01,2013-02-19 01:44:00,
2013-02-18 17:45:00,46.6,33.5,29.97,West,270,1.3,2.0,60,0.00,,---,0.00,VWS V14.01,2013-02-19 01:45:00,
2013-02-18 17:46:00,46.6,33.9,29.97,West,270,0.0,1.3,61,0.00,,---,0.00,VWS V14.01,2013-02-19 01:46:00,
2013-02-18 17:47:00,46.6,33.9,29.97,West,270,0.0,0.0,61,0.00,,---,0.00,VWS V14.01,2013-02-19 01:47:00,
2013-02-18 17:48:00,46.6,33.5,29.97,NW,315,2.0,2.0,60,0.00,,---,0.00,VWS V14.01,2013-02-19 01:48:00,
2013-02-18 17:49:00,46.6,33.9,29.97,WSW,248,0.9,2.5,61,0.00,,---,0.00,VWS V14.01,2013-02-19 01:49:00,
2013-02-18 17:50:00,46.6,33.5,29.97,NW,315,1.3,1.3,60,0.00,,---,0.00,VWS V14.01,2013-02-19 01:50:00,
2013-02-18 17:51:00,46.4,33.3,29.97,NW,315,1.1,2.0,60,0.00,,---,0.00,VWS V14.01,2013-02-19 01:51:00,
2013-02-18 17:52:00,46.4,32.9,29.97,West,270,2.0,2.7,59,0.00,,---,0.00,VWS V14.01,2013-02-19 01:52:00,
2013-02-18 17:53:00,46.2,33.1,29.97,SE,135,2.9,2.9,60,0.00,,---,0.00,VWS V14.01,2013-02-19 01:53:00,
2013-02-18 17:54:00,46.2,32.7,29.97,SSW,202,1.3,1.3,59,0.00,,---,0.00,VWS V14.01,2013-02-19 01:54:00,
2013-02-18 17:55:00,46.2,32.7,29.97,SE,135,2.9,2.9,59,0.00,,---,0.00,VWS V14.01,2013-02-19 01:55:00,
2013-02-18 17:56:00,46.2,33.1,29.97,SSE,158,2.0,2.9,60,0.00,,---,0.00,VWS V14.01,2013-02-19 01:56:00,
2013-02-18 17:57:00,46.2,33.1,29.97,West,270,0.9,2.0,60,0.00,,---,0.00,VWS V14.01,2013-02-19 01:57:00,
2013-02-18 17:58:00,46.2,33.1,29.97,NNW,338,2.2,2.2,60,0.00,,---,0.00,VWS V14.01,2013-02-19 01:58:00,
2013-02-18 17:59:00,46.2,33.1,29.97,WNW,292,2.9,2.9,60,0.00,,---,0.00,VWS V14.01,2013-02-19 01:59:00,
2013-02-18 18:00:00,46.2,33.1,29.97,NNW,338,2.0,3.6,60,0.00,,---,0.00,VWS V14.01,2013-02-19 02:00:00,
2013-02-18 18:01:00,46.2,33.1,29.97,NNW,338,2.2,2.2,60,0.00,,---,0.00,VWS V14.01,2013-02-19 02:01:00,
2013-02-18 18:02:00,46.2,33.1,29.97,West,270,1.1,2.2,60,0.00,,---,0.00,VWS V14.01,2013-02-19 02:02:00,
2013-02-18 18:03:00,46.2,33.1,30.00,East,90,2.7,4.3,60,0.00,,---,0.00,VWS V14.01,2013-02-19 02:03:00,
2013-02-18 18:04:00,46.2,33.1,29.97,SE,135,2.9,2.9,60,0.00,,---,0.00,VWS V14.01,2013-02-19 02:04:00,
2013-02-18 18:05:00,46.2,33.1,29.97,ESE,112,1.6,2.9,60,0.00,,---,0.00,VWS V14.01,2013-02-19 02:05:00,
2013-02-18 18:06:00,46.2,33.1,30.00,East,90,0.0,4.3,60,0.00,,---,0.00,VWS V14.01,2013-02-19 02:06:00,
2013-02-18 18:07:00,46.2,33.1,30.00,WNW,292,2.2,2.2,60,0.00,,---,0.00,VWS V14.01,2013-02-19 02:07:00,
2013-02-18 18:08:00,46.2,33.1,30.00,WSW,248,3.8,3.8,60,0.00,,---,0.00,VWS V14.01,2013-02-19 02:08:00,
2013-02-18 18:09:00,46.2,33.1,30.00,SW,225,0.0,2.0,60,0.00,,---,0.00,VWS V14.01,2013-02-19 02:09:00,
2013-02-18 18:10:00,46.2,33.1,30.00,SW,225,0.0,1.3,60,0.00,,---,0.00,VWS V14.01,2013-02-19 02:10:00,
2013-02-18 18:11:00,46.2,33.1,30.00,South,180,1.3,3.8,60,0.00,,---,0.00,VWS V14.01,2013-02-19 02:11:00,
2013-02-18 18:12:00,46.2,33.1,30.00,West,270,1.6,2.2,60,0.00,,---,0.00,VWS V14.01,2013-02-19 02:12:00,
2013-02-18 18:13:00,45.9,34.0,30.00,SE,135,1.6,2.0,63,0.00,,---,0.00,VWS V14.01,2013-02-19 02:13:00,
2013-02-18 18:14:00,46.2,33.1,30.00,SE,135,2.7,2.7,60,0.00,,---,0.00,VWS V14.01,2013-02-19 02:14:00,
2013-02-18 18:15:00,45.9,34.0,30.00,SSE,158,1.3,2.7,63,0.00,,---,0.00,VWS V14.01,2013-02-19 02:15:00,
2013-02-18 18:16:00,45.9,34.0,30.00,SSE,158,2.0,2.2,63,0.00,,---,0.00,VWS V14.01,2013-02-19 02:16:00,
2013-02-18 18:17:00,44.6,35.8,30.00,North,0,0.0,1.6,71,0.00,,---,0.00,VWS V14.01,2013-02-19 02:17:00,
2013-02-18 18:18:00,45.7,34.2,29.97,SW,225,2.0,2.0,64,0.00,,---,0.00,VWS V14.01,2013-02-19 02:18:00,
2013-02-18 18:19:00,45.9,34.4,30.00,SW,225,0.0,1.1,64,0.00,,---,0.00,VWS V14.01,2013-02-19 02:19:00,
2013-02-18 18:20:00,45.7,34.2,30.00,West,270,0.0,0.0,64,0.00,,---,0.00,VWS V14.01,2013-02-19 02:20:00,
2013-02-18 18:21:00,45.7,34.2,29.97,SSW,202,1.1,2.0,64,0.00,,---,0.00,VWS V14.01,2013-02-19 02:21:00,
2013-02-18 18:22:00,45.7,34.2,29.97,SSW,202,0.0,1.1,64,0.00,,---,0.00,VWS V14.01,2013-02-19 02:22:00,
2013-02-18 18:23:00,45.7,34.6,29.97,SSW,202,0.0,0.0,65,0.00,,---,0.00,VWS V14.01,2013-02-19 02:23:00,
2013-02-18 18:24:00,45.7,34.2,29.97,South,180,0.0,1.6,64,0.00,,---,0.00,VWS V14.01,2013-02-19 02:24:00,
2013-02-18 18:25:00,45.7,34.6,29.97,South,180,0.0,0.0,65,0.00,,---,0.00,VWS V14.01,2013-02-19 02:25:00,
2013-02-18 18:26:00,45.7,34.6,29.97,SSW,202,0.0,0.0,65,0.00,,---,0.00,VWS V14.01,2013-02-19 02:26:00,
2013-02-18 18:27:00,45.5,34.4,29.97,SW,225,0.0,0.0,65,0.00,,---,0.00,VWS V14.01,2013-02-19 02:27:00,
2013-02-18 18:28:00,45.5,34.8,29.97,SW,225,1.1,1.1,66,0.00,,---,0.00,VWS V14.01,2013-02-19 02:28:00,
2013-02-18 18:29:00,45.5,34.8,29.97,WSW,248,0.0,1.1,66,0.00,,---,0.00,VWS V14.01,2013-02-19 02:29:00,
2013-02-18 18:30:00,45.5,34.8,29.97,SW,225,0.0,0.0,66,0.00,,---,0.00,VWS V14.01,2013-02-19 02:30:00,
2013-02-18 18:31:00,45.5,34.8,29.97,SW,225,0.9,1.1,66,0.00,,---,0.00,VWS V14.01,2013-02-19 02:31:00,
2013-02-18 18:32:00,45.5,34.8,29.97,SW,225,1.3,1.3,66,0.00,,---,0.00,VWS V14.01,2013-02-19 02:32:00,
2013-02-18 18:33:00,45.3,34.6,29.97,SSW,202,0.0,0.0,66,0.00,,---,0.00,VWS V14.01,2013-02-19 02:33:00,
2013-02-18 18:34:00,45.3,34.7,29.97,SW,225,0.0,0.0,66,0.00,,---,0.00,VWS V14.01,2013-02-19 02:34:00,
2013-02-18 18:35:00,45.3,34.7,29.97,SW,225,0.0,0.0,66,0.00,,---,0.00,VWS V14.01,2013-02-19 02:35:00,
2013-02-18 18:36:00,45.3,34.7,29.97,SSW,202,0.0,0.0,66,0.00,,---,0.00,VWS V14.01,2013-02-19 02:36:00,
2013-02-18 18:37:00,45.3,34.7,29.97,SE,135,1.6,1.6,66,0.00,,---,0.00,VWS V14.01,2013-02-19 02:37:00,
2013-02-18 18:38:00,45.3,34.6,29.97,East,90,0.0,1.3,66,0.00,,---,0.00,VWS V14.01,2013-02-19 02:38:00,
2013-02-18 18:39:00,45.3,34.7,29.97,ESE,112,1.3,1.3,66,0.00,,---,0.00,VWS V14.01,2013-02-19 02:39:00,
2013-02-18 18:40:00,44.1,36.3,29.97,NE,45,1.1,1.1,74,0.00,,---,0.00,VWS V14.01,2013-02-19 02:40:00,
2013-02-18 18:41:00,45.3,34.7,29.97,East,90,0.0,1.3,66,0.00,,---,0.00,VWS V14.01,2013-02-19 02:41:00,
2013-02-18 18:42:00,45.3,34.7,29.97,East,90,0.0,0.0,66,0.00,,---,0.00,VWS V14.01,2013-02-19 02:42:00,
2013-02-18 18:43:00,44.8,35.2,29.97,East,90,0.0,0.0,69,0.00,,---,0.00,VWS V14.01,2013-02-19 02:43:00,
2013-02-18 18:44:00,44.8,35.2,29.97,East,90,0.0,0.0,69,0.00,,---,0.00,VWS V14.01,2013-02-19 02:44:00,
2013-02-18 18:45:00,44.8,35.2,29.97,East,90,0.0,0.0,69,0.00,,---,0.00,VWS V14.01,2013-02-19 02:45:00,
2013-02-18 18:46:00,44.8,35.2,29.97,East,90,0.0,0.0,69,0.00,,---,0.00,VWS V14.01,2013-02-19 02:46:00,
2013-02-18 18:47:00,44.8,35.2,29.97,East,90,0.0,0.0,69,0.00,,---,0.00,VWS V14.01,2013-02-19 02:47:00,
2013-02-18 18:48:00,44.6,35.4,29.97,East,90,0.0,0.0,70,0.00,,---,0.00,VWS V14.01,2013-02-19 02:48:00,
2013-02-18 18:49:00,44.6,35.4,29.97,East,90,0.0,0.0,70,0.00,,---,0.00,VWS V14.01,2013-02-19 02:49:00,
2013-02-18 18:50:00,44.6,35.4,29.97,East,90,0.0,0.0,70,0.00,,---,0.00,VWS V14.01,2013-02-19 02:50:00,
2013-02-18 18:51:00,44.6,35.4,29.97,East,90,0.0,0.0,70,0.00,,---,0.00,VWS V14.01,2013-02-19 02:51:00,
2013-02-18 18:52:00,44.6,35.4,29.97,East,90,0.0,0.0,70,0.00,,---,0.00,VWS V14.01,2013-02-19 02:52:00,
2013-02-18 18:53:00,44.6,35.8,29.97,East,90,0.0,0.0,71,0.00,,---,0.00,VWS V14.01,2013-02-19 02:53:00,
2013-02-18 18:54:00,44.6,35.4,29.97,East,90,0.0,0.0,70,0.00,,---,0.00,VWS V14.01,2013-02-19 02:54:00,
2013-02-18 18:55:00,44.6,35.4,29.97,East,90,0.0,0.0,70,0.00,,---,0.00,VWS V14.01,2013-02-19 02:55:00,
2013-02-18 18:56:00,44.6,35.8,29.97,East,90,0.0,0.0,71,0.00,,---,0.00,VWS V14.01,2013-02-19 02:56:00,
2013-02-18 18:57:00,44.4,35.6,29.97,East,90,0.0,0.0,71,0.00,,---,0.00,VWS V14.01,2013-02-19 02:57:00,
2013-02-18 18:58:00,44.4,35.6,29.97,East,90,0.0,0.0,71,0.00,,---,0.00,VWS V14.01,2013-02-19 02:58:00,
2013-02-18 18:59:00,44.1,36.7,29.97,NE,45,0.0,0.0,75,0.00,,---,0.00,VWS V14.01,2013-02-19 02:59:00,
2013-02-18 19:00:00,44.4,35.6,29.97,East,90,0.0,0.0,71,0.00,,---,0.00,VWS V14.01,2013-02-19 03:00:00,
2013-02-18 19:01:00,44.4,35.6,29.97,East,90,0.0,0.0,71,0.00,,---,0.00,VWS V14.01,2013-02-19 03:01:00,
2013-02-18 19:02:00,44.6,35.4,29.97,East,90,0.0,0.0,70,0.00,,---,0.00,VWS V14.01,2013-02-19 03:02:00,
2013-02-18 19:03:00,44.6,35.8,30.00,East,90,0.9,0.9,71,0.00,,---,0.00,VWS V14.01,2013-02-19 03:03:00,
2013-02-18 19:04:00,44.6,35.8,29.97,East,90,1.1,2.0,71,0.00,,---,0.00,VWS V14.01,2013-02-19 03:04:00,
2013-02-18 19:05:00,44.6,35.8,29.97,East,90,0.9,1.3,71,0.00,,---,0.00,VWS V14.01,2013-02-19 03:05:00,
2013-02-18 19:06:00,44.6,35.8,30.00,East,90,0.0,0.9,71,0.00,,---,0.00,VWS V14.01,2013-02-19 03:06:00,
2013-02-18 19:07:00,44.6,35.8,30.00,ENE,68,0.0,0.0,71,0.00,,---,0.00,VWS V14.01,2013-02-19 03:07:00,
2013-02-18 19:08:00,44.6,35.8,30.00,NE,45,0.0,1.1,71,0.00,,---,0.00,VWS V14.01,2013-02-19 03:08:00,
2013-02-18 19:09:00,44.6,35.8,30.00,ENE,68,0.0,0.0,71,0.00,,---,0.00,VWS V14.01,2013-02-19 03:09:00,
2013-02-18 19:10:00,44.6,35.8,30.00,ENE,68,1.1,1.6,71,0.00,,---,0.00,VWS V14.01,2013-02-19 03:10:00,
2013-02-18 19:11:00,44.6,35.8,30.00,NE,45,0.0,1.1,71,0.00,,---,0.00,VWS V14.01,2013-02-19 03:11:00,
2013-02-18 19:12:00,44.6,35.8,30.00,NE,45,0.0,0.0,71,0.00,,---,0.00,VWS V14.01,2013-02-19 03:12:00,
2013-02-18 19:13:00,44.6,35.8,30.00,NE,45,2.0,2.5,71,0.00,,---,0.00,VWS V14.01,2013-02-19 03:13:00,
2013-02-18 19:14:00,44.6,35.8,30.00,NE,45,1.6,1.6,71,0.00,,---,0.00,VWS V14.01,2013-02-19 03:14:00,
2013-02-18 19:15:00,44.6,35.8,30.00,NE,45,2.5,2.5,71,0.00,,---,0.00,VWS V14.01,2013-02-19 03:15:00,
2013-02-18 19:16:00,44.6,35.8,30.00,NE,45,1.6,2.5,71,0.00,,---,0.00,VWS V14.01,2013-02-19 03:16:00,
2013-02-18 19:17:00,44.6,35.8,30.00,North,0,0.0,1.6,71,0.00,,---,0.00,VWS V14.01,2013-02-19 03:17:00,
2013-02-18 19:18:00,44.2,36.2,30.00,NW,315,1.3,1.3,73,0.00,,---,0.00,VWS V14.01,2013-02-19 03:18:00,
2013-02-18 19:19:00,44.4,36.3,30.00,West,270,1.3,1.3,73,0.00,,---,0.00,VWS V14.01,2013-02-19 03:19:00,
2013-02-18 19:20:00,44.2,36.2,30.00,NW,315,1.3,1.3,73,0.00,,---,0.00,VWS V14.01,2013-02-19 03:20:00,
2013-02-18 19:21:00,44.2,36.2,30.00,NW,315,1.3,1.3,73,0.00,,---,0.00,VWS V14.01,2013-02-19 03:21:00,
2013-02-18 19:22:00,44.2,36.2,30.00,NW,315,0.0,1.3,73,0.00,,---,0.00,VWS V14.01,2013-02-19 03:22:00,
2013-02-18 19:23:00,44.2,36.2,29.97,NNE,22,0.0,0.0,73,0.00,,---,0.00,VWS V14.01,2013-02-19 03:23:00,
2013-02-18 19:24:00,44.2,36.2,29.97,NE,45,1.1,1.1,73,0.00,,---,0.00,VWS V14.01,2013-02-19 03:24:00,
2013-02-18 19:25:00,44.2,36.2,29.97,NE,45,0.0,1.1,73,0.00,,---,0.00,VWS V14.01,2013-02-19 03:25:00,
2013-02-18 19:26:00,44.2,36.2,29.97,NNE,22,0.0,0.0,73,0.00,,---,0.00,VWS V14.01,2013-02-19 03:26:00,
2013-02-18 19:27:00,44.1,36.3,29.97,NNW,338,1.1,1.6,74,0.00,,---,0.00,VWS V14.01,2013-02-19 03:27:00,
2013-02-18 19:28:00,44.2,36.2,29.97,NNW,338,0.0,1.1,73,0.00,,---,0.00,VWS V14.01,2013-02-19 03:28:00,
2013-02-18 19:29:00,44.1,36.3,29.97,NNW,338,0.0,0.0,74,0.00,,---,0.00,VWS V14.01,2013-02-19 03:29:00,
2013-02-18 19:30:00,44.1,36.3,29.97,NNW,338,1.1,1.1,74,0.00,,---,0.00,VWS V14.01,2013-02-19 03:30:00,
2013-02-18 19:31:00,44.2,36.2,29.97,NNW,338,0.0,1.1,73,0.00,,---,0.00,VWS V14.01,2013-02-19 03:31:00,
2013-02-18 19:32:00,44.2,36.5,29.97,NNW,338,0.0,0.0,74,0.00,,---,0.00,VWS V14.01,2013-02-19 03:32:00,
2013-02-18 19:33:00,44.1,36.3,29.97,NW,315,0.0,0.0,74,0.00,,---,0.00,VWS V14.01,2013-02-19 03:33:00,
2013-02-18 19:34:00,44.1,36.3,29.97,NW,315,0.0,0.0,74,0.00,,---,0.00,VWS V14.01,2013-02-19 03:34:00,
2013-02-18 19:35:00,44.1,36.3,29.97,NW,315,0.0,0.0,74,0.00,,---,0.00,VWS V14.01,2013-02-19 03:35:00,
2013-02-18 19:36:00,44.1,36.3,29.97,NW,315,0.0,0.0,74,0.00,,---,0.00,VWS V14.01,2013-02-19 03:36:00,
2013-02-18 19:37:00,44.1,36.3,29.97,NW,315,0.0,0.0,74,0.00,,---,0.00,VWS V14.01,2013-02-19 03:37:00,
2013-02-18 19:38:00,44.1,36.3,29.97,NE,45,1.3,1.3,74,0.00,,---,0.00,VWS V14.01,2013-02-19 03:38:00,
2013-02-18 19:39:00,44.1,36.3,29.97,NW,315,0.0,0.0,74,0.00,,---,0.00,VWS V14.01,2013-02-19 03:39:00,
2013-02-18 19:40:00,44.1,36.3,29.97,NE,45,1.1,1.1,74,0.00,,---,0.00,VWS V14.01,2013-02-19 03:40:00,
2013-02-18 19:41:00,44.1,36.3,29.97,NE,45,1.3,1.3,74,0.00,,---,0.00,VWS V14.01,2013-02-19 03:41:00,
2013-02-18 19:42:00,44.1,36.3,29.97,NE,45,0.9,1.6,74,0.00,,---,0.00,VWS V14.01,2013-02-19 03:42:00,
2013-02-18 19:43:00,44.1,36.3,29.97,NE,45,0.0,0.0,74,0.00,,---,0.00,VWS V14.01,2013-02-19 03:43:00,
2013-02-18 19:44:00,44.1,36.3,29.97,NE,45,0.0,0.0,74,0.00,,---,0.00,VWS V14.01,2013-02-19 03:44:00,
2013-02-18 19:45:00,44.1,36.3,29.97,NE,45,0.0,0.0,74,0.00,,---,0.00,VWS V14.01,2013-02-19 03:45:00,
2013-02-18 19:46:00,44.1,36.3,29.97,NE,45,0.0,0.0,74,0.00,,---,0.00,VWS V14.01,2013-02-19 03:46:00,
2013-02-18 19:47:00,44.1,36.3,29.97,NE,45,0.0,0.0,74,0.00,,---,0.00,VWS V14.01,2013-02-19 03:47:00,
2013-02-18 19:48:00,44.1,37.0,29.97,NE,45,0.0,0.0,76,0.00,,---,0.00,VWS V14.01,2013-02-19 03:48:00,
2013-02-18 19:49:00,44.1,36.3,29.97,NE,45,0.0,0.0,74,0.00,,---,0.00,VWS V14.01,2013-02-19 03:49:00,
2013-02-18 19:50:00,44.1,36.7,29.97,NE,45,0.0,0.0,75,0.00,,---,0.00,VWS V14.01,2013-02-19 03:50:00,
2013-02-18 19:51:00,44.1,37.0,29.97,NE,45,0.0,0.0,76,0.00,,---,0.00,VWS V14.01,2013-02-19 03:51:00,
2013-02-18 19:52:00,43.9,36.8,29.97,NE,45,0.0,0.0,76,0.00,,---,0.00,VWS V14.01,2013-02-19 03:52:00,
2013-02-18 19:53:00,43.9,36.5,29.97,NE,45,0.0,0.9,75,0.00,,---,0.00,VWS V14.01,2013-02-19 03:53:00,
2013-02-18 19:54:00,43.9,36.8,29.97,NE,45,0.0,0.0,76,0.00,,---,0.00,VWS V14.01,2013-02-19 03:54:00,
2013-02-18 19:55:00,43.9,36.5,29.97,NE,45,0.9,0.9,75,0.00,,---,0.00,VWS V14.01,2013-02-19 03:55:00,
2013-02-18 19:56:00,43.9,36.5,29.97,NE,45,0.0,0.9,75,0.00,,---,0.00,VWS V14.01,2013-02-19 03:56:00,
2013-02-18 19:57:00,43.9,36.5,29.97,NE,45,0.0,0.0,75,0.00,,---,0.00,VWS V14.01,2013-02-19 03:57:00,
2013-02-18 19:58:00,44.1,36.7,29.97,NE,45,0.0,0.0,75,0.00,,---,0.00,VWS V14.01,2013-02-19 03:58:00,
2013-02-18 19:59:00,44.1,36.7,29.97,NE,45,0.0,0.0,75,0.00,,---,0.00,VWS V14.01,2013-02-19 03:59:00,
2013-02-18 20:00:00,44.1,36.7,29.97,NE,45,0.0,0.0,75,0.00,,---,0.00,VWS V14.01,2013-02-19 04:00:00,
2013-02-18 20:01:00,44.1,36.7,29.97,NE,45,0.0,0.0,75,0.00,,---,0.00,VWS V14.01,2013-02-19 04:01:00,
2013-02-18 20:02:00,44.1,36.7,29.97,NE,45,0.0,0.0,75,0.00,,---,0.00,VWS V14.01,2013-02-19 04:02:00,
2013-02-18 20:03:00,44.1,36.7,29.97,NE,45,0.0,0.0,75,0.00,,---,0.00,VWS V14.01,2013-02-19 04:03:00,
2013-02-18 20:04:00,44.1,36.7,29.97,NE,45,0.0,0.0,75,0.00,,---,0.00,VWS V14.01,2013-02-19 04:04:00,
2013-02-18 20:05:00,44.1,36.7,29.97,NE,45,0.0,0.0,75,0.00,,---,0.00,VWS V14.01,2013-02-19 04:05:00,
2013-02-18 20:06:00,43.9,36.8,29.97,NE,45,0.0,0.0,76,0.00,,---,0.00,VWS V14.01,2013-02-19 04:06:00,
2013-02-18 20:07:00,44.1,36.7,29.97,NE,45,0.0,0.0,75,0.00,,---,0.00,VWS V14.01,2013-02-19 04:07:00,
2013-02-18 20:08:00,44.1,36.7,29.97,NE,45,0.0,0.0,75,0.00,,---,0.00,VWS V14.01,2013-02-19 04:08:00,
2013-02-18 20:09:00,44.1,36.7,29.97,NE,45,0.0,0.0,75,0.00,,---,0.00,VWS V14.01,2013-02-19 04:09:00,
2013-02-18 20:10:00,44.1,36.7,29.97,NE,45,0.0,0.0,75,0.00,,---,0.00,VWS V14.01,2013-02-19 04:10:00,
2013-02-18 20:11:00,44.1,36.7,29.97,NE,45,0.0,0.0,75,0.00,,---,0.00,VWS V14.01,2013-02-19 04:11:00,
2013-02-18 20:12:00,44.1,36.7,29.97,NE,45,1.1,1.1,75,0.00,,---,0.00,VWS V14.01,2013-02-19 04:12:00,
2013-02-18 20:13:00,43.9,36.8,29.97,NE,45,0.0,0.0,76,0.00,,---,0.00,VWS V14.01,2013-02-19 04:13:00,
2013-02-18 20:14:00,43.9,36.8,29.97,NE,45,0.0,0.0,76,0.00,,---,0.00,VWS V14.01,2013-02-19 04:14:00,
2013-02-18 20:15:00,43.9,36.8,29.97,NE,45,0.0,0.0,76,0.00,,---,0.00,VWS V14.01,2013-02-19 04:15:00,
2013-02-18 20:16:00,43.9,36.8,29.97,NE,45,0.0,0.0,76,0.00,,---,0.00,VWS V14.01,2013-02-19 04:16:00,
2013-02-18 20:17:00,43.9,36.8,29.97,NE,45,0.0,0.0,76,0.00,,---,0.00,VWS V14.01,2013-02-19 04:17:00,
2013-02-18 20:18:00,43.9,36.8,29.97,NE,45,0.0,0.0,76,0.00,,---,0.00,VWS V14.01,2013-02-19 04:18:00,
2013-02-18 20:19:00,43.9,36.8,29.97,NE,45,0.0,0.0,76,0.00,,---,0.00,VWS V14.01,2013-02-19 04:19:00,
2013-02-18 20:20:00,43.9,36.8,29.97,NE,45,0.0,0.0,76,0.00,,---,0.00,VWS V14.01,2013-02-19 04:20:00,
2013-02-18 20:21:00,43.9,36.8,29.97,NE,45,0.0,0.0,76,0.00,,---,0.00,VWS V14.01,2013-02-19 04:21:00,
2013-02-18 20:22:00,43.9,36.8,29.97,NE,45,0.0,0.0,76,0.00,,---,0.00,VWS V14.01,2013-02-19 04:22:00,
2013-02-18 20:23:00,43.7,36.6,29.97,NE,45,0.0,0.0,76,0.00,,---,0.00,VWS V14.01,2013-02-19 04:23:00,
2013-02-18 20:24:00,43.9,36.8,29.97,NE,45,0.0,0.0,76,0.00,,---,0.00,VWS V14.01,2013-02-19 04:24:00,
2013-02-18 20:25:00,43.7,36.6,29.97,NE,45,0.0,0.0,76,0.00,,---,0.00,VWS V14.01,2013-02-19 04:25:00,
2013-02-18 20:26:00,43.7,36.6,29.97,NE,45,0.0,0.0,76,0.00,,---,0.00,VWS V14.01,2013-02-19 04:26:00,
2013-02-18 20:27:00,43.7,36.6,29.97,NE,45,0.0,0.0,76,0.00,,---,0.00,VWS V14.01,2013-02-19 04:27:00,
2013-02-18 20:28:00,43.9,36.8,29.97,NE,45,0.0,0.0,76,0.00,,---,0.00,VWS V14.01,2013-02-19 04:28:00,
2013-02-18 20:29:00,43.9,36.8,29.97,NE,45,0.0,0.0,76,0.00,,---,0.00,VWS V14.01,2013-02-19 04:29:00,
2013-02-18 20:30:00,43.9,36.8,29.97,NE,45,0.0,0.0,76,0.00,,---,0.00,VWS V14.01,2013-02-19 04:30:00,
2013-02-18 20:31:00,43.9,36.8,29.97,NE,45,0.0,0.0,76,0.00,,---,0.00,VWS V14.01,2013-02-19 04:31:00,
2013-02-18 20:32:00,43.9,36.8,29.97,NE,45,0.0,0.0,76,0.00,,---,0.00,VWS V14.01,2013-02-19 04:32:00,
2013-02-18 20:33:00,43.9,36.8,29.97,NE,45,0.0,0.0,76,0.00,,---,0.00,VWS V14.01,2013-02-19 04:33:00,
2013-02-18 20:34:00,43.9,36.8,29.97,NE,45,0.0,0.0,76,0.00,,---,0.00,VWS V14.01,2013-02-19 04:34:00,
2013-02-18 20:35:00,43.9,36.8,29.97,NE,45,0.0,0.0,76,0.00,,---,0.00,VWS V14.01,2013-02-19 04:35:00,
2013-02-18 20:36:00,43.9,36.8,29.97,NE,45,0.0,0.0,76,0.00,,---,0.00,VWS V14.01,2013-02-19 04:36:00,
2013-02-18 20:37:00,43.9,36.8,29.97,NE,45,0.0,0.0,76,0.00,,---,0.00,VWS V14.01,2013-02-19 04:37:00,
2013-02-18 20:38:00,43.9,36.8,29.97,NE,45,0.0,0.0,76,0.00,,---,0.00,VWS V14.01,2013-02-19 04:38:00,
2013-02-18 20:39:00,43.9,36.8,29.97,NE,45,0.0,0.0,76,0.00,,---,0.00,VWS V14.01,2013-02-19 04:39:00,
2013-02-18 20:40:00,43.9,36.8,29.97,NE,45,0.0,0.0,76,0.00,,---,0.00,VWS V14.01,2013-02-19 04:40:00,
2013-02-18 20:41:00,43.9,36.8,29.97,NE,45,0.0,0.0,76,0.00,,---,0.00,VWS V14.01,2013-02-19 04:41:00,
2013-02-18 20:42:00,43.9,36.8,29.97,NE,45,0.0,0.0,76,0.00,,---,0.00,VWS V14.01,2013-02-19 04:42:00,
2013-02-18 20:43:00,43.9,36.8,29.97,NE,45,0.0,0.0,76,0.00,,---,0.00,VWS V14.01,2013-02-19 04:43:00,
2013-02-18 20:44:00,43.9,36.8,29.97,NE,45,0.0,0.0,76,0.00,,---,0.00,VWS V14.01,2013-02-19 04:44:00,
2013-02-18 20:45:00,43.9,36.8,29.97,NE,45,0.0,0.0,76,0.00,,---,0.00,VWS V14.01,2013-02-19 04:45:00,
2013-02-18 20:46:00,43.9,36.8,29.97,NE,45,0.0,0.0,76,0.00,,---,0.00,VWS V14.01,2013-02-19 04:46:00,
2013-02-18 20:47:00,43.9,36.8,29.97,NE,45,0.0,0.0,76,0.00,,---,0.00,VWS V14.01,2013-02-19 04:47:00,
2013-02-18 20:48:00,43.9,36.8,29.97,NE,45,0.0,0.0,76,0.00,,---,0.00,VWS V14.01,2013-02-19 04:48:00,
2013-02-18 20:49:00,43.9,36.8,29.97,NE,45,0.0,0.0,76,0.00,,---,0.00,VWS V14.01,2013-02-19 04:49:00,
2013-02-18 20:50:00,43.9,36.8,29.97,NE,45,0.0,0.0,76,0.00,,---,0.00,VWS V14.01,2013-02-19 04:50:00,
2013-02-18 20:51:00,43.7,37.0,29.97,NE,45,0.0,0.0,77,0.00,,---,0.00,VWS V14.01,2013-02-19 04:51:00,
2013-02-18 20:52:00,43.9,36.8,29.97,NE,45,0.0,0.0,76,0.00,,---,0.00,VWS V14.01,2013-02-19 04:52:00,
2013-02-18 20:53:00,43.9,36.8,29.97,NE,45,0.0,0.0,76,0.00,,---,0.00,VWS V14.01,2013-02-19 04:53:00,
2013-02-18 20:54:00,43.9,36.8,29.97,NE,45,0.0,0.0,76,0.00,,---,0.00,VWS V14.01,2013-02-19 04:54:00,
2013-02-18 20:55:00,43.9,36.8,29.97,NE,45,0.0,0.0,76,0.00,,---,0.00,VWS V14.01,2013-02-19 04:55:00,
2013-02-18 20:56:00,43.9,36.8,29.97,NE,45,0.0,0.0,76,0.00,,---,0.00,VWS V14.01,2013-02-19 04:56:00,
2013-02-18 20:57:00,43.9,36.8,29.97,NE,45,0.0,0.0,76,0.00,,---,0.00,VWS V14.01,2013-02-19 04:57:00,
2013-02-18 20:58:00,43.9,36.8,29.97,NE,45,1.6,1.6,76,0.00,,---,0.00,VWS V14.01,2013-02-19 04:58:00,
2013-02-18 20:59:00,44.1,37.0,29.97,NE,45,0.0,0.0,76,0.00,,---,0.00,VWS V14.01,2013-02-19 04:59:00,
2013-02-18 21:00:00,43.9,36.8,29.97,NE,45,0.0,0.0,76,0.00,,---,0.00,VWS V14.01,2013-02-19 05:00:00,
2013-02-18 21:01:00,43.9,36.8,29.97,NE,45,0.0,0.0,76,0.00,,---,0.00,VWS V14.01,2013-02-19 05:01:00,
2013-02-18 21:02:00,43.9,36.8,29.97,NE,45,0.0,1.3,76,0.00,,---,0.00,VWS V14.01,2013-02-19 05:02:00,
2013-02-18 21:03:00,43.9,36.8,29.97,NE,45,0.0,0.0,76,0.00,,---,0.00,VWS V14.01,2013-02-19 05:03:00,
2013-02-18 21:04:00,43.9,36.8,29.97,NE,45,0.0,0.0,76,0.00,,---,0.00,VWS V14.01,2013-02-19 05:04:00,
2013-02-18 21:05:00,43.9,36.8,29.97,NE,45,0.0,0.0,76,0.00,,---,0.00,VWS V14.01,2013-02-19 05:05:00,
2013-02-18 21:06:00,43.9,36.8,29.97,NE,45,0.0,0.0,76,0.00,,---,0.00,VWS V14.01,2013-02-19 05:06:00,
2013-02-18 21:07:00,43.9,36.8,29.97,NE,45,0.0,0.0,76,0.00,,---,0.00,VWS V14.01,2013-02-19 05:07:00,
2013-02-18 21:08:00,43.9,36.8,29.97,NE,45,0.0,0.0,76,0.00,,---,0.00,VWS V14.01,2013-02-19 05:08:00,
2013-02-18 21:09:00,43.9,36.8,29.97,NE,45,0.0,0.0,76,0.00,,---,0.00,VWS V14.01,2013-02-19 05:09:00,
2013-02-18 21:10:00,43.9,36.8,29.97,NE,45,0.0,0.0,76,0.00,,---,0.00,VWS V14.01,2013-02-19 05:10:00,
2013-02-18 21:11:00,43.9,36.8,29.97,NE,45,0.0,0.0,76,0.00,,---,0.00,VWS V14.01,2013-02-19 05:11:00,
2013-02-18 21:12:00,43.9,36.8,29.97,NE,45,0.0,0.0,76,0.00,,---,0.00,VWS V14.01,2013-02-19 05:12:00,
2013-02-18 21:13:00,43.9,36.8,29.97,NE,45,0.0,0.0,76,0.00,,---,0.00,VWS V14.01,2013-02-19 05:13:00,
2013-02-18 21:14:00,43.9,36.8,29.97,NE,45,0.0,0.0,76,0.00,,---,0.00,VWS V14.01,2013-02-19 05:14:00,
2013-02-18 21:15:00,43.9,36.8,29.97,NE,45,0.0,0.0,76,0.00,,---,0.00,VWS V14.01,2013-02-19 05:15:00,
2013-02-18 21:16:00,43.9,36.8,29.97,NE,45,0.0,0.0,76,0.00,,---,0.00,VWS V14.01,2013-02-19 05:16:00,
2013-02-18 21:17:00,43.9,36.8,29.97,NE,45,0.0,0.0,76,0.00,,---,0.00,VWS V14.01,2013-02-19 05:17:00,
2013-02-18 21:18:00,43.9,36.8,29.97,NE,45,0.0,0.0,76,0.00,,---,0.00,VWS V14.01,2013-02-19 05:18:00,
2013-02-18 21:19:00,43.9,36.8,29.97,NE,45,0.0,0.0,76,0.00,,---,0.00,VWS V14.01,2013-02-19 05:19:00,
2013-02-18 21:20:00,43.7,36.6,29.97,NE,45,0.0,0.0,76,0.00,,---,0.00,VWS V14.01,2013-02-19 05:20:00,
2013-02-18 21:21:00,43.7,36.6,29.97,NE,45,0.0,0.0,76,0.00,,---,0.00,VWS V14.01,2013-02-19 05:21:00,
2013-02-18 21:22:00,43.7,36.6,29.97,NE,45,0.0,0.0,76,0.00,,---,0.00,VWS V14.01,2013-02-19 05:22:00,
2013-02-18 21:23:00,43.7,36.6,29.97,NE,45,0.0,0.0,76,0.00,,---,0.00,VWS V14.01,2013-02-19 05:23:00,
2013-02-18 21:24:00,43.7,36.6,29.97,NE,45,0.0,0.0,76,0.00,,---,0.00,VWS V14.01,2013-02-19 05:24:00,
2013-02-18 21:25:00,43.7,36.6,29.97,NE,45,0.0,0.0,76,0.00,,---,0.00,VWS V14.01,2013-02-19 05:25:00,
2013-02-18 21:26:00,43.7,36.6,29.97,NE,45,0.0,0.0,76,0.00,,---,0.00,VWS V14.01,2013-02-19 05:26:00,
2013-02-18 21:27:00,43.7,36.6,29.97,NE,45,0.0,0.0,76,0.00,,---,0.00,VWS V14.01,2013-02-19 05:27:00,
2013-02-18 21:28:00,43.7,36.6,29.97,NE,45,0.0,0.0,76,0.00,,---,0.00,VWS V14.01,2013-02-19 05:28:00,
2013-02-18 21:29:00,43.7,36.6,29.97,NE,45,0.0,0.0,76,0.00,,---,0.00,VWS V14.01,2013-02-19 05:29:00,
2013-02-18 21:30:00,43.7,36.6,29.97,NE,45,0.0,0.0,76,0.00,,---,0.00,VWS V14.01,2013-02-19 05:30:00,
2013-02-18 21:31:00,43.7,36.6,29.97,NE,45,0.0,0.0,76,0.00,,---,0.00,VWS V14.01,2013-02-19 05:31:00,
2013-02-18 21:32:00,43.7,36.6,29.97,NE,45,0.0,0.0,76,0.00,,---,0.00,VWS V14.01,2013-02-19 05:32:00,
2013-02-18 21:33:00,43.7,36.6,29.97,NE,45,0.0,0.0,76,0.00,,---,0.00,VWS V14.01,2013-02-19 05:33:00,
2013-02-18 21:34:00,43.7,36.6,29.97,NE,45,0.0,0.0,76,0.00,,---,0.00,VWS V14.01,2013-02-19 05:34:00,
2013-02-18 21:35:00,43.7,36.6,29.97,NE,45,0.0,0.0,76,0.00,,---,0.00,VWS V14.01,2013-02-19 05:35:00,
2013-02-18 21:36:00,43.7,37.0,29.97,NE,45,0.0,0.0,77,0.00,,---,0.00,VWS V14.01,2013-02-19 05:36:00,
2013-02-18 21:37:00,43.7,36.6,29.97,NE,45,0.0,0.0,76,0.00,,---,0.00,VWS V14.01,2013-02-19 05:37:00,
2013-02-18 21:38:00,43.7,37.0,29.97,NE,45,0.0,0.0,77,0.00,,---,0.00,VWS V14.01,2013-02-19 05:38:00,
2013-02-18 21:39:00,43.7,37.0,29.97,NE,45,0.0,0.0,77,0.00,,---,0.00,VWS V14.01,2013-02-19 05:39:00,
2013-02-18 21:40:00,43.7,37.0,29.97,NE,45,0.0,0.0,77,0.00,,---,0.00,VWS V14.01,2013-02-19 05:40:00,
2013-02-18 21:41:00,43.7,37.0,29.97,NE,45,0.0,0.0,77,0.00,,---,0.00,VWS V14.01,2013-02-19 05:41:00,
2013-02-18 21:42:00,43.7,37.0,29.97,NE,45,0.0,0.0,77,0.00,,---,0.00,VWS V14.01,2013-02-19 05:42:00,
2013-02-18 21:43:00,43.7,37.0,29.97,NE,45,0.0,0.0,77,0.00,,---,0.00,VWS V14.01,2013-02-19 05:43:00,
2013-02-18 21:44:00,43.7,37.0,29.97,NE,45,0.0,0.0,77,0.00,,---,0.00,VWS V14.01,2013-02-19 05:44:00,
2013-02-18 21:45:00,43.7,37.0,29.97,NE,45,0.0,0.0,77,0.00,,---,0.00,VWS V14.01,2013-02-19 05:45:00,
2013-02-18 21:46:00,43.7,37.0,29.97,NE,45,0.0,0.0,77,0.00,,---,0.00,VWS V14.01,2013-02-19 05:46:00,
2013-02-18 21:47:00,43.7,37.0,29.97,NE,45,0.0,0.0,77,0.00,,---,0.00,VWS V14.01,2013-02-19 05:47:00,
2013-02-18 21:48:00,43.7,37.0,29.97,NE,45,0.0,0.0,77,0.00,,---,0.00,VWS V14.01,2013-02-19 05:48:00,
2013-02-18 21:49:00,43.7,37.0,29.97,NE,45,0.0,0.0,77,0.00,,---,0.00,VWS V14.01,2013-02-19 05:49:00,
2013-02-18 21:50:00,43.9,37.2,29.97,NE,45,0.0,0.0,77,0.00,,---,0.00,VWS V14.01,2013-02-19 05:50:00,
2013-02-18 21:51:00,43.7,37.0,29.97,NE,45,0.0,0.0,77,0.00,,---,0.00,VWS V14.01,2013-02-19 05:51:00,
2013-02-18 21:52:00,43.9,37.2,29.97,NE,45,0.0,0.0,77,0.00,,---,0.00,VWS V14.01,2013-02-19 05:52:00,
2013-02-18 21:53:00,43.9,37.2,29.97,NE,45,0.0,0.0,77,0.00,,---,0.00,VWS V14.01,2013-02-19 05:53:00,
2013-02-18 21:54:00,43.9,37.2,29.97,NE,45,0.0,0.0,77,0.00,,---,0.00,VWS V14.01,2013-02-19 05:54:00,
2013-02-18 21:55:00,43.9,37.2,29.97,NNE,22,0.0,0.0,77,0.00,,---,0.00,VWS V14.01,2013-02-19 05:55:00,
2013-02-18 21:56:00,43.9,37.2,29.97,NE,45,0.0,0.0,77,0.00,,---,0.00,VWS V14.01,2013-02-19 05:56:00,
2013-02-18 21:57:00,43.9,37.2,29.97,NNE,22,0.0,0.0,77,0.00,,---,0.00,VWS V14.01,2013-02-19 05:57:00,
2013-02-18 21:58:00,43.9,37.2,29.97,NNE,22,0.0,0.0,77,0.00,,---,0.00,VWS V14.01,2013-02-19 05:58:00,
2013-02-18 21:59:00,43.9,37.2,29.97,North,0,1.1,1.1,77,0.00,,---,0.00,VWS V14.01,2013-02-19 05:59:00,
2013-02-18 22:00:00,43.9,37.2,29.97,NW,315,1.1,1.1,77,0.00,,---,0.00,VWS V14.01,2013-02-19 06:00:00,
2013-02-18 22:01:00,43.9,37.2,29.97,NW,315,0.0,1.1,77,0.00,,---,0.00,VWS V14.01,2013-02-19 06:01:00,
2013-02-18 22:02:00,43.5,37.1,29.97,SW,225,1.1,2.0,78,0.00,,---,0.00,VWS V14.01,2013-02-19 06:02:00,
2013-02-18 22:03:00,43.9,37.2,29.97,NW,315,0.0,0.0,77,0.00,,---,0.00,VWS V14.01,2013-02-19 06:03:00,
2013-02-18 22:04:00,43.9,37.2,29.97,NW,315,0.0,1.1,77,0.00,,---,0.00,VWS V14.01,2013-02-19 06:04:00,
2013-02-18 22:05:00,43.7,37.0,29.97,NW,315,0.0,0.0,77,0.00,,---,0.00,VWS V14.01,2013-02-19 06:05:00,
2013-02-18 22:06:00,43.7,37.0,29.97,NW,315,0.0,0.0,77,0.00,,---,0.00,VWS V14.01,2013-02-19 06:06:00,
2013-02-18 22:07:00,43.7,37.0,29.97,NW,315,0.0,0.0,77,0.00,,---,0.00,VWS V14.01,2013-02-19 06:07:00,
2013-02-18 22:08:00,43.7,37.0,29.97,NW,315,0.0,0.0,77,0.00,,---,0.00,VWS V14.01,2013-02-19 06:08:00,
2013-02-18 22:09:00,43.7,37.0,29.97,NW,315,1.1,1.1,77,0.00,,---,0.00,VWS V14.01,2013-02-19 06:09:00,
2013-02-18 22:10:00,43.7,37.0,29.97,NNW,338,1.1,1.1,77,0.00,,---,0.00,VWS V14.01,2013-02-19 06:10:00,
2013-02-18 22:11:00,43.7,37.0,29.97,NW,315,0.0,1.1,77,0.00,,---,0.00,VWS V14.01,2013-02-19 06:11:00,
2013-02-18 22:12:00,43.7,37.0,29.97,NW,315,0.0,0.0,77,0.00,,---,0.00,VWS V14.01,2013-02-19 06:12:00,
2013-02-18 22:13:00,43.7,37.0,29.97,NNW,338,1.1,1.1,77,0.00,,---,0.00,VWS V14.01,2013-02-19 06:13:00,
2013-02-18 22:14:00,43.7,37.0,29.97,East,90,2.0,2.0,77,0.00,,---,0.00,VWS V14.01,2013-02-19 06:14:00,
2013-02-18 22:15:00,43.7,37.0,29.97,NE,45,0.0,0.0,77,0.00,,---,0.00,VWS V14.01,2013-02-19 06:15:00,
2013-02-18 22:16:00,43.7,37.0,29.97,NE,45,1.1,2.0,77,0.00,,---,0.00,VWS V14.01,2013-02-19 06:16:00,
2013-02-18 22:17:00,43.7,37.0,29.97,NE,45,1.1,1.1,77,0.00,,---,0.00,VWS V14.01,2013-02-19 06:17:00,
2013-02-18 22:18:00,43.7,37.0,29.97,NE,45,0.0,1.1,77,0.00,,---,0.00,VWS V14.01,2013-02-19 06:18:00,
2013-02-18 22:19:00,43.7,37.0,29.97,NE,45,0.0,0.0,77,0.00,,---,0.00,VWS V14.01,2013-02-19 06:19:00,
2013-02-18 22:20:00,43.7,37.0,29.97,NE,45,0.0,0.0,77,0.00,,---,0.00,VWS V14.01,2013-02-19 06:20:00,
2013-02-18 22:21:00,43.7,37.0,29.97,NE,45,0.0,0.0,77,0.00,,---,0.00,VWS V14.01,2013-02-19 06:21:00,
2013-02-18 22:22:00,43.7,37.0,29.97,NE,45,0.0,0.0,77,0.00,,---,0.00,VWS V14.01,2013-02-19 06:22:00,
2013-02-18 22:23:00,43.7,37.0,29.97,NE,45,0.0,0.0,77,0.00,,---,0.00,VWS V14.01,2013-02-19 06:23:00,
2013-02-18 22:24:00,43.7,37.0,29.97,NE,45,1.6,1.6,77,0.00,,---,0.00,VWS V14.01,2013-02-19 06:24:00,
2013-02-18 22:25:00,43.7,37.0,29.97,NE,45,1.3,1.3,77,0.00,,---,0.00,VWS V14.01,2013-02-19 06:25:00,
2013-02-18 22:26:00,43.7,37.0,29.97,NE,45,0.0,1.6,77,0.00,,---,0.00,VWS V14.01,2013-02-19 06:26:00,
2013-02-18 22:27:00,43.7,37.0,29.97,NE,45,0.0,0.0,77,0.00,,---,0.00,VWS V14.01,2013-02-19 06:27:00,
2013-02-18 22:28:00,43.7,37.0,29.97,NE,45,1.3,1.3,77,0.00,,---,0.00,VWS V14.01,2013-02-19 06:28:00,
2013-02-18 22:29:00,43.7,37.0,29.97,NE,45,1.1,1.3,77,0.00,,---,0.00,VWS V14.01,2013-02-19 06:29:00,
2013-02-18 22:30:00,43.7,37.0,29.97,NE,45,0.0,1.6,77,0.00,,---,0.00,VWS V14.01,2013-02-19 06:30:00,
2013-02-18 22:31:00,43.7,37.0,29.97,NE,45,1.6,1.6,77,0.00,,---,0.00,VWS V14.01,2013-02-19 06:31:00,
2013-02-18 22:32:00,43.7,37.0,29.97,NE,45,1.6,1.6,77,0.00,,---,0.00,VWS V14.01,2013-02-19 06:32:00,
2013-02-18 22:33:00,43.7,37.0,29.97,NE,45,0.0,1.6,77,0.00,,---,0.00,VWS V14.01,2013-02-19 06:33:00,
2013-02-18 22:34:00,43.7,37.0,29.97,NE,45,0.0,0.0,77,0.00,,---,0.00,VWS V14.01,2013-02-19 06:34:00,
2013-02-18 22:35:00,43.9,37.2,29.97,NE,45,0.0,0.0,77,0.00,,---,0.00,VWS V14.01,2013-02-19 06:35:00,
2013-02-18 22:36:00,43.9,37.2,29.97,NE,45,0.0,0.0,77,0.00,,---,0.00,VWS V14.01,2013-02-19 06:36:00,
2013-02-18 22:37:00,43.9,37.2,29.97,NE,45,0.0,0.0,77,0.00,,---,0.00,VWS V14.01,2013-02-19 06:37:00,
2013-02-18 22:38:00,43.9,37.2,29.97,NE,45,0.0,0.0,77,0.00,,---,0.00,VWS V14.01,2013-02-19 06:38:00,
2013-02-18 22:39:00,43.7,37.3,29.97,NE,45,0.0,0.0,78,0.00,,---,0.00,VWS V14.01,2013-02-19 06:39:00,
2013-02-18 22:40:00,43.7,37.3,29.97,NE,45,0.0,0.0,78,0.00,,---,0.00,VWS V14.01,2013-02-19 06:40:00,
2013-02-18 22:41:00,43.7,37.3,29.97,NE,45,0.0,0.0,78,0.00,,---,0.00,VWS V14.01,2013-02-19 06:41:00,
2013-02-18 22:42:00,43.7,37.3,29.97,NE,45,0.0,0.0,78,0.00,,---,0.00,VWS V14.01,2013-02-19 06:42:00,
2013-02-18 22:43:00,43.7,37.3,29.97,NE,45,0.0,0.0,78,0.00,,---,0.00,VWS V14.01,2013-02-19 06:43:00,
2013-02-18 22:44:00,43.0,37.2,29.94,SW,225,0.0,0.0,80,0.00,,---,0.00,VWS V14.01,2013-02-19 06:44:00,
2013-02-18 22:45:00,43.7,37.3,29.97,NNE,22,0.0,0.0,78,0.00,,---,0.00,VWS V14.01,2013-02-19 06:45:00,
2013-02-18 22:46:00,43.7,37.3,29.97,NW,315,0.0,0.0,78,0.00,,---,0.00,VWS V14.01,2013-02-19 06:46:00,
2013-02-18 22:47:00,43.7,37.3,29.97,NW,315,0.0,0.0,78,0.00,,---,0.00,VWS V14.01,2013-02-19 06:47:00,
2013-02-18 22:48:00,43.7,37.3,29.97,NW,315,0.0,0.0,78,0.00,,---,0.00,VWS V14.01,2013-02-19 06:48:00,
2013-02-18 22:49:00,43.7,37.3,29.97,NW,315,0.0,0.0,78,0.00,,---,0.00,VWS V14.01,2013-02-19 06:49:00,
2013-02-18 22:50:00,43.7,37.3,29.97,NW,315,0.0,0.0,78,0.00,,---,0.00,VWS V14.01,2013-02-19 06:50:00,
2013-02-18 22:51:00,43.7,37.3,29.97,NW,315,0.0,0.0,78,0.00,,---,0.00,VWS V14.01,2013-02-19 06:51:00,
2013-02-18 22:52:00,43.7,37.3,29.97,NW,315,0.0,0.0,78,0.00,,---,0.00,VWS V14.01,2013-02-19 06:52:00,
2013-02-18 22:53:00,43.7,37.3,29.97,NW,315,0.0,0.0,78,0.00,,---,0.00,VWS V14.01,2013-02-19 06:53:00,
2013-02-18 22:54:00,43.7,37.3,29.97,NW,315,0.0,0.0,78,0.00,,---,0.00,VWS V14.01,2013-02-19 06:54:00,
2013-02-18 22:55:00,43.7,37.3,29.97,NW,315,0.0,0.0,78,0.00,,---,0.00,VWS V14.01,2013-02-19 06:55:00,
2013-02-18 22:56:00,43.5,37.1,29.97,NW,315,0.0,0.0,78,0.00,,---,0.00,VWS V14.01,2013-02-19 06:56:00,
2013-02-18 22:57:00,43.7,37.3,29.97,NW,315,0.0,0.0,78,0.00,,---,0.00,VWS V14.01,2013-02-19 06:57:00,
2013-02-18 22:58:00,43.7,37.3,29.97,NW,315,0.0,0.0,78,0.00,,---,0.00,VWS V14.01,2013-02-19 06:58:00,
2013-02-18 22:59:00,43.5,37.1,29.97,NW,315,0.0,0.0,78,0.00,,---,0.00,VWS V14.01,2013-02-19 06:59:00,
2013-02-18 23:00:00,43.5,37.1,29.97,WNW,292,0.0,0.0,78,0.00,,---,0.00,VWS V14.01,2013-02-19 07:00:00,
2013-02-18 23:01:00,43.5,37.1,29.97,SSW,202,0.0,0.0,78,0.00,,---,0.00,VWS V14.01,2013-02-19 07:01:00,
2013-02-18 23:02:00,43.5,37.1,29.97,SW,225,1.1,2.0,78,0.00,,---,0.00,VWS V14.01,2013-02-19 07:02:00,
2013-02-18 23:03:00,43.5,37.1,29.97,SSW,202,0.0,1.3,78,0.00,,---,0.00,VWS V14.01,2013-02-19 07:03:00,
2013-02-18 23:04:00,43.5,37.1,29.97,SSW,202,0.0,0.0,78,0.00,,---,0.00,VWS V14.01,2013-02-19 07:04:00,
2013-02-18 23:05:00,43.5,37.5,29.97,WSW,248,1.1,1.1,79,0.00,,---,0.00,VWS V14.01,2013-02-19 07:05:00,
2013-02-18 23:06:00,43.7,37.6,29.97,West,270,0.0,0.0,79,0.00,,---,0.00,VWS V14.01,2013-02-19 07:06:00,
2013-02-18 23:07:00,43.7,37.6,29.97,West,270,0.0,0.0,79,0.00,,---,0.00,VWS V14.01,2013-02-19 07:07:00,
2013-02-18 23:08:00,43.7,37.6,29.97,West,270,0.0,0.0,79,0.00,,---,0.00,VWS V14.01,2013-02-19 07:08:00,
2013-02-18 23:09:00,43.7,37.6,29.97,West,270,0.0,0.0,79,0.00,,---,0.00,VWS V14.01,2013-02-19 07:09:00,
2013-02-18 23:10:00,43.5,37.5,29.97,West,270,0.0,0.0,79,0.00,,---,0.00,VWS V14.01,2013-02-19 07:10:00,
2013-02-18 23:11:00,43.5,37.1,29.97,West,270,0.0,0.0,78,0.00,,---,0.00,VWS V14.01,2013-02-19 07:11:00,
2013-02-18 23:12:00,43.5,37.5,29.97,West,270,0.0,0.0,79,0.00,,---,0.00,VWS V14.01,2013-02-19 07:12:00,
2013-02-18 23:13:00,43.5,37.1,29.97,West,270,0.0,0.0,78,0.00,,---,0.00,VWS V14.01,2013-02-19 07:13:00,
2013-02-18 23:14:00,43.5,37.1,29.97,West,270,0.0,0.0,78,0.00,,---,0.00,VWS V14.01,2013-02-19 07:14:00,
2013-02-18 23:15:00,43.5,37.1,29.97,SW,225,0.0,0.0,78,0.00,,---,0.00,VWS V14.01,2013-02-19 07:15:00,
2013-02-18 23:16:00,43.5,37.5,29.97,SSW,202,0.0,0.9,79,0.00,,---,0.00,VWS V14.01,2013-02-19 07:16:00,
2013-02-18 23:17:00,43.5,37.5,29.97,SSW,202,0.9,1.3,79,0.00,,---,0.00,VWS V14.01,2013-02-19 07:17:00,
2013-02-18 23:18:00,43.5,37.5,29.97,SSW,202,0.9,1.6,79,0.00,,---,0.00,VWS V14.01,2013-02-19 07:18:00,
2013-02-18 23:19:00,43.5,37.5,29.97,SSW,202,0.0,0.9,79,0.00,,---,0.00,VWS V14.01,2013-02-19 07:19:00,
2013-02-18 23:20:00,43.5,37.5,29.97,SW,225,0.0,0.0,79,0.00,,---,0.00,VWS V14.01,2013-02-19 07:20:00,
2013-02-18 23:21:00,43.5,37.5,29.94,SW,225,0.0,0.0,79,0.00,,---,0.00,VWS V14.01,2013-02-19 07:21:00,
2013-02-18 23:22:00,43.5,37.5,29.94,SW,225,0.0,0.0,79,0.00,,---,0.00,VWS V14.01,2013-02-19 07:22:00,
2013-02-18 23:23:00,43.5,37.5,29.94,SW,225,0.0,0.0,79,0.00,,---,0.00,VWS V14.01,2013-02-19 07:23:00,
2013-02-18 23:24:00,43.5,37.5,29.94,SW,225,0.0,0.0,79,0.00,,---,0.00,VWS V14.01,2013-02-19 07:24:00,
2013-02-18 23:25:00,43.5,37.5,29.94,SW,225,0.0,0.0,79,0.00,,---,0.00,VWS V14.01,2013-02-19 07:25:00,
2013-02-18 23:26:00,43.3,37.6,29.94,SW,225,0.0,0.0,80,0.00,,---,0.00,VWS V14.01,2013-02-19 07:26:00,
2013-02-18 23:27:00,43.5,37.8,29.94,SW,225,0.0,0.0,80,0.00,,---,0.00,VWS V14.01,2013-02-19 07:27:00,
2013-02-18 23:28:00,43.5,37.8,29.94,SW,225,0.0,0.0,80,0.00,,---,0.00,VWS V14.01,2013-02-19 07:28:00,
2013-02-18 23:29:00,43.3,37.6,29.94,SW,225,0.0,0.0,80,0.00,,---,0.00,VWS V14.01,2013-02-19 07:29:00,
2013-02-18 23:30:00,43.3,37.6,29.94,SW,225,0.0,0.0,80,0.00,,---,0.00,VWS V14.01,2013-02-19 07:30:00,
2013-02-18 23:31:00,43.3,37.6,29.94,SSW,202,0.0,0.0,80,0.00,,---,0.00,VWS V14.01,2013-02-19 07:31:00,
2013-02-18 23:32:00,43.3,37.6,29.94,SW,225,0.0,0.0,80,0.00,,---,0.00,VWS V14.01,2013-02-19 07:32:00,
2013-02-18 23:33:00,43.3,37.6,29.94,SSW,202,0.0,0.0,80,0.00,,---,0.00,VWS V14.01,2013-02-19 07:33:00,
2013-02-18 23:34:00,43.3,37.6,29.94,SSW,202,0.0,0.0,80,0.00,,---,0.00,VWS V14.01,2013-02-19 07:34:00,
2013-02-18 23:35:00,42.8,37.1,29.97,West,270,0.0,0.0,80,0.00,,---,0.00,VWS V14.01,2013-02-19 07:35:00,
2013-02-18 23:36:00,43.2,37.1,29.94,SW,225,1.1,1.1,79,0.00,,---,0.00,VWS V14.01,2013-02-19 07:36:00,
2013-02-18 23:37:00,43.2,37.1,29.94,SSW,202,0.0,0.0,79,0.00,,---,0.00,VWS V14.01,2013-02-19 07:37:00,
2013-02-18 23:38:00,43.2,37.1,29.94,SW,225,1.1,1.1,79,0.00,,---,0.00,VWS V14.01,2013-02-19 07:38:00,
2013-02-18 23:39:00,43.2,37.1,29.94,SW,225,1.1,1.1,79,0.00,,---,0.00,VWS V14.01,2013-02-19 07:39:00,
2013-02-18 23:40:00,43.2,37.4,29.94,SW,225,0.0,1.1,80,0.00,,---,0.00,VWS V14.01,2013-02-19 07:40:00,
2013-02-18 23:41:00,43.0,37.2,29.94,SW,225,0.0,0.0,80,0.00,,---,0.00,VWS V14.01,2013-02-19 07:41:00,
2013-02-18 23:42:00,43.2,37.4,29.94,SW,225,0.0,0.0,80,0.00,,---,0.00,VWS V14.01,2013-02-19 07:42:00,
2013-02-18 23:43:00,43.2,37.4,29.94,SW,225,0.0,0.0,80,0.00,,---,0.00,VWS V14.01,2013-02-19 07:43:00,
2013-02-18 23:44:00,43.0,37.2,29.94,SW,225,0.0,0.0,80,0.00,,---,0.00,VWS V14.01,2013-02-19 07:44:00,
2013-02-18 23:45:00,43.0,36.9,29.94,SW,225,0.0,0.0,79,0.00,,---,0.00,VWS V14.01,2013-02-19 07:45:00,
2013-02-18 23:46:00,43.0,37.2,29.94,SW,225,0.0,0.0,80,0.00,,---,0.00,VWS V14.01,2013-02-19 07:46:00,
2013-02-18 23:47:00,43.0,36.9,29.94,SW,225,0.0,0.0,79,0.00,,---,0.00,VWS V14.01,2013-02-19 07:47:00,
2013-02-18 23:48:00,43.0,37.2,29.94,SW,225,0.0,0.0,80,0.00,,---,0.00,VWS V14.01,2013-02-19 07:48:00,
2013-02-18 23:49:00,43.0,37.2,29.94,SW,225,0.0,0.0,80,0.00,,---,0.00,VWS V14.01,2013-02-19 07:49:00,
2013-02-18 23:50:00,43.0,37.2,29.94,SW,225,0.0,0.0,80,0.00,,---,0.00,VWS V14.01,2013-02-19 07:50:00,
2013-02-18 23:51:00,43.0,37.2,29.94,SSW,202,0.0,0.0,80,0.00,,---,0.00,VWS V14.01,2013-02-19 07:51:00,
2013-02-18 23:52:00,43.0,37.2,29.94,SW,225,0.0,0.0,80,0.00,,---,0.00,VWS V14.01,2013-02-19 07:52:00,
2013-02-18 23:53:00,43.0,37.2,29.94,SW,225,0.0,0.0,80,0.00,,---,0.00,VWS V14.01,2013-02-19 07:53:00,
2013-02-18 23:54:00,43.0,37.2,29.94,SSW,202,0.0,0.0,80,0.00,,---,0.00,VWS V14.01,2013-02-19 07:54:00,
2013-02-18 23:55:00,43.0,37.2,29.94,South,180,1.3,1.3,80,0.00,,---,0.00,VWS V14.01,2013-02-19 07:55:00,
2013-02-18 23:56:00,43.0,37.2,29.94,South,180,0.0,0.0,80,0.00,,---,0.00,VWS V14.01,2013-02-19 07:56:00,
2013-02-18 23:57:00,42.8,37.1,29.94,SSE,158,0.9,1.6,80,0.00,,---,0.00,VWS V14.01,2013-02-19 07:57:00,
2013-02-18 23:58:00,43.0,37.2,29.94,South,180,0.0,0.9,80,0.00,,---,0.00,VWS V14.01,2013-02-19 07:58:00,
2013-02-18 23:59:00,43.0,37.2,29.94,SW,225,0.0,0.0,80,0.00,,---,0.00,VWS V14.01,2013-02-19 07:59:00,